[[{"header":{"parameterUnit":"m.s-1","parameterCategory":1,"la1":30.6,"la2":29.2853,"lo1":-89.7004,"lo2":-87.6739,"dy":0.0162,"dx":0.0183,"nx":112,"ny":82,"refTime":"2023-08-05T06:00:00:Z","depth":0,"parameterNumber":2,"parameterNumberName":"U-component_of_WINDS"},"data":[0.0,0.0,0.0,0.0,0.0,0.0,0.0,0.0,0.0,0.0,0.0,0.0,0.0,0.0,0.0,0.0,0.0,0.0,0.0,0.0,0.0,0.0,0.0,0.0,0.0,0.0,0.0,0.0,0.0,0.0,0.0,0.0,0.0,0.0,0.0,0.0,0.0,0.0,0.0,0.0,0.0,0.0,0.0,0.0,0.0,0.0,0.0,0.0,0.0,0.0,0.0,0.0,0.0,0.0,0.0,0.0,0.0,0.0,0.0,0.0,0.0,0.0,0.0,0.0,0.0,0.0,0.0,0.0,0.0,0.0,0.0,0.0,0.0,0.0,0.0,0.0,0.0,0.0,0.0,0.0,0.0,0.0,0.0,0.0,0.0,0.0,0.0,0.0,0.0,0.0,0.0,-4.9871,-4.9857,-4.9788,-4.9682,-4.9682,-4.9623,-4.9509,0.0,0.0,0.0,0.0,0.0,0.0,0.0,0.0,0.0,0.0,0.0,0.0,0.0,0.0,0.0,0.0,0.0,0.0,0.0,0.0,0.0,0.0,0.0,0.0,0.0,0.0,0.0,0.0,0.0,0.0,0.0,0.0,0.0,0.0,0.0,0.0,0.0,0.0,0.0,0.0,0.0,0.0,0.0,0.0,0.0,0.0,0.0,0.0,0.0,0.0,0.0,0.0,0.0,0.0,0.0,0.0,0.0,0.0,0.0,0.0,0.0,0.0,0.0,0.0,0.0,0.0,0.0,0.0,0.0,0.0,0.0,0.0,0.0,0.0,0.0,0.0,0.0,0.0,0.0,0.0,0.0,0.0,0.0,0.0,0.0,0.0,0.0,0.0,0.0,0.0,0.0,0.0,0.0,0.0,0.0,0.0,0.0,0.0,0.0,0.0,0.0,0.0,0.0,0.0,-4.9857,-4.975,-4.9623,-4.9551,-4.9521,-4.9521,-4.9521,-4.949,0.0,0.0,0.0,0.0,0.0,0.0,0.0,0.0,0.0,0.0,0.0,0.0,0.0,0.0,0.0,0.0,0.0,0.0,0.0,0.0,0.0,0.0,0.0,0.0,0.0,0.0,0.0,0.0,0.0,0.0,0.0,0.0,0.0,0.0,0.0,0.0,0.0,0.0,0.0,0.0,0.0,0.0,0.0,0.0,0.0,0.0,0.0,0.0,0.0,0.0,0.0,0.0,0.0,0.0,0.0,0.0,0.0,0.0,0.0,0.0,0.0,0.0,0.0,0.0,0.0,0.0,0.0,0.0,0.0,0.0,0.0,0.0,0.0,0.0,0.0,0.0,0.0,0.0,0.0,0.0,0.0,0.0,0.0,0.0,0.0,0.0,0.0,0.0,0.0,0.0,0.0,0.0,0.0,0.0,0.0,0.0,0.0,0.0,0.0,0.0,0.0,0.0,0.0,-4.9678,-4.9667,-4.9593,-4.9536,-4.9427,-4.9228,-4.9228,-4.9162,-4.9029,-4.9146,0.0,0.0,0.0,0.0,0.0,0.0,0.0,0.0,0.0,0.0,0.0,0.0,0.0,0.0,0.0,0.0,0.0,0.0,0.0,0.0,0.0,0.0,0.0,0.0,0.0,0.0,0.0,0.0,0.0,0.0,0.0,0.0,0.0,0.0,0.0,0.0,0.0,0.0,0.0,0.0,0.0,0.0,0.0,0.0,0.0,0.0,0.0,0.0,0.0,0.0,0.0,0.0,0.0,0.0,0.0,0.0,0.0,0.0,0.0,0.0,0.0,0.0,0.0,0.0,0.0,0.0,0.0,0.0,0.0,0.0,0.0,0.0,0.0,0.0,0.0,0.0,0.0,0.0,0.0,0.0,0.0,0.0,0.0,0.0,0.0,0.0,0.0,0.0,0.0,0.0,0.0,0.0,0.0,0.0,0.0,0.0,0.0,0.0,0.0,0.0,0.0,0.0,-4.9329,-4.9297,-4.9297,-4.9297,-4.9179,-4.8923,-4.8906,-4.8819,-4.8605,-4.8784,0.0,0.0,0.0,0.0,0.0,0.0,0.0,0.0,0.0,0.0,0.0,0.0,0.0,0.0,0.0,0.0,0.0,0.0,0.0,0.0,0.0,0.0,0.0,0.0,0.0,0.0,0.0,0.0,0.0,0.0,0.0,0.0,0.0,0.0,0.0,0.0,0.0,0.0,0.0,0.0,0.0,0.0,0.0,0.0,0.0,0.0,0.0,0.0,0.0,0.0,0.0,0.0,0.0,0.0,0.0,0.0,0.0,0.0,0.0,0.0,0.0,0.0,0.0,0.0,0.0,0.0,0.0,0.0,0.0,0.0,0.0,0.0,0.0,0.0,0.0,0.0,0.0,0.0,0.0,0.0,0.0,0.0,0.0,0.0,0.0,0.0,0.0,0.0,0.0,0.0,0.0,0.0,0.0,0.0,0.0,0.0,0.0,0.0,0.0,0.0,0.0,0.0,-4.8819,-4.866,-4.866,-4.866,-4.8641,-4.8623,-4.8623,-4.8623,-4.8605,-4.8623,0.0,0.0,0.0,0.0,0.0,0.0,0.0,0.0,0.0,0.0,0.0,0.0,0.0,0.0,0.0,0.0,0.0,0.0,0.0,0.0,0.0,0.0,0.0,0.0,0.0,0.0,0.0,0.0,0.0,0.0,0.0,0.0,0.0,0.0,0.0,0.0,0.0,0.0,0.0,0.0,0.0,0.0,0.0,0.0,0.0,0.0,0.0,0.0,0.0,0.0,0.0,0.0,0.0,0.0,0.0,0.0,0.0,0.0,0.0,0.0,0.0,0.0,0.0,0.0,0.0,0.0,0.0,0.0,0.0,0.0,0.0,0.0,0.0,0.0,0.0,0.0,0.0,0.0,0.0,0.0,0.0,0.0,0.0,0.0,0.0,0.0,0.0,0.0,0.0,0.0,0.0,0.0,0.0,0.0,0.0,0.0,0.0,0.0,0.0,0.0,0.0,0.0,-4.866,-4.8605,0.0,-4.8605,-4.8514,-4.8307,-4.8288,-4.823,-4.8052,0.0,0.0,0.0,0.0,0.0,0.0,0.0,0.0,0.0,0.0,0.0,0.0,0.0,0.0,0.0,0.0,0.0,0.0,0.0,0.0,0.0,0.0,0.0,0.0,0.0,0.0,0.0,0.0,0.0,0.0,0.0,0.0,0.0,0.0,0.0,0.0,0.0,0.0,0.0,0.0,0.0,0.0,0.0,0.0,0.0,0.0,0.0,0.0,0.0,0.0,0.0,0.0,0.0,0.0,0.0,0.0,0.0,0.0,0.0,0.0,0.0,0.0,0.0,0.0,0.0,0.0,0.0,0.0,0.0,0.0,0.0,0.0,0.0,0.0,0.0,0.0,0.0,0.0,0.0,0.0,0.0,0.0,0.0,0.0,0.0,0.0,0.0,0.0,0.0,0.0,0.0,0.0,0.0,0.0,0.0,0.0,0.0,0.0,0.0,0.0,0.0,0.0,-4.8439,-4.8364,-4.8307,0.0,-4.8307,-4.821,-4.7994,-4.7974,-4.7891,-4.7699,0.0,0.0,0.0,0.0,0.0,0.0,0.0,0.0,0.0,0.0,0.0,0.0,0.0,0.0,0.0,0.0,0.0,0.0,0.0,0.0,0.0,0.0,0.0,0.0,0.0,0.0,0.0,0.0,0.0,0.0,0.0,0.0,0.0,0.0,0.0,0.0,0.0,0.0,0.0,0.0,0.0,0.0,0.0,0.0,0.0,0.0,0.0,0.0,0.0,0.0,0.0,0.0,0.0,0.0,0.0,0.0,0.0,0.0,0.0,0.0,0.0,0.0,0.0,0.0,0.0,0.0,0.0,0.0,0.0,0.0,0.0,0.0,0.0,0.0,0.0,0.0,0.0,0.0,0.0,0.0,0.0,0.0,0.0,0.0,0.0,0.0,0.0,0.0,0.0,0.0,0.0,0.0,0.0,0.0,0.0,0.0,0.0,0.0,0.0,0.0,0.0,0.0,-4.8114,-4.785,-4.7717,-4.7717,-4.7717,-4.7717,-4.7717,-4.7717,-4.7717,0.0,0.0,0.0,0.0,0.0,0.0,0.0,0.0,0.0,0.0,0.0,0.0,0.0,0.0,0.0,0.0,0.0,0.0,0.0,0.0,0.0,0.0,0.0,0.0,0.0,0.0,0.0,0.0,0.0,0.0,0.0,0.0,0.0,0.0,0.0,0.0,0.0,0.0,0.0,0.0,0.0,0.0,0.0,0.0,0.0,0.0,0.0,0.0,0.0,0.0,0.0,0.0,0.0,0.0,0.0,0.0,0.0,0.0,0.0,0.0,0.0,0.0,0.0,0.0,0.0,0.0,0.0,0.0,0.0,0.0,0.0,0.0,0.0,0.0,0.0,0.0,0.0,0.0,0.0,0.0,0.0,0.0,0.0,0.0,0.0,0.0,0.0,0.0,0.0,0.0,0.0,0.0,0.0,0.0,0.0,0.0,0.0,0.0,0.0,0.0,0.0,0.0,0.0,-4.7827,-4.7762,-4.7717,-4.7717,-4.7717,-4.7717,-4.7717,-4.7717,-4.7717,-4.7717,0.0,0.0,0.0,0.0,0.0,0.0,0.0,0.0,0.0,0.0,0.0,0.0,0.0,0.0,0.0,0.0,0.0,0.0,0.0,0.0,0.0,0.0,0.0,0.0,0.0,0.0,0.0,0.0,0.0,0.0,0.0,0.0,0.0,0.0,0.0,0.0,0.0,0.0,0.0,0.0,0.0,0.0,0.0,0.0,0.0,0.0,0.0,0.0,0.0,0.0,0.0,0.0,0.0,0.0,0.0,0.0,0.0,0.0,0.0,0.0,0.0,0.0,0.0,0.0,0.0,0.0,0.0,0.0,0.0,0.0,0.0,0.0,0.0,0.0,0.0,0.0,0.0,0.0,0.0,0.0,0.0,0.0,0.0,0.0,0.0,0.0,0.0,0.0,0.0,0.0,0.0,0.0,0.0,0.0,0.0,0.0,0.0,0.0,0.0,0.0,0.0,0.0,-4.7717,-4.7717,-4.7717,-4.7717,-4.7717,-4.7717,-4.7717,-4.7717,-4.7717,-4.7717,0.0,0.0,0.0,0.0,0.0,0.0,0.0,0.0,0.0,0.0,0.0,0.0,0.0,0.0,0.0,0.0,0.0,0.0,0.0,0.0,0.0,0.0,0.0,0.0,0.0,0.0,0.0,0.0,0.0,0.0,0.0,0.0,0.0,0.0,0.0,0.0,0.0,0.0,0.0,0.0,0.0,0.0,0.0,0.0,0.0,0.0,0.0,0.0,0.0,0.0,0.0,0.0,0.0,0.0,0.0,0.0,0.0,0.0,0.0,0.0,0.0,0.0,0.0,0.0,0.0,0.0,0.0,0.0,0.0,0.0,0.0,0.0,0.0,0.0,0.0,0.0,0.0,0.0,0.0,0.0,0.0,0.0,0.0,0.0,0.0,0.0,0.0,0.0,0.0,0.0,0.0,0.0,0.0,0.0,0.0,0.0,0.0,0.0,0.0,0.0,0.0,0.0,-4.7717,-4.7717,-4.7717,-4.7717,-4.7717,-4.7717,-4.7717,-4.7717,-4.7717,-4.7717,0.0,0.0,0.0,0.0,0.0,0.0,0.0,0.0,0.0,0.0,0.0,0.0,0.0,0.0,0.0,0.0,0.0,0.0,0.0,0.0,0.0,0.0,0.0,0.0,0.0,0.0,0.0,0.0,0.0,0.0,0.0,0.0,0.0,0.0,0.0,0.0,0.0,0.0,0.0,0.0,0.0,0.0,0.0,0.0,0.0,0.0,0.0,0.0,0.0,0.0,0.0,0.0,0.0,0.0,0.0,0.0,0.0,0.0,0.0,0.0,-5.3333,0.0,0.0,0.0,0.0,0.0,0.0,0.0,0.0,0.0,0.0,0.0,0.0,0.0,0.0,0.0,0.0,0.0,0.0,0.0,0.0,0.0,0.0,0.0,0.0,0.0,0.0,0.0,0.0,0.0,0.0,0.0,0.0,0.0,0.0,0.0,0.0,0.0,0.0,0.0,0.0,0.0,-4.7717,-4.7717,-4.7717,-4.7717,-4.7717,-4.7717,-4.7717,-4.7717,-4.7717,-4.7717,-4.7717,0.0,0.0,0.0,0.0,0.0,0.0,0.0,0.0,0.0,0.0,0.0,0.0,0.0,0.0,0.0,0.0,0.0,0.0,0.0,0.0,0.0,0.0,0.0,0.0,0.0,0.0,0.0,0.0,0.0,0.0,0.0,0.0,0.0,0.0,0.0,0.0,0.0,0.0,0.0,0.0,0.0,0.0,0.0,0.0,0.0,0.0,0.0,0.0,0.0,0.0,0.0,0.0,0.0,0.0,0.0,0.0,0.0,0.0,0.0,0.0,-5.3661,0.0,0.0,0.0,0.0,0.0,0.0,0.0,0.0,0.0,0.0,0.0,0.0,0.0,0.0,0.0,0.0,0.0,0.0,0.0,0.0,0.0,0.0,0.0,0.0,0.0,0.0,0.0,0.0,0.0,0.0,0.0,0.0,0.0,0.0,0.0,0.0,0.0,0.0,0.0,0.0,-4.8312,-4.8275,-4.8113,-4.7732,-4.7717,-4.7717,-4.7717,-4.7717,-4.7717,-4.7717,-4.7717,0.0,0.0,0.0,0.0,0.0,0.0,0.0,0.0,0.0,0.0,0.0,0.0,0.0,0.0,0.0,0.0,0.0,0.0,0.0,0.0,0.0,0.0,0.0,0.0,0.0,0.0,0.0,0.0,0.0,0.0,0.0,0.0,0.0,0.0,0.0,0.0,0.0,0.0,0.0,0.0,0.0,0.0,0.0,0.0,0.0,0.0,0.0,0.0,0.0,0.0,0.0,0.0,0.0,-5.4338,-5.3798,-5.3584,-5.384,-5.3853,-5.3727,-5.3121,-5.3366,-5.4285,-5.4904,0.0,0.0,0.0,0.0,0.0,0.0,0.0,0.0,0.0,0.0,0.0,0.0,0.0,0.0,0.0,0.0,0.0,0.0,0.0,0.0,0.0,0.0,0.0,0.0,-5.2977,-5.2593,-5.1255,0.0,0.0,0.0,0.0,0.0,0.0,0.0,0.0,0.0,0.0,0.0,-4.9202,-4.9112,-4.8858,-4.8188,-4.7986,-4.7895,-4.7895,-4.779,-4.7717,-4.7717,-4.7717,-4.7717,0.0,0.0,0.0,0.0,0.0,0.0,0.0,0.0,0.0,0.0,0.0,0.0,0.0,0.0,0.0,0.0,0.0,0.0,0.0,0.0,0.0,0.0,0.0,0.0,0.0,0.0,0.0,0.0,0.0,0.0,0.0,0.0,-5.3924,-5.3813,0.0,0.0,0.0,0.0,0.0,0.0,0.0,0.0,0.0,0.0,0.0,0.0,0.0,-5.6134,-5.6134,-5.5769,-5.553,-5.5361,-5.4886,-5.4543,-5.434,-5.4399,-5.4388,-5.4388,-5.4284,0.0,-5.4527,-5.5126,0.0,0.0,0.0,0.0,0.0,0.0,0.0,0.0,0.0,0.0,0.0,0.0,0.0,0.0,0.0,0.0,0.0,0.0,0.0,0.0,0.0,0.0,-5.2846,-5.2828,-5.2828,-5.2729,0.0,-5.1887,-5.1216,-5.0377,-5.021,0.0,0.0,0.0,0.0,0.0,0.0,0.0,-4.9967,-4.9927,-4.989,-4.9782,-4.9166,-4.8728,-4.8728,-4.8094,-4.7717,-4.7717,-4.7717,-4.7717,-4.7717,-4.7717,0.0,0.0,0.0,0.0,0.0,0.0,0.0,0.0,0.0,0.0,0.0,0.0,0.0,0.0,0.0,0.0,0.0,0.0,0.0,0.0,0.0,0.0,0.0,0.0,0.0,0.0,0.0,0.0,0.0,-5.3813,-5.3813,-5.3813,-5.3813,-5.3813,0.0,0.0,0.0,0.0,0.0,0.0,0.0,0.0,0.0,-5.6164,-5.6628,-5.6686,-5.6287,-5.6248,-5.599,-5.5532,-5.5042,-5.4686,-5.4512,-5.4512,-5.4512,-5.4512,-5.4512,-5.4512,-5.4543,-5.5134,-5.5194,-5.4987,0.0,0.0,0.0,0.0,-5.6634,-5.6686,-5.7015,-5.7116,-5.7141,-5.7407,0.0,0.0,0.0,0.0,0.0,0.0,0.0,0.0,0.0,0.0,-5.2783,-5.2698,-5.2698,-5.2654,-5.2559,-5.2327,-5.1982,0.0,-5.1479,-5.1479,-5.1452,0.0,0.0,0.0,0.0,-5.1285,-5.0814,-5.0782,-5.0619,-5.0166,-4.9764,-4.9383,-4.8927,-4.8565,-4.8167,-4.7735,-4.7717,-4.7717,-4.7717,-4.7717,-4.7717,0.0,0.0,0.0,0.0,0.0,0.0,0.0,0.0,0.0,0.0,0.0,0.0,0.0,0.0,0.0,0.0,0.0,0.0,0.0,0.0,0.0,0.0,0.0,0.0,0.0,0.0,0.0,0.0,-5.3813,-5.3813,-5.3813,-5.398,-5.411,0.0,0.0,0.0,0.0,0.0,0.0,-5.654,-5.6518,-5.6551,-5.6714,-5.714,-5.7132,-5.6658,-5.6503,-5.6148,-5.5601,-5.5005,-5.4637,-5.4512,-5.4512,-5.4512,-5.4512,-5.4512,-5.4512,-5.4526,-5.497,-5.4896,-5.4557,-5.5164,-5.5385,-5.5443,-5.5915,-5.6083,-5.6166,-5.6713,-5.6912,-5.692,-5.7234,-5.7637,-5.7997,-5.7997,0.0,0.0,0.0,0.0,-5.4271,-5.3467,-5.2992,-5.2712,-5.2604,-5.2563,-5.2559,-5.2503,-5.2498,-5.2498,0.0,-5.2498,-5.2498,-5.2498,0.0,0.0,0.0,0.0,-5.2281,-5.1665,-5.1611,-5.1375,-5.0782,-5.0546,-5.0071,-4.9293,-4.9018,-4.8547,-4.7753,-4.7717,-4.7717,-4.7717,-4.7717,-4.7717,-4.7717,0.0,0.0,0.0,0.0,0.0,0.0,0.0,0.0,0.0,0.0,0.0,0.0,0.0,0.0,0.0,0.0,0.0,0.0,0.0,0.0,0.0,0.0,0.0,0.0,0.0,0.0,0.0,0.0,0.0,-5.3813,-5.4481,0.0,0.0,0.0,0.0,-5.6227,-5.6164,-5.6436,-5.7214,-5.7127,-5.7479,-5.8341,-5.7808,-5.7527,-5.7622,-5.6313,-5.5658,-5.5601,-5.4865,-5.4512,-5.4512,-5.4512,-5.4512,-5.4512,-5.4512,-5.4512,-5.4512,-5.4543,-5.4543,-5.4557,-5.5164,-5.5385,-5.5385,-5.5443,-5.5443,-5.5531,-5.6138,-5.6357,-5.6519,-5.7589,-5.7973,-5.7997,-5.7997,-5.796,0.0,0.0,-5.5962,-5.4957,-5.4159,-5.3231,-5.2521,-5.2521,-5.2521,-5.2498,-5.2498,-5.2498,-5.2498,0.0,-5.2498,-5.2498,-5.2498,0.0,-5.2498,-5.2498,-5.2498,-5.248,-5.2444,-5.2426,-5.2426,-5.2371,-5.1683,-5.0904,-5.0112,-4.9347,-4.8547,-4.7753,-4.7717,-4.7717,-4.7717,-4.7717,-4.7717,-4.7717,-4.7717,0.0,0.0,0.0,0.0,0.0,0.0,0.0,0.0,0.0,0.0,0.0,0.0,0.0,0.0,0.0,0.0,0.0,0.0,0.0,0.0,0.0,0.0,0.0,0.0,0.0,0.0,0.0,0.0,-5.541,-5.567,0.0,-5.5837,-5.652,-5.6922,-5.6922,-5.7339,-5.7719,-5.7996,-5.7953,-5.7869,-5.7724,-5.7486,-5.7004,-5.624,-5.5727,-5.5284,-5.4896,-5.462,-5.4512,-5.4512,-5.4512,-5.4512,-5.4512,-5.4512,-5.4512,-5.4512,-5.4512,-5.4512,-5.4543,-5.4728,-5.4803,-5.4865,-5.5254,-5.5385,-5.5473,-5.6083,-5.6303,-5.6438,-5.7184,-5.7684,-5.7973,-5.7904,-5.7862,-5.7692,-5.6794,-5.6197,-5.5533,-5.4204,-5.358,-5.3132,-5.2625,-5.2498,-5.2498,-5.2498,-5.2498,-5.2498,-5.2498,-5.2498,-5.2498,-5.2498,-5.2498,-5.2498,-5.2498,-5.2498,-5.2498,-5.2498,-5.2498,-5.2498,-5.2498,-5.2226,-5.1737,-5.0923,-5.0126,-4.9329,-4.8511,-4.7986,-4.7717,-4.7717,-4.7717,-4.7717,-4.7717,-4.7717,-4.7717,0.0,0.0,0.0,0.0,0.0,0.0,0.0,0.0,0.0,0.0,0.0,0.0,0.0,0.0,0.0,0.0,0.0,0.0,0.0,0.0,0.0,0.0,0.0,0.0,0.0,0.0,-5.6302,-5.6302,-5.6543,-5.669,-5.6631,-5.7293,-5.7693,-5.7669,-5.8079,-5.8327,-5.8327,-5.8305,-5.7978,-5.7315,-5.7073,-5.6483,-5.5473,-5.5224,-5.4896,-5.4512,-5.477,-5.4874,-5.4891,-5.515,-5.5288,-5.5288,-5.5288,-5.5288,-5.5288,-5.5288,-5.5132,-5.4856,-5.4615,-5.4512,-5.4557,-5.4957,-5.5091,-5.5194,-5.6027,-5.6546,-5.6912,-5.7284,-5.766,-5.7973,-5.7886,-5.7881,-5.7747,-5.7105,-5.6616,-5.6006,-5.495,-5.4174,-5.3566,-5.3023,-5.2697,-5.2498,-5.2498,-5.2498,-5.2498,-5.2498,-5.2498,-5.2498,-5.2498,-5.2498,-5.2498,-5.2498,-5.2498,-5.2498,-5.2498,-5.2498,-5.2498,-5.2498,-5.2498,-5.2172,-5.1357,-5.0796,-5.0144,-4.9365,-4.855,-4.8094,-4.8094,-4.7823,-4.7717,-4.7717,-4.7511,-4.7407,-4.7363,0.0,0.0,0.0,0.0,0.0,0.0,0.0,0.0,0.0,0.0,0.0,0.0,0.0,0.0,0.0,0.0,0.0,0.0,0.0,0.0,0.0,0.0,0.0,-5.643,-5.6357,-5.6376,-5.6376,-5.7063,-5.7505,-5.7362,-5.8048,-5.8465,-5.8393,-5.8264,-5.8197,-5.8197,-5.8065,-5.7774,-5.7315,-5.6634,-5.6083,-5.5601,-5.4882,-5.4546,-5.4546,-5.5288,-5.565,-5.5667,-5.6443,-5.6805,-5.6805,-5.6805,-5.6805,-5.6805,-5.6805,-5.634,-5.5581,-5.4839,-5.4529,-5.4512,-5.4512,-5.4512,-5.4714,-5.5858,-5.7007,-5.795,-5.795,-5.7973,-5.7973,-5.7997,-5.7997,-5.7997,-5.7973,-5.7225,-5.6416,-5.6398,-5.508,-5.3766,-5.3748,-5.3114,-5.2534,-5.2534,-5.2516,-5.2498,-5.2498,-5.2498,-5.2498,-5.2498,-5.2498,-5.2498,-5.2498,-5.2498,0.0,-5.2498,-5.2498,-5.2498,-5.2498,-5.2498,-5.2172,-5.1393,-5.1303,-5.0959,-5.0166,-4.9347,-4.8891,-4.8855,-4.8094,-4.7717,-4.7717,-4.7173,-4.684,-4.6683,0.0,0.0,0.0,0.0,0.0,0.0,0.0,0.0,0.0,0.0,0.0,0.0,0.0,0.0,0.0,0.0,0.0,0.0,0.0,0.0,0.0,0.0,-5.8044,-5.7286,-5.7575,-5.7925,-5.8027,-5.8252,-5.8361,-5.8322,-5.8397,-5.8437,-5.8393,-5.8197,-5.8042,-5.8042,-5.802,-5.775,-5.7166,-5.6599,-5.6027,-5.5473,-5.5341,-5.5322,-5.5322,-5.6098,-5.6477,-5.6477,-5.6702,-5.6805,-5.6805,-5.6805,-5.6805,-5.6805,-5.6805,-5.6667,-5.6391,-5.5615,-5.4977,-5.4512,-5.4512,-5.479,-5.5194,-5.5531,-5.6138,-5.6757,-5.6757,-5.7015,-5.7407,-5.775,-5.7839,-5.7815,-5.7625,-5.7364,-5.6982,-5.6303,-5.5759,-5.5233,-5.4707,-5.3965,-5.3367,-5.3367,-5.2915,-5.2498,-5.2498,-5.2498,-5.2498,-5.2498,-5.2498,-5.2498,-5.2498,-5.2498,0.0,-5.2498,-5.2498,-5.2498,-5.2498,-5.2498,-5.2408,-5.219,-5.1629,-5.0959,-5.0166,-4.9347,-4.8637,-4.804,-4.7826,-4.7717,-4.7717,-4.7173,-4.6637,0.0,0.0,0.0,0.0,0.0,0.0,0.0,0.0,0.0,0.0,0.0,0.0,0.0,0.0,0.0,0.0,0.0,0.0,0.0,0.0,0.0,0.0,-5.8526,-5.836,-5.7939,-5.8233,-5.8532,-5.8614,-5.8614,-5.8614,-5.8569,-5.848,-5.8349,-5.8242,-5.8106,-5.7997,-5.7997,-5.7997,-5.7613,-5.6791,-5.6743,-5.6354,-5.5501,-5.5894,-5.6115,-5.6115,-5.6891,-5.7253,-5.7271,-5.7581,-5.7719,-5.7719,-5.7719,-5.7719,-5.7719,-5.7719,-5.7547,0.0,0.0,0.0,0.0,0.0,-5.5334,-5.5823,-5.5507,-5.5801,-5.6303,-5.6303,-5.6519,-5.6861,-5.7351,-5.7468,-5.7443,-5.7534,-5.7504,-5.7254,-5.6726,-5.6296,-5.5884,-5.545,-5.4762,-5.42,-5.42,-5.3566,-5.3005,-5.3005,-5.2733,0.0,-5.2498,-5.2498,-5.2498,-5.2498,-5.2498,-5.2498,-5.2498,-5.2498,-5.2498,-5.2498,-5.2498,-5.2498,-5.2498,-5.2063,0.0,0.0,0.0,-4.8894,-4.7753,-4.7717,0.0,0.0,0.0,-4.622,-4.5545,0.0,0.0,0.0,-4.3648,-4.3367,0.0,0.0,0.0,0.0,0.0,0.0,0.0,0.0,0.0,0.0,0.0,0.0,0.0,0.0,0.0,0.0,-5.8305,-5.8264,-5.8371,-5.8422,-5.8468,-5.8489,-5.8489,-5.8465,-5.8415,-5.8393,-5.8264,-5.8042,-5.7997,-5.7997,-5.7997,0.0,0.0,0.0,0.0,-5.6888,-5.5865,-5.6562,-5.6926,-5.6926,-5.7685,-5.803,-5.8064,-5.8719,-5.9012,-5.9012,-5.9012,-5.9012,-5.9012,-5.9012,-5.8616,-5.7943,-5.7116,-5.6805,-5.6719,-5.6012,-5.6084,-5.644,-5.5669,0.0,0.0,-5.6184,-5.6193,-5.6303,-5.6843,-5.6938,-5.6938,-5.7516,-5.751,-5.7338,-5.7381,-5.6762,-5.6138,-5.6138,-5.5577,-5.5033,-5.5033,-5.4399,-5.3838,-5.3838,-5.3186,-5.2643,-5.2643,-5.2552,-5.2498,-5.2498,-5.2498,-5.2498,-5.2498,-5.2498,-5.2498,-5.2498,0.0,0.0,-5.2498,-5.2498,-5.2118,-5.1212,-5.0307,-4.9184,-4.7772,-4.7717,-4.7428,-4.6886,-4.6358,-4.5767,-4.5081,-4.4406,-4.4027,-4.3898,-4.3687,-4.3598,0.0,0.0,0.0,0.0,0.0,0.0,0.0,0.0,0.0,0.0,0.0,0.0,0.0,0.0,0.0,-5.8393,-5.8371,-5.8327,-5.8242,-5.8242,-5.8308,-5.8415,-5.8437,-5.8415,-5.8393,-5.8286,-5.8219,-5.8174,-5.8065,-5.7997,-5.7997,-5.7997,-5.7971,-5.7913,-5.7575,-5.7375,-5.7275,-5.7552,-5.7685,-5.7702,0.0,0.0,-5.8806,-5.8944,-5.9012,-5.9012,-5.9012,-5.9012,-5.9012,-5.9012,-5.8926,-5.8668,-5.7322,-5.6805,-5.6788,-5.6633,-5.6629,-5.6638,-5.5842,-5.5629,-5.5726,-5.5625,-5.5589,-5.5687,-5.6276,-5.6438,0.0,-5.6827,-5.6879,-5.6897,-5.7163,-5.7105,-5.6971,-5.6971,-5.6355,-5.5776,-5.5776,-5.5196,-5.4671,-5.4671,-5.4019,-5.3476,-5.3476,-5.2933,-5.2498,-5.2498,-5.2498,-5.2498,-5.2498,-5.2498,-5.2498,-5.2498,-5.2498,-5.2498,-5.2498,-5.2498,-5.1864,-5.042,-4.8967,-4.8025,-4.7717,-4.7717,-4.7385,-4.6753,-4.6213,-4.5614,-4.4937,-4.4281,-4.3927,-4.3898,-4.3687,-4.3598,0.0,0.0,0.0,0.0,0.0,0.0,0.0,0.0,0.0,0.0,0.0,-5.8197,0.0,0.0,-5.8197,-5.8197,-5.8197,-5.8174,-5.8106,-5.8088,-5.8152,-5.8264,-5.8305,-5.8305,-5.8305,-5.8242,-5.8174,-5.8088,-5.8042,-5.7997,-5.7997,-5.8382,-5.8367,-5.7864,-5.8315,-5.8314,-5.7828,-5.8232,-5.8461,-5.8461,-5.8823,-5.9012,-5.9012,-5.9012,-5.9012,-5.9012,-5.9012,-5.9012,-5.9012,-5.9012,-5.9012,-5.8944,-5.8202,-5.7909,-5.7874,-5.7495,-5.7357,-5.7236,-5.6477,-5.5943,-5.5578,-5.5511,-5.5253,-5.5061,-5.5676,-5.5801,-5.5848,-5.6266,-5.6528,-5.6679,-5.6873,-5.7054,-5.7188,-5.7188,-5.688,-5.6591,-5.6591,-5.5993,-5.545,-5.545,-5.4834,-5.4182,-5.3766,-5.3367,-5.2951,-5.2552,-5.2498,-5.2498,-5.2498,-5.2498,-5.2498,-5.2498,-5.2498,-5.2498,-5.2498,-5.1756,-5.0959,-5.0166,-4.8586,-4.7717,-4.7717,-4.7428,-4.7017,-4.6406,-4.5817,-4.5197,-4.4597,-4.4126,-4.3898,-4.3898,-4.3687,-4.3598,0.0,0.0,0.0,0.0,0.0,0.0,0.0,0.0,-5.7997,-5.7997,-5.7997,-5.7997,-5.7997,-5.7997,-5.7997,-5.7997,-5.7997,-5.7997,-5.7997,-5.7997,-5.8042,-5.8152,-5.8174,-5.8174,-5.8174,-5.8174,-5.8129,-5.7997,-5.7997,-5.807,-5.8217,-5.8859,-5.8771,-5.7899,-5.9037,-5.9188,-5.8116,-5.8719,-5.9012,-5.9012,-5.9012,-5.9012,-5.9012,-5.9168,-5.9237,-5.9237,-5.9237,-5.915,-5.9012,-5.9012,-5.9012,-5.9012,-5.9012,-5.9012,-5.8944,-5.834,-5.8116,-5.8012,-5.7271,-5.6598,-5.6012,-5.5719,-5.5219,-5.4779,-5.5126,-5.5152,-5.5169,-5.574,-5.6052,-5.632,-5.6501,-5.6776,-5.7061,-5.7163,-5.7188,-5.7188,-5.7188,-5.6681,-5.6228,-5.6228,-5.5631,-5.487,-5.4074,-5.3802,-5.344,-5.2625,-5.2498,-5.2498,-5.2498,-5.2498,-5.2498,-5.2498,-5.2498,-5.2498,-5.2498,-5.1013,-5.0112,-5.0112,-4.8586,-4.7717,-4.7717,-4.7173,-4.6637,-4.6074,-4.5407,-4.4773,-4.4224,-4.3969,-4.3839,-4.3839,-4.3674,-4.3598,-6.0299,-5.9858,0.0,-5.877,-5.8369,-5.807,0.0,0.0,-5.7997,-5.7997,-5.7997,-5.7997,-5.7997,-5.7997,-5.7997,-5.7997,-5.7997,-5.7997,-5.7997,-5.7997,-5.7997,-5.802,-5.802,-5.802,-5.802,-5.802,-5.802,-5.7997,-5.7997,-5.8309,-5.9019,-5.9148,-5.9281,-5.9452,-5.959,-5.9435,-5.8875,-5.8978,-5.9012,-5.9012,-5.9012,-5.9012,-5.903,-5.9737,-6.0064,-6.0064,-6.0064,-5.9668,-5.9012,-5.9012,-5.9012,-5.9012,-5.9012,-5.9012,-5.8995,-5.8926,-5.8892,-5.8788,-5.803,-5.7719,-5.7426,-5.6064,-5.5531,-5.5374,-5.4796,-5.4589,-5.4652,-5.4953,-5.5056,-5.5296,-5.6118,-5.6366,-5.6546,-5.7087,-5.7188,-5.7188,-5.7188,-5.7134,-5.7062,-5.7062,-5.641,-5.5631,-5.4888,-5.4182,-5.344,-5.2625,-5.2498,-5.2498,-5.2498,-5.2498,-5.2498,-5.2498,-5.2498,-5.2498,-5.2498,-5.1013,-5.0112,-5.0112,-4.8586,-4.7717,-4.7717,-4.7173,-4.659,-4.5943,-4.525,-4.4597,-4.3939,-4.3734,-4.3628,-4.3628,-4.3598,-4.3598,-5.9725,0.0,0.0,0.0,-5.8119,-5.7997,-5.7997,-5.7997,-5.7997,-5.7997,-5.7997,-5.7997,-5.7997,-5.7997,-5.7997,0.0,-5.7997,-5.7997,-5.7997,-5.7997,-5.7997,-5.7997,-5.7997,-5.7997,-5.7997,-5.7997,-5.7997,-5.7997,-5.7997,-5.8345,-5.9148,-5.9625,-6.0015,-6.0266,-6.0375,-6.0144,-5.9582,-5.9199,-5.9012,-5.9012,-5.9012,-5.9012,-5.903,-5.9357,-5.9513,-5.9513,-5.9513,-5.9323,-5.9012,-5.9012,-5.9012,-5.9012,-5.9012,-5.9012,-5.9012,-5.9012,-5.9012,-5.8978,-5.8668,-5.8271,-5.7788,-5.7167,-5.634,-5.5531,-5.5236,-5.4743,-5.4367,-5.446,-5.4631,-5.4861,-5.5284,-5.556,-5.5932,-5.6528,-5.642,-5.6348,-5.7061,-5.6915,-5.6785,-5.7138,-5.6935,-5.6446,-5.5667,-5.4907,-5.4128,-5.3313,-5.2788,-5.2498,-5.2498,-5.2498,-5.2498,-5.2498,-5.2498,-5.2498,-5.2498,-5.1013,-5.0112,-5.0112,-4.8586,-4.7717,-4.7717,-4.6886,-4.631,-4.6024,-4.5054,-4.4378,-4.4027,-4.3852,-4.3704,-4.3598,-4.3598,-4.3598,-5.9325,0.0,0.0,-5.8164,-5.7997,-5.7997,-5.7997,-5.7997,-5.7997,-5.7997,-5.7997,-5.7997,-5.7997,-5.7997,0.0,-5.7997,-5.7997,-5.7997,-5.7997,-5.7997,-5.807,-5.8309,-5.8327,-5.8419,-5.8639,-5.8253,-5.7997,-5.7997,-5.8217,-5.8694,-5.9478,-6.0291,-6.0834,-6.1027,-6.0949,-6.0615,-6.0019,-5.9334,-5.9012,-5.9012,-5.9012,-5.9012,-5.9012,-5.9237,-5.934,-5.934,-5.934,-5.9219,-5.9012,-5.9012,-5.9012,-5.9012,-5.9012,-5.9012,-5.9012,-5.9012,-5.9012,-5.9012,-5.9012,-5.8668,-5.8185,-5.7978,-5.7012,-5.5891,-5.5684,-5.4952,-5.419,-5.4175,-5.4286,-5.446,-5.4568,-5.4892,-5.5278,-5.5904,-5.5705,-5.5647,-5.651,-5.6501,-5.642,-5.6863,-5.6941,-5.6688,-5.5895,-5.5119,-5.4361,-5.355,-5.2893,-5.2498,-5.2498,-5.2498,-5.2498,-5.2498,-5.2498,-5.2498,-5.2498,-5.1212,-5.0347,-5.0112,-4.8804,-4.7913,-4.7717,-4.6683,-4.6098,-4.6098,-4.4892,-4.4224,-4.4097,-4.3985,-4.3793,-4.3598,-4.3598,-4.3598,0.0,0.0,-5.8521,-5.8115,-5.7997,-5.7997,-5.7997,-5.7997,-5.7997,-5.7997,-5.7997,-5.7997,-5.7997,-5.7997,-5.7997,-5.7997,-5.7997,-5.7997,-5.7997,-5.7997,-5.829,-5.9056,-5.9148,-5.9459,0.0,-5.8914,-5.7997,-5.7997,-5.8731,-5.9496,-6.0327,-6.1135,-6.1656,-6.187,-6.1236,-6.0615,-6.0019,-5.9334,-5.9012,-5.9012,-5.9012,-5.9012,-5.9047,-5.9806,-6.0151,-6.0151,-6.0151,-5.972,-5.9012,-5.9012,-5.9012,-5.9012,-5.9012,-5.9012,-5.9012,-5.9012,-5.9012,-5.9012,-5.9012,-5.8995,-5.8857,-5.8133,-5.7391,-5.6615,-5.5857,-5.4952,-5.4158,-5.4045,-5.3882,-5.3832,-5.4281,-5.4422,-5.461,-5.5266,-5.5414,-5.5414,-5.5443,-5.5904,-5.6311,-5.6311,-5.6339,-5.6062,-5.5259,-5.4456,-5.3645,-5.2842,-5.26,-5.2498,-5.2498,-5.2498,-5.2498,-5.2498,-5.2498,-5.2498,-5.2498,-5.1737,-5.0923,-5.0166,-4.9329,-4.8511,-4.7735,-4.6683,-4.6098,-4.6098,-4.4892,-4.4224,-4.4097,-4.3985,-4.3793,-4.3598,-4.3598,-4.3598,0.0,0.0,-5.85,-5.8115,-5.7997,-5.7997,-5.7997,-5.7997,-5.7997,-5.7997,-5.8419,-5.8804,-5.8804,-5.8804,-5.8988,-5.952,-5.9153,-5.8988,-5.952,-5.9593,-5.9703,-5.996,-6.0015,0.0,0.0,0.0,0.0,-5.9593,-5.985,-6.0346,-6.1153,-6.1447,-6.1887,-6.2471,-6.1464,-6.0808,-6.0585,-5.9547,-5.9012,-5.9012,-5.9012,-5.9012,-5.9012,-5.9288,-5.9409,-5.9409,-5.9409,-5.9254,-5.9012,-5.9012,-5.9012,-5.9012,-5.9012,-5.9012,-5.9012,-5.9012,-5.9012,-5.9012,-5.9012,-5.9012,-5.8978,-5.8719,-5.7805,-5.672,-5.6329,-5.5202,-5.4045,-5.3849,-5.3701,-5.3601,-5.375,-5.3816,-5.3946,-5.4596,-5.4425,-5.4365,-5.5224,-5.5219,-5.5172,-5.5618,-5.5705,-5.5616,-5.5369,-5.4516,-5.3588,-5.269,-5.2526,-5.2498,-5.2498,-5.2498,-5.2498,-5.2498,-5.2498,-5.2498,-5.2498,-5.1756,-5.0959,-5.0166,-4.9005,-4.8016,-4.7187,-4.6123,-4.5588,-4.5588,-4.4862,-4.4355,-4.4097,-4.4039,-4.3864,-4.3598,-4.3598,-4.3598,0.0,-5.85,-5.8326,-5.807,-5.7997,-5.7997,-5.7997,-5.7997,-5.7997,-5.7997,-5.8657,-5.9184,-5.9184,-5.9423,-5.9813,-6.0327,-5.9979,-5.9813,-6.0346,-6.0401,-6.0511,-6.0786,-6.0823,0.0,0.0,0.0,0.0,-6.0456,-6.0676,-6.1043,-6.1557,-6.1869,-6.2273,-6.2762,-6.1548,-6.0897,-6.0897,-5.9628,-5.9012,-5.9012,-5.9012,-5.9012,-5.9012,-5.9012,-5.9012,-5.9012,-5.9012,-5.9012,-5.9012,-5.9012,-5.9012,-5.9012,-5.9012,-5.9012,-5.9012,-5.9012,-5.9012,-5.9012,-5.9012,-5.9012,-5.8978,-5.8702,-5.7788,-5.6703,-5.6312,-5.5169,-5.398,-5.3849,-5.3668,-5.3501,-5.3501,-5.3501,-5.3584,-5.3979,-5.3783,-5.3701,-5.4537,-5.4565,-5.4516,-5.4948,-5.5039,-5.5039,-5.5039,-5.4039,-5.2935,-5.2001,-5.1842,-5.2006,-5.2434,-5.2498,-5.2498,-5.2498,-5.2498,-5.2498,-5.2498,-5.2027,-5.118,-4.9902,-4.9011,-4.7944,-4.6672,-4.5775,-4.5303,-4.5303,-4.4824,-4.4429,-4.4097,-4.4097,-4.3923,-4.3598,-4.3598,-4.3598,-5.8566,-5.8301,-5.7997,-5.7997,-5.7997,-5.7997,-5.7997,-5.7997,-5.7997,-5.8052,-5.8712,-5.9258,0.0,0.0,-6.0474,-6.0529,-6.0493,-6.0493,-6.0529,-6.0529,-6.0805,0.0,0.0,0.0,0.0,0.0,0.0,-6.0639,0.0,-6.1649,-6.1649,-6.2401,-6.278,-6.278,-6.1548,-6.0897,-6.0897,-5.9628,-5.9012,-5.9012,-5.9012,-5.9012,-5.9012,-5.9012,-5.9012,-5.9012,-5.9012,-5.9012,-5.9012,-5.9012,-5.9012,-5.9012,-5.9012,-5.9012,-5.9012,-5.9012,-5.9012,-5.9012,-5.9012,-5.9012,-5.8892,-5.815,-5.7409,-5.665,-5.5824,-5.484,-5.3997,-5.398,-5.3751,-5.3501,-5.3501,-5.3501,-5.3501,-5.3501,-5.3501,-5.3501,-5.3501,-5.3946,-5.4359,-5.4359,-5.4325,-5.429,-5.4287,-5.3032,-5.1741,-5.0844,-5.0697,-5.1139,-5.2298,-5.2457,-5.2457,-5.2457,-5.2475,-5.2498,-5.2475,-5.2475,-5.1589,-4.9448,-4.927,-4.8318,-4.6144,-4.5563,-4.5267,-4.525,-4.4824,-4.4429,-4.4097,-4.4097,-4.3923,-4.3598,-4.3598,-4.3598,-5.8235,-5.807,-5.7997,-5.7997,-5.7997,-5.7997,-5.7997,-5.7997,-5.8162,-5.8786,-5.9538,-6.0291,0.0,0.0,0.0,-6.2108,-6.1686,0.0,-6.2108,-6.2199,0.0,0.0,0.0,-6.2585,-6.2762,-6.278,0.0,0.0,-6.2383,-6.2493,-6.2493,-6.2695,-6.278,-6.278,-6.1548,-6.0897,-6.0897,-5.9628,-5.9012,-5.9012,-5.9012,-5.9012,-5.9012,-5.9012,-5.9012,-5.9012,-5.9012,-5.9012,-5.9012,-5.9012,-5.9012,-5.9012,-5.9012,-5.9012,-5.9012,-5.9012,-5.9012,-5.9012,-5.9012,-5.9012,-5.8892,-5.815,-5.7409,-5.6617,-5.5562,-5.4627,-5.3965,-5.3685,-5.3568,-5.3501,-5.3501,-5.3501,-5.3501,-5.3501,-5.3501,-5.3501,-5.3501,-5.3618,-5.3734,-5.3734,-5.3241,-5.2791,-5.2681,-5.1912,-5.1135,-5.0757,-5.0697,-5.0964,-5.1719,-5.1835,-5.1835,-5.1835,-5.2228,-5.2322,-5.186,-5.2251,-5.1589,-4.9448,-4.8912,-4.7756,-4.5589,-4.5052,-4.4731,-4.4558,-4.4581,-4.4372,-4.3956,-4.4056,-4.3923,-4.3598,-4.3598,-4.3598,-5.8047,-5.7997,-5.7997,-5.7997,-5.7997,-5.7997,-5.7997,-5.8272,-5.8657,-5.9093,-6.0126,0.0,0.0,0.0,0.0,0.0,0.0,0.0,-6.275,-6.278,-6.278,0.0,-6.278,0.0,-6.278,-6.278,-6.278,0.0,-6.278,-6.278,-6.278,-6.278,-6.278,-6.278,-6.1833,-6.1062,-6.0511,-5.9482,-5.9012,-5.9012,-5.9012,-5.9012,-5.9012,-5.9012,-5.9012,-5.9012,0.0,-5.9012,-5.9012,-5.9012,-5.9012,-5.9012,-5.9012,-5.9012,-5.9012,-5.9012,-5.9012,-5.9012,-5.9012,-5.8806,-5.8409,-5.7667,-5.6909,-5.6067,-5.5032,-5.437,-5.3948,-5.3668,-5.3568,-5.3501,-5.3501,-5.3501,-5.3501,-5.3501,-5.3501,-5.3501,-5.3501,-5.3501,-5.3501,-5.3501,-5.2858,-5.2161,-5.1779,-5.109,-5.0472,-5.0017,-4.9953,-5.0265,-5.1105,-5.1209,-5.1209,-5.1209,-5.1508,-5.1558,-5.1235,-5.1508,-5.0806,-4.8682,-4.8286,-4.7158,-4.5076,-4.4748,-4.4514,-4.4293,-4.4412,-4.4286,-4.3898,-4.3985,-4.3881,-4.3598,-4.3598,-4.3598,-5.7997,-5.7997,-5.7997,-5.7997,-5.7997,-5.7997,-5.7997,-5.8621,-5.9221,-5.9331,0.0,0.0,-6.1741,0.0,-6.278,-6.278,0.0,-6.278,-6.278,-6.278,-6.278,-6.278,-6.278,-6.278,-6.278,-6.278,-6.278,-6.278,-6.278,-6.278,-6.278,-6.278,-6.2755,-6.2661,-6.2184,-6.1272,-6.0019,-5.9417,-5.9081,-5.9012,-5.9012,-5.9012,-5.9012,-5.9012,-5.9012,-5.9012,-5.9012,0.0,-5.9012,-5.9012,-5.9012,-5.9012,-5.9012,-5.9012,-5.9012,-5.9012,-5.9012,-5.8995,-5.8909,-5.8374,-5.765,-5.7012,-5.6271,-5.5413,-5.4495,-5.411,-5.3948,-5.375,-5.3601,-5.3501,-5.3501,-5.3501,-5.3501,-5.3501,-5.3501,-5.3501,-5.3501,-5.3501,-5.3467,-5.3365,-5.2706,-5.1928,-5.12,-5.0439,-4.9729,-4.9103,-4.9063,-4.9466,-5.0359,-5.0535,-5.0616,-5.068,-5.0697,-5.0653,-5.0589,-5.067,-4.9816,-4.7731,-4.7617,-4.6704,-4.4694,-4.4615,-4.4514,-4.4293,-4.431,-4.4184,-4.3898,-4.3898,-4.3793,-4.3598,-4.3598,-4.3598,-5.7997,-5.7997,-5.7997,-5.7997,-5.7997,-5.7997,-5.7997,-5.8621,0.0,0.0,0.0,-6.1796,-6.2475,-6.2713,0.0,-6.278,0.0,0.0,0.0,0.0,-6.278,0.0,0.0,0.0,0.0,0.0,0.0,0.0,0.0,-6.278,-6.278,-6.278,-6.2585,-6.2059,-6.1951,-6.1272,-6.0019,-5.9891,-5.9549,-5.9012,-5.9012,-5.9012,-5.9012,-5.9012,-5.9012,-5.9012,-5.9012,0.0,-5.9012,-5.9012,-5.9012,-5.9012,-5.9012,-5.9012,-5.9012,-5.9012,-5.9012,-5.8926,-5.8305,-5.7616,-5.6978,-5.684,-5.6271,-5.5413,-5.4495,-5.411,-5.3948,-5.375,-5.3601,-5.3501,-5.3501,-5.3501,-5.3501,-5.3501,-5.3501,-5.3501,-5.3501,-5.3501,-5.3315,-5.2638,-5.1911,-5.1166,-5.0422,-4.9678,-4.9154,-4.9018,-4.9406,-4.9644,-4.9316,-4.9727,-5.0226,-5.0643,-5.0697,-5.0507,-5.0085,-5.0442,-4.9816,-4.7731,-4.7617,-4.6704,-4.4694,-4.4615,-4.4514,-4.4293,-4.431,-4.4184,-4.3898,-4.3898,-4.3793,-4.3598,-4.3598,-4.3598,-5.7997,-5.7997,-5.7997,-5.7997,-5.7997,-5.7997,-5.7997,0.0,0.0,0.0,0.0,-6.1851,-6.2658,0.0,0.0,0.0,0.0,0.0,0.0,0.0,0.0,0.0,0.0,0.0,0.0,0.0,0.0,0.0,0.0,0.0,-6.278,-6.278,-6.2679,-6.2386,-6.2059,-6.1602,-6.098,-6.0331,-5.9826,-5.9516,-5.9165,-5.9012,-5.9012,-5.9012,-5.9012,-5.9012,-5.9012,0.0,-5.9012,-5.9012,-5.9012,-5.9012,-5.9012,-5.9012,-5.9012,-5.9012,-5.8771,-5.8392,-5.803,-5.715,-5.6184,-5.6184,-5.5667,-5.4913,-5.4278,-5.4045,-5.3948,-5.3668,-5.3551,-5.3501,-5.3501,-5.3501,-5.3501,-5.3501,-5.3501,-5.3501,-5.3501,-5.3501,-5.3264,-5.2469,-5.1708,-5.098,-5.0219,-4.9492,-4.9001,-4.9001,-4.926,-4.9453,-4.9483,-4.9453,-4.9509,-4.9797,-4.9826,-4.9727,-4.9436,-4.9669,-4.9074,-4.7295,-4.7182,-4.6419,-4.4666,-4.4615,-4.4514,-4.4293,-4.4224,-4.4097,-4.3898,-4.3793,-4.3763,-4.3763,-4.3658,-4.3674,-5.7997,-5.7997,-5.7997,-5.7997,-5.7997,-5.7997,-5.7997,-5.8621,0.0,0.0,0.0,-6.1796,-6.2438,0.0,0.0,0.0,0.0,0.0,0.0,0.0,0.0,0.0,0.0,0.0,0.0,0.0,0.0,0.0,0.0,0.0,-6.278,-6.278,-6.278,-6.278,-6.2334,-6.2032,-6.1897,-6.0891,-6.0331,-6.0174,-5.9532,-5.9199,-5.9199,-5.9081,-5.9012,-5.9012,-5.9012,0.0,0.0,-5.9012,-5.9012,-5.9012,-5.9012,-5.9012,-5.8995,-5.8823,-5.8409,-5.7857,-5.7529,-5.6615,-5.5548,-5.5426,-5.4945,-5.4385,-5.411,-5.398,-5.3882,-5.3618,-5.3534,-5.3501,-5.3501,-5.3501,-5.3501,-5.3501,-5.3501,-5.3501,-5.3501,-5.3365,-5.301,-5.2232,-5.1488,-5.0744,-4.9982,-4.9373,-4.9001,-4.9001,-4.9107,-4.9303,-4.9656,-4.9424,-4.9138,-4.9001,-4.9001,-4.9001,-4.9001,-4.9001,-4.8376,-4.6887,-4.6786,-4.6126,-4.4666,-4.4615,-4.4542,-4.4367,-4.4184,-4.4056,-4.3969,-4.3763,-4.3763,-4.3956,-4.3763,-4.3763,-5.7997,-5.7997,-5.7997,-5.7997,-5.7997,-5.7997,-5.7997,0.0,0.0,0.0,-6.0529,-6.1612,-6.1686,-6.231,0.0,0.0,0.0,0.0,0.0,0.0,0.0,0.0,0.0,0.0,0.0,0.0,0.0,0.0,0.0,0.0,-6.278,-6.278,-6.278,-6.278,-6.2755,-6.2438,-6.1897,-6.1769,-6.1415,-6.0808,-6.0205,-5.9923,-5.9891,-5.9267,-5.9012,-5.9012,-5.9012,0.0,0.0,-5.9012,-5.9012,-5.9012,-5.9012,-5.9012,-5.8926,-5.8254,-5.7961,-5.7702,-5.6305,-5.5736,-5.5512,-5.4822,-5.4419,-5.4222,-5.419,-5.3963,-5.3717,-5.3684,-5.3568,-5.3501,-5.3501,-5.3501,-5.3501,-5.3501,-5.3501,-5.3501,-5.3501,-5.2942,-5.2198,-5.1454,-5.071,-4.9965,-4.9238,-4.9035,-4.9001,-4.9001,-4.9483,-4.9644,-4.9138,-4.9496,-4.9615,-4.9063,-4.9001,-4.9001,-4.9001,-4.9001,-4.8376,-4.6887,-4.6786,-4.6126,-4.4666,-4.4615,-4.4598,-4.457,-4.4241,-4.4155,-4.4253,-4.3998,-4.3939,-4.4068,-4.3939,-4.3898,-5.7997,-5.7997,-5.7997,-5.7997,-5.7997,-5.7997,-5.7997,0.0,0.0,-5.9093,-5.9698,-6.0456,-6.141,-6.1851,-6.2236,0.0,0.0,0.0,0.0,0.0,0.0,0.0,0.0,0.0,0.0,0.0,0.0,0.0,0.0,0.0,-6.1374,-6.1814,-6.2089,-6.2089,-6.1612,-6.1257,-6.0996,-6.0643,-6.0314,-6.0032,-5.9407,-5.9099,-5.9069,-5.8507,-5.845,-5.8853,-5.8491,0.0,0.0,-5.9012,-5.9012,-5.8978,-5.8512,-5.834,-5.8254,-5.7512,-5.6943,-5.6443,-5.5822,-5.5322,-5.4908,-5.4615,-5.4367,-5.419,-5.411,-5.398,-5.3849,-5.3651,-5.3517,-5.3501,-5.3501,-5.3501,-5.3501,-5.3501,-5.3501,-5.3501,-5.3501,-5.2875,-5.208,-5.132,-5.0608,-4.9864,-4.9137,-4.9001,-4.9001,-4.9001,-4.9199,-4.9273,-4.9032,-4.9526,-4.9674,-4.9063,-4.9001,-4.9001,-4.9001,-4.8595,-4.7902,-4.6853,-4.638,-4.5669,-4.4649,-4.4615,-4.4615,-4.4615,-4.4355,-4.4253,-4.431,-4.4097,-4.4097,-4.4224,-4.4068,-4.4027,-5.7997,-5.7997,-5.7997,-5.7997,-5.7997,-5.7997,0.0,0.0,0.0,-5.8684,-5.8996,-5.9533,-6.0628,-6.1056,-6.1429,0.0,0.0,0.0,0.0,0.0,0.0,0.0,0.0,0.0,0.0,0.0,0.0,0.0,0.0,0.0,0.0,-6.0713,-6.1006,-6.1245,-6.0694,-6.0401,-6.0401,-5.9997,-5.9776,-5.9776,-5.9114,-5.8811,-5.8765,-5.8196,-5.8227,-5.8677,-5.8101,0.0,0.0,-5.8407,-5.8357,-5.8305,-5.7788,-5.7581,-5.7478,-5.6719,-5.6098,-5.5581,-5.5357,-5.4943,-5.4512,-5.4512,-5.4399,-5.4271,-5.411,-5.398,-5.3849,-5.3568,-5.3501,-5.3501,-5.3501,-5.3501,-5.3501,-5.3501,-5.3501,-5.3433,-5.3196,-5.2536,-5.1775,-5.1031,-5.0287,-4.961,-4.9086,-4.9001,-4.9001,-4.9001,-4.9001,-4.9063,-4.9243,-4.9466,-4.9526,-4.9273,-4.8921,-4.868,-4.868,-4.8206,-4.7496,-4.6532,-4.5991,-4.5365,-4.4632,-4.4615,-4.4615,-4.4615,-4.4395,-4.4338,-4.4395,-4.4224,-4.4241,-4.4367,-4.4184,-4.4039,-5.7997,-5.7997,-5.7997,-5.7997,-5.7997,-5.7997,0.0,0.0,0.0,-5.7834,-5.8545,-5.9161,-5.906,-5.9791,-6.0419,-6.0419,0.0,0.0,0.0,0.0,0.0,0.0,0.0,0.0,0.0,0.0,0.0,0.0,0.0,0.0,0.0,-5.9643,-5.9588,-6.0401,-6.0401,-6.0401,-6.0401,-6.0401,-6.0377,-6.0377,-5.9776,-5.9498,-5.9472,-5.8811,-5.8481,0.0,0.0,0.0,0.0,-5.7049,-5.6822,-5.6822,-5.6805,-5.6805,-5.6719,-5.5926,-5.5615,-5.5512,-5.477,-5.4512,-5.4512,-5.4512,-5.4512,-5.448,-5.4271,-5.3963,-5.3684,-5.3517,-5.3501,-5.3501,-5.3501,-5.3501,-5.3501,-5.3501,-5.3501,-5.3281,-5.2486,-5.1742,-5.0997,-5.0253,-4.9509,-4.9018,-4.9001,-4.9001,-4.9001,-4.9001,-4.9001,-4.9229,-4.9803,-4.9364,-4.9229,-4.9832,-4.8716,-4.7906,-4.7906,-4.7889,-4.7263,-4.5805,-4.5703,-4.5365,-4.4632,-4.4615,-4.4615,-4.4615,-4.4395,-4.4412,-4.4615,-4.4412,-4.4412,-4.4587,-4.4258,-4.3923,-5.8326,-5.8209,-5.7997,-5.7997,-5.7997,-5.7997,-5.7997,0.0,-5.7973,-5.7815,-5.8035,-5.8406,-5.8908,-5.9243,-5.9615,-6.0164,0.0,0.0,0.0,0.0,0.0,0.0,0.0,0.0,0.0,0.0,0.0,0.0,0.0,0.0,0.0,-5.8232,-5.856,-5.9551,-5.9061,-5.8749,-5.8749,-5.8749,-5.8749,-5.8767,-5.8566,-5.8452,-5.8452,-5.7825,0.0,0.0,0.0,0.0,0.0,-5.7064,-5.6805,-5.6753,-5.6202,-5.5995,-5.5891,-5.515,-5.4856,-5.4822,-5.4581,-5.4512,-5.4512,-5.4512,-5.4512,-5.4463,-5.4271,-5.4078,-5.3866,-5.3568,-5.3501,-5.3501,-5.3501,-5.3501,-5.3501,-5.3501,-5.3078,-5.2604,-5.2367,-5.1319,-5.0371,-5.0135,-4.9509,-4.9001,-4.9001,-4.9001,-4.9001,-4.9001,-4.9364,-4.9526,-4.9303,-4.9797,-4.9735,-4.8664,-4.8509,-4.8343,-4.7949,-4.6989,-4.621,-4.5737,-4.5229,-4.4852,-4.4615,-4.4615,-4.4615,-4.4615,-4.4542,-4.4542,-4.4615,-4.4542,-4.4468,-4.4384,-4.4114,-4.391,0.0,-5.8186,-5.7997,-5.7997,-5.7997,0.0,0.0,0.0,-5.7862,-5.7697,-5.7697,-5.7843,-5.8306,-5.844,-5.8634,0.0,0.0,0.0,0.0,0.0,0.0,0.0,0.0,0.0,0.0,0.0,0.0,0.0,0.0,0.0,0.0,-5.7601,-5.791,-5.8566,-5.816,-5.795,-5.7997,-5.7997,-5.7997,-5.7997,-5.7997,-5.7997,-5.7997,-5.7613,0.0,0.0,0.0,0.0,0.0,-5.6198,-5.5943,-5.5891,-5.5391,-5.5184,-5.515,-5.4684,-5.4512,-5.4512,-5.4512,-5.4512,-5.4512,-5.4512,-5.4512,-5.4448,-5.4207,-5.4013,-5.3816,-5.3568,-5.3501,-5.3501,-5.3501,-5.3501,-5.3433,-5.3129,-5.2655,-5.2147,-5.1589,-5.0744,-5.0016,-4.9729,-4.9306,-4.9001,-4.9001,-4.9001,-4.9001,-4.9001,-4.9303,-4.9496,-4.9364,-4.9527,-4.928,-4.8336,-4.786,-4.7477,-4.7103,-4.6244,-4.5585,-4.5297,-4.4869,-4.4615,-4.4615,-4.4615,-4.4615,-4.4615,-4.4615,-4.4615,-4.4615,-4.4615,-4.4514,-4.431,-4.4126,-4.3998,0.0,0.0,0.0,0.0,0.0,0.0,0.0,0.0,0.0,-5.7437,-5.7504,-5.7553,-5.7412,-5.7504,0.0,0.0,0.0,0.0,0.0,0.0,0.0,0.0,0.0,0.0,0.0,0.0,0.0,0.0,0.0,0.0,0.0,-5.7577,-5.7577,-5.7601,-5.7697,-5.7857,-5.7973,-5.7973,-5.7997,-5.7997,-5.7997,-5.7997,-5.7997,-5.7997,0.0,0.0,0.0,0.0,0.0,-5.4759,-5.4512,-5.4512,-5.4512,-5.4512,-5.4512,-5.4512,-5.4512,-5.4512,-5.4512,-5.4512,-5.4512,-5.4512,-5.448,-5.4416,-5.4078,-5.3882,-5.3684,-5.3517,-5.3501,-5.3501,-5.3433,-5.3416,-5.3213,-5.2418,-5.2181,-5.1775,-5.0388,-5.005,-4.9813,-4.9137,-4.9001,-4.9001,-4.9001,-4.9001,-4.9001,-4.9001,-4.9032,-4.9226,-4.9705,-4.8711,-4.812,-4.8535,-4.6845,-4.5686,-4.5635,-4.5618,-4.5331,-4.4649,-4.4615,-4.4615,-4.4615,-4.4615,-4.4615,-4.4615,-4.4615,-4.4615,-4.4615,-4.4587,-4.4468,-4.431,-4.4281,-4.4155,-5.7697,0.0,-5.7697,0.0,0.0,0.0,0.0,0.0,0.0,0.0,0.0,0.0,0.0,0.0,0.0,0.0,0.0,0.0,0.0,0.0,0.0,0.0,0.0,0.0,0.0,0.0,0.0,0.0,0.0,0.0,0.0,-5.7289,-5.7338,-5.7437,-5.748,-5.7577,-5.7697,-5.7792,-5.7857,-5.7857,-5.795,-5.7997,-5.7997,-5.7997,0.0,0.0,0.0,0.0,-5.5999,-5.4957,-5.4512,-5.4512,-5.4512,-5.4512,-5.4512,-5.4512,-5.4512,-5.4512,-5.4512,-5.4512,-5.4512,-5.4512,-5.4399,-5.4239,-5.4045,-5.3948,-5.3849,-5.3584,-5.3501,-5.3365,-5.2739,-5.2587,-5.2401,-5.1657,-5.1031,-5.0507,-5.0152,-4.9661,-4.9204,-4.9035,-4.9001,-4.9001,-4.9001,-4.9001,-4.9001,-4.9001,-4.9394,-4.938,-4.8494,-4.8521,-4.8043,-4.6589,-4.5992,-4.5466,-4.4891,-4.4869,-4.4801,-4.4615,-4.4615,-4.4615,-4.4615,-4.4615,-4.4615,-4.4615,-4.4615,-4.4615,-4.4615,-4.444,-4.4338,-4.431,-4.4097,-4.3956,-5.7504,-5.7553,-5.7601,-5.7601,-5.7601,-5.7577,0.0,0.0,0.0,0.0,0.0,0.0,0.0,0.0,0.0,0.0,0.0,0.0,0.0,0.0,0.0,0.0,0.0,0.0,0.0,0.0,0.0,0.0,0.0,0.0,0.0,-5.7188,-5.7213,-5.7307,-5.7307,-5.7388,-5.7601,-5.7673,-5.7745,-5.7792,-5.7862,-5.795,-5.7997,-5.7997,-5.7726,0.0,0.0,0.0,-5.5414,-5.4759,-5.4512,-5.4512,-5.4512,-5.4512,-5.4512,-5.4512,-5.4512,-5.4512,-5.4512,-5.4512,-5.448,-5.4399,-5.4303,-5.4175,-5.3948,-5.3849,-5.3816,-5.3568,-5.323,-5.2858,-5.2418,-5.2046,-5.1623,-5.0879,-5.0388,-4.9999,-4.9661,-4.9272,-4.9001,-4.9001,-4.9001,-4.9001,-4.9001,-4.9001,-4.9001,-4.9001,-4.9001,-4.8716,-4.7983,-4.7588,-4.6942,-4.5816,-4.5399,-4.5026,-4.4632,-4.4615,-4.4615,-4.4615,-4.4615,-4.4615,-4.4615,-4.4615,-4.4615,-4.4615,-4.4615,-4.4615,-4.4615,-4.4468,-4.444,-4.444,-4.4184,-4.4056,-5.7381,-5.7437,-5.7553,-5.7553,-5.7553,-5.7504,0.0,0.0,0.0,0.0,0.0,0.0,0.0,0.0,0.0,0.0,0.0,0.0,0.0,0.0,0.0,0.0,0.0,0.0,0.0,0.0,0.0,0.0,0.0,0.0,0.0,-5.7188,-5.7188,-5.7188,-5.7188,-5.7307,-5.7553,-5.7577,-5.7649,-5.7768,-5.7792,-5.7862,-5.7997,-5.7997,-5.7425,-5.6412,0.0,0.0,-5.462,-5.4543,-5.4512,-5.4512,-5.4512,-5.4512,-5.4512,-5.4512,-5.4512,-5.4512,-5.4512,-5.4512,-5.448,-5.4271,-5.4207,-5.411,-5.3816,-5.3599,-5.3481,-5.3348,-5.2841,-5.2249,-5.2029,-5.1505,-5.0862,-5.0101,-4.9915,-4.9763,-4.9137,-4.9001,-4.9001,-4.9001,-4.9001,-4.9001,-4.9001,-4.9001,-4.8968,-4.8849,-4.8308,-4.7804,-4.7584,-4.6481,-4.5669,-4.5551,-4.4959,-4.4615,-4.4615,-4.4615,-4.4615,-4.4615,-4.4615,-4.4615,-4.4615,-4.4615,-4.4615,-4.4615,-4.4615,-4.4615,-4.4615,-4.457,-4.4598,-4.4692,-4.4395,-4.4224,-5.7213,-5.7257,-5.7264,-5.7264,-5.7264,-5.7257,-5.7257,0.0,0.0,0.0,0.0,0.0,0.0,0.0,0.0,0.0,0.0,0.0,0.0,0.0,0.0,0.0,0.0,0.0,0.0,0.0,0.0,0.0,0.0,0.0,0.0,0.0,-5.7188,-5.7188,-5.7188,-5.7213,-5.7264,-5.7363,-5.7504,-5.7625,-5.7745,-5.7862,-5.7997,-5.7997,-5.7637,-5.6946,0.0,-5.5915,-5.5224,-5.4697,-5.4512,-5.4512,-5.4512,-5.4512,-5.4512,-5.4512,-5.4512,-5.4512,-5.4512,-5.4512,-5.448,-5.4271,-5.4143,-5.398,-5.3783,-5.3159,-5.2502,-5.2486,-5.2401,-5.2012,-5.076,-5.0338,-5.0067,-4.934,-4.9171,-4.9137,-4.9018,-4.9001,-4.9001,-4.9001,-4.9001,-4.9001,-4.9001,-4.9001,-4.8798,-4.8173,-4.7956,-4.7432,-4.621,-4.5838,-4.5466,-4.4852,-4.4682,-4.4615,-4.4615,-4.4615,-4.4615,-4.4615,-4.4615,-4.4615,-4.4615,-4.4615,-4.4615,-4.4615,-4.4615,-4.4615,-4.4615,-4.444,-4.4642,-4.5161,-4.4367,-4.4253,-5.6536,-5.6862,-5.7188,-5.7188,-5.7188,-5.7188,-5.7188,0.0,0.0,0.0,0.0,0.0,0.0,0.0,0.0,0.0,0.0,0.0,0.0,0.0,0.0,0.0,0.0,0.0,0.0,0.0,0.0,0.0,0.0,0.0,0.0,0.0,-5.7188,-5.7188,-5.7188,-5.7188,-5.7188,-5.7264,-5.7363,-5.7486,-5.7625,-5.7768,-5.7886,-5.7973,-5.766,-5.7065,0.0,-5.5971,-5.5355,-5.4759,-5.4512,-5.4512,-5.4512,-5.4512,-5.4512,-5.4512,-5.4512,-5.4512,-5.4512,-5.4448,-5.4303,-5.4143,-5.3707,-5.322,-5.299,-5.2365,-5.1623,-5.1217,-5.1099,-5.0947,-5.027,-4.9796,-4.9424,-4.9086,-4.9001,-4.9001,-4.9001,-4.9001,-4.9001,-4.9001,-4.9001,-4.9001,-4.9001,-4.868,-4.8308,-4.7939,-4.7212,-4.6481,-4.5788,-4.5348,-4.4976,-4.4649,-4.4615,-4.4615,-4.4615,-4.4615,-4.4615,-4.4615,-4.4615,-4.4615,-4.4615,-4.4615,-4.4615,-4.4615,-4.4615,-4.4703,-4.4971,-4.4899,-4.5161,-4.5699,-4.4937,-4.468,-5.5939,-5.6446,-5.6953,-5.7152,0.0,-5.7188,-5.7188,0.0,0.0,0.0,0.0,0.0,0.0,0.0,0.0,0.0,0.0,0.0,0.0,0.0,0.0,0.0,0.0,0.0,0.0,0.0,0.0,0.0,0.0,0.0,0.0,0.0,-5.7188,-5.7188,-5.7188,-5.7188,-5.7188,-5.7188,-5.7282,-5.7388,-5.7486,-5.7649,-5.7792,-5.7904,-5.7565,-5.6894,-5.6492,-5.5887,-5.5134,-5.4697,-5.4512,-5.4512,-5.4512,-5.4512,-5.4512,-5.4512,-5.4512,-5.4512,-5.4512,-5.4399,-5.4205,-5.3857,-5.3251,-5.2578,-5.2179,-5.1539,-5.0828,-5.0253,-4.9965,-4.983,-4.983,-4.9424,-4.9001,-4.9001,-4.9001,-4.9032,-4.9168,-4.9077,-4.9032,-4.9199,-4.9094,-4.8951,-4.8781,-4.8291,-4.777,-4.7432,-4.643,-4.5652,-4.5466,-4.4942,-4.4615,-4.4615,-4.4615,-4.4615,-4.4615,-4.4615,-4.4615,-4.4615,-4.4615,-4.4615,-4.4615,-4.4615,-4.4615,-4.4615,-4.472,-4.4944,-4.5303,-4.5276,-4.5545,-4.6074,-4.5224,-4.4855,-5.5812,-5.6029,-5.6265,-5.7007,-5.7188,0.0,-5.7188,-5.7188,0.0,0.0,0.0,0.0,0.0,0.0,0.0,0.0,0.0,0.0,0.0,0.0,0.0,0.0,0.0,0.0,0.0,0.0,0.0,0.0,0.0,0.0,0.0,0.0,0.0,-5.7188,-5.7188,-5.7188,-5.7188,-5.7188,-5.7282,-5.7388,-5.7406,-5.7553,-5.7792,-5.7792,-5.7277,-5.6357,-5.633,-5.5647,-5.4557,-5.4512,-5.4512,-5.4512,-5.4512,-5.4512,-5.4512,-5.4512,-5.4512,-5.4512,-5.4512,-5.448,-5.4296,-5.3323,-5.2938,-5.2686,-5.1602,-5.076,-5.0152,-5.0101,-4.961,-4.9086,-4.9086,-4.9035,-4.9001,-4.9001,-4.9001,-4.9138,-4.9715,-4.9394,-4.9168,-4.9732,-4.9394,-4.8781,-4.8091,-4.7922,-4.7432,-4.6075,-4.5771,-4.5449,-4.4784,-4.4632,-4.4615,-4.4615,-4.4615,-4.4615,-4.4615,-4.4615,-4.4615,-4.4615,-4.4615,-4.4615,-4.4615,-4.4615,-4.4615,-4.4615,-4.5035,-4.5267,-4.5303,-4.5188,-4.5459,-4.6067,-4.4652,-4.4293,-5.449,-5.4925,-5.5395,-5.5685,0.0,0.0,0.0,0.0,0.0,0.0,0.0,0.0,0.0,0.0,0.0,0.0,0.0,0.0,0.0,0.0,0.0,0.0,0.0,0.0,0.0,0.0,0.0,0.0,0.0,0.0,0.0,0.0,0.0,-5.7188,-5.7188,-5.7188,-5.7188,-5.7188,-5.7232,-5.7282,-5.7363,-5.7504,-5.7673,-5.7376,-5.7083,-5.6765,-5.6055,-5.5473,-5.5031,-5.4652,-5.4512,-5.4512,-5.4512,-5.4512,-5.4512,-5.4512,-5.4512,-5.4443,-5.3977,-5.3742,-5.351,-5.2629,-5.1893,-5.1247,-5.0815,-5.011,-4.9424,-4.9424,-4.9221,-4.9001,-4.9001,-4.9001,-4.9001,-4.9001,-4.9001,-4.9063,-4.9273,-4.9168,-4.8927,-4.8677,-4.8459,-4.8088,-4.7344,-4.6853,-4.6346,-4.5788,-4.5314,-4.4936,-4.4649,-4.4615,-4.4615,-4.4615,-4.4615,-4.4615,-4.4615,-4.4615,-4.4615,-4.4615,-4.4615,-4.4615,-4.4615,-4.4879,-4.5035,-4.5035,-4.5537,-4.5817,-4.5817,-4.5767,-4.58,-4.595,-4.5054,-4.4663,-5.3639,-5.411,-5.4581,0.0,0.0,0.0,0.0,0.0,0.0,0.0,0.0,0.0,0.0,0.0,0.0,0.0,0.0,0.0,0.0,0.0,0.0,0.0,0.0,0.0,0.0,0.0,0.0,0.0,0.0,0.0,0.0,0.0,0.0,0.0,-5.6464,-5.6464,-5.6464,-5.6464,-5.6464,-5.6464,-5.6378,-5.6731,-5.7528,-5.7252,-5.7007,-5.6731,-5.5999,-5.5473,-5.5091,-5.4665,-5.4512,-5.4512,-5.4512,-5.4512,-5.4512,-5.4512,-5.4356,-5.408,-5.358,-5.3156,-5.2671,-5.1901,-5.1104,-5.0396,-5.0096,-4.9531,-4.9001,-4.9001,-4.9001,-4.9001,-4.9001,-4.9001,-4.9001,-4.9001,-4.9001,-4.9063,-4.9243,-4.8968,-4.8572,-4.8256,-4.7836,-4.7327,-4.6583,-4.6024,-4.5618,-4.5382,-4.4908,-4.4615,-4.4615,-4.4615,-4.4615,-4.4615,-4.4615,-4.4615,-4.4615,-4.4748,-4.4824,-4.4824,-4.4988,-4.5015,-4.4841,-4.5294,-4.5485,-4.5303,-4.5843,-4.6017,-4.585,-4.6017,-4.6049,-4.595,-4.5329,-4.4984,-5.3476,-5.3693,0.0,0.0,0.0,0.0,0.0,0.0,0.0,0.0,0.0,0.0,0.0,0.0,0.0,0.0,0.0,0.0,0.0,0.0,0.0,0.0,0.0,0.0,0.0,0.0,0.0,0.0,0.0,0.0,0.0,0.0,0.0,0.0,-5.4907,-5.4907,-5.4907,-5.4907,-5.4907,-5.4907,-5.4276,-5.5194,-5.737,-5.7492,-5.7007,-5.6108,-5.6221,-5.5601,-5.4512,-5.4512,-5.4512,-5.4512,-5.4494,-5.4494,-5.4494,-5.4494,-5.4029,-5.3391,-5.3391,-5.2873,-5.2067,-5.1176,-5.075,-5.0427,-4.9481,-4.9124,-4.9001,-4.9001,-4.9001,-4.9001,-4.9001,-4.9001,-4.9001,-4.9001,-4.9001,-4.9152,-4.9744,-4.8843,-4.8065,-4.8655,-4.7699,-4.6549,-4.5821,-4.5703,-4.5449,-4.4716,-4.4615,-4.4615,-4.4615,-4.4615,-4.4615,-4.4615,-4.4598,-4.4598,-4.4598,-4.5035,-4.5303,-4.5303,-4.58,-4.585,-4.5329,-4.5817,-4.585,-4.5303,-4.5825,-4.585,-4.5303,-4.5868,-4.6098,-4.6074,-4.5276,-4.5135,-5.2788,-5.286,0.0,0.0,0.0,0.0,0.0,0.0,0.0,0.0,0.0,0.0,0.0,0.0,0.0,0.0,0.0,0.0,0.0,0.0,0.0,0.0,0.0,0.0,0.0,0.0,0.0,0.0,0.0,0.0,0.0,0.0,0.0,0.0,-5.4907,-5.4907,-5.4907,-5.4907,-5.4907,-5.4907,-5.4276,-5.4397,-5.5145,-5.4456,-5.4317,-5.46,-5.4378,-5.4348,-5.4512,-5.4512,-5.4512,-5.446,-5.3942,-5.3736,-5.3667,-5.3097,-5.2722,-5.2494,-5.1977,-5.1649,-5.1274,-5.0368,-4.9962,-4.9731,-4.9328,-4.9124,-4.9001,-4.9001,-4.9001,-4.9001,-4.9001,-4.9001,-4.9001,-4.9001,-4.8895,-4.8721,-4.8537,-4.8058,-4.7489,-4.6749,-4.6293,-4.5788,-4.5043,-4.4925,-4.4869,-4.4632,-4.4615,-4.4615,-4.4615,-4.4615,-4.4615,-4.4615,-4.4906,-4.5098,-4.5098,-4.5563,-4.5699,-4.5329,-4.58,-4.585,-4.5329,-4.5817,-4.585,-4.5303,-4.6213,-4.6406,-4.585,-4.6406,-4.643,-4.595,-4.5699,-4.5407,-5.2498,0.0,0.0,0.0,0.0,0.0,0.0,0.0,0.0,0.0,0.0,0.0,0.0,0.0,0.0,0.0,0.0,0.0,0.0,0.0,0.0,0.0,0.0,0.0,0.0,0.0,0.0,0.0,0.0,0.0,0.0,0.0,0.0,0.0,-5.3718,-5.3578,-5.3578,-5.3344,-5.3225,-5.3225,-5.2644,-5.2394,-5.2492,-5.2898,-5.3217,-5.3463,-5.3073,-5.3184,-5.3598,-5.3598,-5.3598,-5.3546,-5.3115,-5.2925,-5.2873,-5.236,-5.1998,-5.1688,-5.1269,-5.0848,-5.0445,-4.9892,-4.956,-4.935,-4.9229,-4.9124,-4.9001,-4.9001,-4.9001,-4.8934,-4.8646,-4.8578,-4.8623,-4.883,-4.878,-4.8581,-4.8209,-4.7595,-4.6942,-4.618,-4.562,-4.5111,-4.4682,-4.4615,-4.4615,-4.4615,-4.4615,-4.4682,-4.4852,-4.4879,-4.4944,-4.5169,-4.5451,-4.5622,-4.5622,-4.6098,-4.6189,-4.5648,-4.6123,-4.6189,-4.5622,-4.5925,-4.595,-4.5622,-4.6244,-4.643,-4.6098,-4.6637,-4.6572,-4.5975,-4.5925,-4.5665,0.0,0.0,0.0,0.0,0.0,0.0,0.0,0.0,0.0,0.0,0.0,0.0,0.0,0.0,0.0,0.0,0.0,0.0,0.0,0.0,0.0,0.0,0.0,0.0,0.0,0.0,0.0,0.0,0.0,0.0,0.0,0.0,0.0,-5.2498,-5.1975,-5.1669,-5.1601,-5.1061,-5.0751,-5.068,-5.017,-4.989,-4.9999,-5.2179,-5.2966,-5.2509,-5.2287,-5.2188,-5.2188,-5.2188,-5.2188,-5.2188,-5.2119,-5.2084,-5.2084,-5.1998,-5.1597,-5.1011,-5.0981,-5.041,-4.9708,-4.9679,-4.9441,-4.9199,-4.9199,-4.9094,-4.9001,-4.9001,-4.8951,-4.8748,-4.8058,-4.7898,-4.7976,-4.8409,-4.8488,-4.8439,-4.8207,-4.7237,-4.637,-4.6343,-4.5401,-4.4615,-4.4615,-4.4615,-4.4598,-4.4654,-4.4665,-4.4841,-4.5303,-4.5381,-4.5563,-4.6049,-4.6147,-4.6172,-4.6172,-4.666,-4.673,-4.6213,-4.6637,-4.666,-4.6123,-4.6098,-4.6098,-4.6098,-4.6165,-4.6165,-4.6098,-4.6637,-4.6619,-4.6116,-4.5975,-4.586,0.0,0.0,0.0,0.0,0.0,0.0,0.0,0.0,0.0,0.0,0.0,0.0,0.0,0.0,0.0,0.0,0.0,0.0,0.0,0.0,0.0,0.0,0.0,0.0,0.0,0.0,0.0,0.0,0.0,0.0,0.0,0.0,0.0,-5.2498,-5.2387,-5.2072,-5.1601,-5.1457,-5.1183,0.0,-5.017,-4.989,-4.9907,-5.0059,-5.0557,-5.1313,-5.1929,-5.2188,-5.2188,-5.2188,-5.2188,-5.2136,-5.158,-5.1356,-5.1287,-5.07,-5.0373,-5.0206,-5.0054,-4.9875,-4.9649,-4.9411,-4.926,-4.9168,-4.9077,-4.9032,-4.9001,-4.9001,-4.8595,-4.8091,-4.7922,-4.777,-4.7556,-4.7093,-4.6983,-4.6866,-4.6396,-4.5905,-4.5463,-4.5097,-4.48,-4.4615,-4.4615,-4.4615,-4.472,-4.5098,-4.5152,-4.5346,-4.585,-4.5925,-4.5975,-4.6074,-4.6478,-4.673,-4.673,-4.7214,-4.7302,-4.6753,-4.684,-4.666,-4.6123,-4.6098,-4.6098,-4.6098,-4.6501,-4.6525,-4.6098,-4.6637,-4.6619,-4.6098,-4.6074,-4.5767,0.0,0.0,0.0,0.0,0.0,0.0,0.0,0.0,0.0,0.0,0.0,0.0,0.0,0.0,0.0,0.0,0.0,0.0,0.0,0.0,0.0,0.0,0.0,0.0,0.0,0.0,0.0,0.0,0.0,0.0,0.0,-5.2498,-5.2498,-5.2498,-5.1933,-5.1482,-5.1183,-5.0624,-5.0198,-4.9867,-4.9598,-4.9496,-4.9555,-4.9394,-4.977,-5.0496,-5.0934,-5.1166,-5.1166,-5.1166,-5.1166,-5.1114,-5.0735,-5.058,-5.0499,-5.0027,-4.986,-4.983,-4.9666,-4.953,-4.9441,-4.926,-4.9168,-4.9094,-4.9032,-4.8765,-4.8477,-4.8477,-4.8146,-4.767,-4.7312,-4.7334,-4.723,-4.6465,-4.6569,-4.6664,-4.6027,-4.578,-4.5614,-4.5363,-4.5328,-4.5328,-4.5328,-4.5328,-4.5311,-4.5303,-4.5537,-4.5893,-4.6406,-4.6478,-4.6478,-4.6478,-4.673,-4.6817,-4.6525,-4.7017,-4.7084,-4.6548,-4.6753,-4.6776,-4.6478,-4.6238,-4.6238,-4.6478,-4.6753,-4.6886,-4.6863,-4.7147,-4.7017,-4.6478,-4.6358,-4.585,0.0,0.0,0.0,0.0,0.0,0.0,0.0,0.0,0.0,0.0,0.0,0.0,0.0,0.0,0.0,0.0,0.0,0.0,0.0,0.0,0.0,0.0,0.0,0.0,0.0,0.0,0.0,0.0,0.0,0.0,-5.2498,-5.2498,-5.2498,-5.2498,-5.1432,-5.0805,-5.0697,-4.9669,-4.9107,-4.9001,-4.9001,-4.9094,-4.926,-4.9411,-4.9666,-4.9935,-4.9964,-5.0011,-5.0011,-5.0011,-5.0011,-5.0011,-5.0011,-4.9982,-4.9935,-4.9755,-4.9679,-4.9649,-4.9518,-4.932,-4.9199,-4.9168,-4.9168,-4.9121,-4.8985,-4.857,-4.815,-4.8031,-4.7763,-4.7395,-4.6773,-4.6881,-4.6987,-4.6256,-4.6639,-4.697,-4.6239,-4.6098,-4.6098,-4.6098,-4.6098,-4.6098,-4.6098,-4.6098,-4.5975,-4.5622,-4.595,-4.6406,-4.6822,-4.6976,-4.6999,-4.6908,-4.6976,-4.6863,-4.6406,-4.6776,-4.6863,-4.6406,-4.6776,-4.7017,-4.6908,-4.6548,-4.6525,-4.6886,-4.6908,-4.7107,-4.7554,-4.7554,-4.728,-4.6753,-4.6525,-4.5975,0.0,0.0,0.0,0.0,0.0,0.0,0.0,0.0,0.0,0.0,0.0,0.0,0.0,0.0,0.0,0.0,0.0,0.0,0.0,0.0,0.0,0.0,0.0,0.0,0.0,0.0,0.0,0.0,0.0,0.0,-5.2498,-5.2498,-5.2498,-5.2498,-5.1835,-5.1235,-5.0724,-5.0085,-4.9526,-4.9001,-4.9001,-4.9155,-4.9458,-4.9488,-4.9607,-4.9737,-4.9935,-5.0011,-5.0011,-5.0011,-5.0011,-5.0011,-5.0011,-4.9889,-4.9737,-4.9708,-4.9619,-4.9518,-4.932,-4.9229,-4.9168,-4.9063,-4.9364,-4.9653,-4.8971,-4.9,-4.9141,-4.8512,-4.7797,-4.721,-4.7122,-4.7036,-4.6808,-4.6231,-4.6525,-4.6784,-4.6231,-4.6098,-4.6098,-4.6098,-4.6098,-4.6098,-4.6098,-4.6098,-4.622,-4.6637,-4.6753,-4.684,-4.6886,-4.732,-4.7407,-4.6954,-4.732,-4.7554,-4.749,-4.7554,-4.7554,-4.749,-4.7554,-4.7385,-4.6908,-4.728,-4.7302,-4.6908,-4.6908,-4.6931,-4.7017,-4.7017,-4.673,-4.6213,-4.6189,-4.59,0.0,0.0,0.0,0.0,0.0,0.0,0.0,0.0,0.0,0.0,0.0,0.0,0.0,0.0,0.0,0.0,0.0,0.0,0.0,0.0,0.0,0.0,0.0,0.0,0.0,0.0,0.0,0.0,0.0,-5.2498,-5.2498,-5.2498,-5.2364,-5.2,-5.1406,-5.0822,-5.0265,-4.9686,-4.9243,-4.9001,-4.9001,-4.9124,-4.932,-4.932,-4.9518,-4.986,-4.9964,-5.0011,-5.0011,-5.0011,-5.0011,-5.0011,-5.0011,-4.9935,-4.986,-4.9666,-4.9547,-4.95,-4.9555,-4.9585,-4.9576,-4.9344,-4.9472,-4.9537,-4.8762,-4.8364,-4.8136,-4.782,-4.7379,-4.7038,-4.7038,-4.7181,-4.728,-4.7062,-4.7191,-4.728,-4.7062,-4.6753,-4.6637,-4.6931,-4.7017,-4.6908,-4.6613,-4.6548,-4.6543,-4.6454,-4.6454,-4.6548,-4.6863,-4.7107,-4.7151,-4.6931,-4.7107,-4.7129,-4.684,-4.7084,-4.7258,-4.7258,-4.7533,-4.7575,-4.7363,-4.728,-4.728,-4.7341,-4.7363,-4.7363,-4.7363,-4.7363,-4.7236,-4.6976,-4.684,-4.6358,0.0,0.0,0.0,0.0,0.0,0.0,0.0,0.0,0.0,0.0,0.0,0.0,0.0,0.0,0.0,0.0,0.0,0.0,0.0,0.0,0.0,0.0,0.0,0.0,0.0,0.0,0.0,0.0,0.0,-5.219,-5.219,-5.1991,-5.1705,-5.1298,-5.0708,-5.025,-4.9919,-4.9303,-4.9001,-4.9001,-4.9001,-4.9094,-4.929,-4.929,-4.9547,-5.0011,-4.9935,-4.9964,-5.0011,-5.0011,-5.0011,-5.0011,-5.0011,-4.9964,-4.9918,-4.9796,-4.9732,-4.9715,-4.982,-4.9847,-4.9781,-4.9353,-4.9302,-4.9291,-4.8526,-4.8,-4.7592,-4.738,-4.7221,-4.7107,-4.7107,-4.7407,-4.7717,-4.7717,-4.7717,-4.7717,-4.7717,-4.7385,-4.7214,-4.7615,-4.7717,-4.7575,-4.7151,-4.7107,-4.6954,-4.6566,-4.6519,-4.6613,-4.6863,-4.7017,-4.7062,-4.6908,-4.7017,-4.6931,-4.6525,-4.6886,-4.7107,-4.7107,-4.749,-4.7636,-4.7511,-4.7236,-4.7236,-4.749,-4.7636,-4.7717,-4.7717,-4.7717,-4.7636,-4.749,-4.7258,-4.6613,0.0,0.0,0.0,0.0,0.0,0.0,0.0,0.0,0.0,0.0,0.0,0.0,0.0,0.0,0.0,0.0,0.0,0.0,0.0,0.0,0.0,0.0,0.0,0.0,0.0,0.0,0.0,0.0,0.0,-5.1357,-5.1357,-5.0655,-5.0298,-5.0459,-4.9888,-4.9672,-4.9919,-4.9303,-4.9001,-4.9001,-4.9001,-4.9185,-4.9488,-4.9488,-4.9666,-5.0011,-4.9784,-4.9813,-5.0011,-5.0011,-5.0011,-5.0011,-5.0011,-4.9889,-4.9796,-5.0254,-5.0377,-5.0216,-4.9828,-4.9723,-4.9573,-4.8741,-4.8784,-4.9085,-4.8259,-4.8393,-4.8645,-4.7886,-4.7672,-4.7657,-4.7657,-4.7678,-4.7717,-4.7717,-4.7717,-4.7717,-4.7717,-4.7678,-4.7675,-4.7678,-4.7717,-4.7678,-4.7657,-4.7657,-4.7657,-4.7615,-4.7615,-4.7428,-4.6954,-4.7323,-4.745,-4.6954,-4.7363,-4.7636,-4.7615,-4.7636,-4.7657,-4.7657,-4.7678,-4.7468,-4.6954,-4.7407,-4.7428,-4.6954,-4.7428,-4.7717,-4.7717,-4.7717,-4.7428,-4.6931,-4.6817,-4.631,0.0,0.0,0.0,0.0,0.0,0.0,0.0,0.0,0.0,0.0,0.0,0.0,0.0,0.0,0.0,0.0,0.0,0.0,0.0,0.0,0.0,0.0,0.0,0.0,0.0,0.0,0.0,0.0,0.0,0.0,-5.0546,-5.0275,-4.9956,-4.9632,-4.9076,-4.8526,-4.7931,-4.77,-4.7581,-4.7581,-4.7581,-4.77,-4.789,-4.789,-4.8082,-4.8403,-4.8329,-4.8936,-5.0011,-5.0011,-5.0011,-4.9959,-4.9413,-4.9177,-4.908,-4.8574,-4.8564,-4.8841,-4.8855,-4.9084,-4.9319,-4.8853,-4.8851,-4.8843,-4.8051,-4.7966,-4.8079,-4.779,-4.7717,-4.7717,-4.7717,-4.7717,-4.7717,-4.7717,-4.7717,-4.7717,-4.7717,-4.7717,-4.7717,-4.7717,-4.7717,-4.7717,-4.7717,-4.7407,-4.7191,-4.7191,-4.6886,-4.673,-4.6886,-4.7062,-4.7236,-4.7385,-4.7593,-4.7717,-4.7717,-4.7717,-4.7717,-4.7717,-4.7717,-4.7615,-4.7407,-4.7615,-4.7615,-4.7407,-4.7615,-4.7717,-4.7717,-4.7717,-4.7511,-4.7169,-4.7107,-4.6631,0.0,0.0,0.0,0.0,0.0,0.0,0.0,0.0,0.0,0.0,0.0,0.0,0.0,0.0,0.0,0.0,0.0,0.0,0.0,0.0,0.0,0.0,0.0,0.0,0.0,0.0,0.0,0.0,0.0,0.0,-4.9691,-4.9438,-4.9145,-4.8812,-4.8352,-4.7788,-4.7089,-4.6903,-4.6786,-4.6786,-4.6844,-4.6932,-4.7089,-4.7135,-4.7307,-4.7567,-4.7567,-4.8191,-4.9235,-4.9235,-4.9235,-4.9183,-4.862,-4.843,-4.8372,-4.7986,-4.8075,-4.839,-4.8586,-4.8877,-4.9095,-4.8641,-4.8493,-4.8384,-4.7859,-4.7717,-4.7717,-4.7717,-4.7717,-4.7717,-4.7717,-4.7717,-4.7717,-4.7717,-4.7717,-4.7717,-4.7717,-4.7717,-4.7717,-4.7717,-4.7717,-4.7717,-4.7717,-4.7407,-4.7151,-4.7151,-4.6863,-4.6771,-4.7129,-4.7151,-4.732,-4.7657,-4.7717,-4.7717,-4.7717,-4.7717,-4.7717,-4.7717,-4.7717,-4.7717,-4.7717,-4.7717,-4.7717,-4.7717,-4.7717,-4.7717,-4.7717,-4.7615,-4.7385,-4.7039,-4.6926,-4.6418,0.0,0.0,0.0,0.0,0.0,0.0,0.0,0.0,0.0,0.0,0.0,0.0,0.0,0.0,0.0,0.0,0.0,0.0,0.0,0.0,0.0,0.0,0.0,0.0,0.0,0.0,0.0,0.0,0.0,-4.8855,-4.8855,-4.8113,-4.7771,-4.7973,-4.7692,-4.7534,-4.7534,-4.7021,-4.6747,-4.6747,-4.6906,-4.705,-4.7176,-4.738,-4.7537,-4.7648,-4.7648,-4.762,-4.762,-4.7672,-4.7717,-4.7717,-4.7683,-4.771,-4.783,-4.8695,-4.9023,-4.9037,-4.9046,-4.9047,-4.8898,-4.8013,-4.7717,-4.7717,-4.7717,-4.7717,-4.7717,-4.7717,-4.7717,-4.7717,-4.7717,-4.7717,-4.7717,-4.7717,-4.7717,-4.7717,-4.7717,-4.7717,-4.7717,-4.7717,-4.7717,-4.7717,-4.7717,-4.7717,-4.7717,-4.7717,-4.7717,-4.7717,-4.7717,-4.7717,-4.7717,-4.7717,-4.7717,-4.7717,-4.7717,-4.7717,-4.7717,-4.7717,-4.7717,-4.7717,-4.7717,-4.7717,-4.7717,-4.7717,-4.7717,-4.7717,-4.7717,-4.7428,-4.7039,-4.6519,-4.6151,-4.5641,-5.0741,0.0,0.0,0.0,0.0,0.0,0.0,0.0,0.0,0.0,0.0,0.0,0.0,0.0,0.0,0.0,0.0,0.0,0.0,0.0,0.0,0.0,0.0,0.0,0.0,0.0,0.0,0.0,-4.817,-4.8022,-4.8022,-4.7826,-4.7558,-4.7212,-4.6766,-4.6334,-4.5958,-4.5797,-4.5716,-4.5716,-4.6257,-4.6547,-4.669,-4.6455,-4.6446,-4.6584,-4.6203,-4.6035,-4.6121,-4.7224,-4.7885,-4.8155,-4.7509,-4.749,-4.7791,-4.7247,-4.7317,-4.7643,-4.7523,-4.7753,-4.8049,-4.7772,-4.7717,-4.7717,-4.7717,-4.7717,-4.7717,-4.7717,-4.7717,-4.7717,-4.7717,-4.7717,-4.7717,-4.7717,-4.7717,-4.7717,-4.7717,-4.7717,-4.7717,-4.7717,-4.7717,-4.7717,-4.7717,-4.7717,-4.7717,-4.7717,-4.7717,-4.7717,-4.7717,-4.7717,-4.7717,-4.7717,-4.7717,-4.7717,-4.7717,-4.7717,-4.7717,-4.7717,-4.7717,-4.7717,-4.7717,-4.7717,-4.7717,-4.7717,-4.7717,-4.7717,-4.7717,-4.7428,-4.7147,-4.6847,-4.6374,-4.603,0.0,0.0,0.0,0.0,0.0,0.0,0.0,-4.9983,0.0,0.0,0.0,0.0,0.0,0.0,0.0,0.0,0.0,0.0,0.0,0.0,0.0,0.0,0.0,0.0,0.0,0.0,0.0,-4.7753,-4.7717,-4.7717,-4.7717,-4.7717,-4.7572,-4.7236,-4.6519,-4.6067,-4.5975,-4.552,-4.5407,-4.5622,-4.6091,-4.6334,-4.6406,-4.6255,-4.6266,-4.6357,-4.603,-4.5905,-4.5974,-4.6855,-4.7308,-4.7348,-4.7011,-4.7075,-4.7287,-4.6814,-4.684,-4.7107,-4.7196,-4.7428,-4.7717,-4.7717,-4.7717,-4.7717,-4.7717,-4.7717,-4.7717,-4.7717,-4.7717,-4.7717,-4.7717,-4.7717,-4.7717,-4.7717,-4.7717,-4.7717,-4.7717,-4.7717,-4.7717,-4.7717,-4.7717,-4.7717,-4.7717,-4.7717,-4.7717,-4.7717,-4.7717,-4.7717,-4.7717,-4.7717,-4.7717,-4.7717,-4.7717,-4.7717,-4.7717,-4.7717,-4.7717,-4.7717,-4.7717,-4.7717,-4.7717,-4.7717,-4.7717,-4.7717,-4.7717,-4.7636,-4.7533,-4.7385,-4.7143,-4.6819,-4.6392,-4.6196,0.0,0.0,0.0,0.0,0.0,0.0,-4.9796,-4.9796,-4.9796,0.0,0.0,0.0,0.0,0.0,0.0,0.0,0.0,0.0,0.0,0.0,0.0,0.0,0.0,0.0,0.0,-4.7717,-4.7717,-4.7717,-4.7717,-4.7717,-4.7717,-4.7717,-4.7717,-4.7717,-4.6707,-4.643,-4.6908,-4.595,-4.5716,-4.6189,-4.6382,-4.6478,-4.6478,-4.6602,-4.6684,-4.6684,-4.6613,-4.659,-4.6613,-4.6637,-4.6453,-4.6186,-4.6525,-4.6708,-4.6778,-4.7057,-4.7169,-4.7214,-4.7593,-4.7717,-4.7717,-4.7717,-4.7717,-4.7717,-4.7717,-4.7717,-4.7717,-4.7717,-4.7717,-4.7717,-4.7717,-4.7717,-4.7717,-4.7717,-4.7717,-4.7717,-4.7717,-4.7717,-4.7717,-4.7717,-4.7717,-4.7717,-4.7717,-4.7717,-4.7717,-4.7717,-4.7717,-4.7717,-4.7717,-4.7717,-4.7717,-4.7717,-4.7717,-4.7717,-4.7717,-4.7717,-4.7717,-4.7717,-4.7717,-4.7717,-4.7717,-4.7717,-4.7717,-4.7717,-4.7717,-4.7575,-4.7323,-4.7302,-4.7057,-4.6637,-4.6368,-4.6246,0.0,0.0,0.0,0.0,0.0,0.0,-4.7853,-4.7853,-4.7897,0.0,0.0,0.0,0.0,0.0,0.0,0.0,0.0,0.0,0.0,0.0,0.0,0.0,0.0,0.0,0.0,-4.7717,-4.7717,-4.7717,-4.7717,-4.7717,-4.7717,-4.7717,-4.7717,-4.7717,-4.7084,-4.6776,-4.6908,-4.6683,-4.6637,-4.6753,-4.732,-4.7593,-4.7593,-4.7298,-4.7169,-4.7147,-4.676,-4.659,-4.6613,-4.6898,-4.7017,-4.7039,-4.7017,-4.7276,-4.7654,-4.7593,-4.7575,-4.7575,-4.7678,-4.7717,-4.7717,-4.7717,-4.7717,-4.7717,-4.7717,-4.7717,-4.7717,-4.7717,-4.7717,-4.7717,-4.7717,-4.7717,-4.7717,-4.7717,-4.7717,-4.7717,-4.7717,-4.7717,-4.7717,-4.7717,-4.7717,-4.7717,-4.7717,-4.7717,-4.7717,-4.7717,-4.7717,-4.7717,-4.7717,-4.7717,-4.7717,-4.7717,-4.7717,-4.7717,-4.7717,-4.7717,-4.7717,-4.7717,-4.7717,-4.7717,-4.7717,-4.7717,-4.7717,-4.7717,-4.7717,-4.7678,-4.7615,-4.7407,-4.7165,-4.6911,-4.6655,-4.6518,0.0,0.0,0.0,-4.712,0.0,0.0,0.0,-4.7511,0.0,0.0,0.0,0.0,0.0,0.0,0.0,0.0,0.0,0.0,0.0,0.0,0.0,0.0,0.0,0.0,0.0,-4.7717,-4.7717,-4.7717,-4.7717,-4.7717,-4.7717,-4.7717,-4.7717,-4.7717,-4.7191,-4.7039,-4.7298,-4.7022,-4.7022,-4.7302,-4.7636,-4.7819,-4.778,-4.7593,-4.7511,-4.749,-4.7232,-4.7143,-4.7165,-4.732,-4.7428,-4.749,-4.7446,-4.7554,-4.778,-4.7717,-4.7717,-4.7717,-4.7717,-4.7717,-4.7717,-4.7717,-4.7717,-4.7717,-4.7717,-4.7717,-4.7717,-4.7717,-4.7717,-4.7717,-4.7717,-4.7717,-4.7717,-4.7717,-4.7717,-4.7717,-4.7717,-4.7717,-4.7717,-4.7717,-4.7717,-4.7717,-4.7717,-4.7717,-4.7717,-4.7717,-4.7717,-4.7717,-4.7717,-4.7717,-4.7717,-4.7717,-4.7717,-4.7717,-4.7717,-4.7717,-4.7717,-4.7717,-4.7717,-4.7717,-4.7717,-4.7717,-4.7717,-4.7717,-4.7717,-4.7717,-4.7717,-4.7572,-4.7381,-4.7143,-4.6778,-4.6377,0.0,0.0,0.0,0.0,0.0,-4.732,0.0,0.0,0.0,0.0,0.0,0.0,0.0,0.0,0.0,0.0,0.0,0.0,0.0,0.0,0.0,0.0,0.0,0.0,0.0,-4.7717,-4.7717,-4.7717,-4.7717,-4.7717,-4.7717,-4.7717,-4.7717,-4.7717,-4.728,-4.7258,-4.7696,-4.7258,-4.7258,-4.7717,-4.7717,-4.7717,-4.7717,-4.7717,-4.7717,-4.7717,-4.7717,-4.7717,-4.7717,-4.7717,-4.7717,-4.7717,-4.7717,-4.7717,-4.7717,-4.7717,-4.7717,-4.7717,-4.7717,-4.7717,-4.7717,-4.7717,-4.7717,-4.7717,-4.7717,-4.7717,-4.7717,-4.7717,-4.7717,-4.7717,-4.7717,-4.7717,-4.7717,-4.7717,-4.7717,-4.7717,-4.7717,-4.7717,-4.7717,-4.7717,-4.7717,-4.7717,-4.7717,-4.7717,-4.7717,-4.7717,-4.7717,-4.7717,-4.7717,-4.7717,-4.7717,-4.7717,-4.7717,-4.7717,-4.7717,-4.7717,-4.7717,-4.7717,-4.7717,-4.7717,-4.7717,-4.7717,-4.7717,-4.7717,-4.7717,-4.7606,-4.7419,-4.7419,-4.7316,-4.7086,-4.6662,-4.5981,0.0,0.0,0.0,0.0,-4.6847,0.0,0.0,0.0,0.0,0.0,0.0,0.0,0.0,0.0,0.0,0.0,0.0,0.0,0.0,0.0,0.0,0.0,0.0,0.0,0.0,0.0,-4.7717,-4.7717,-4.7717,-4.7717,-4.7717,-4.7717,-4.7717,-4.7717,-4.7636,-4.7636,-4.7717,-4.7636,-4.7636,-4.7717,-4.7717,-4.7717,-4.7717,-4.7717,-4.7717,-4.7717,-4.7717,-4.7717,-4.7717,-4.7717,-4.7717,-4.7717,-4.7717,-4.7717,-4.7717,-4.7717,-4.7717,-4.7717,-4.7717,-4.7717,-4.7717,-4.7717,-4.7717,-4.7717,-4.7717,-4.7717,-4.7717,-4.7717,-4.7717,-4.7717,-4.7717,-4.7717,-4.7717,-4.7717,-4.7717,-4.7717,-4.7717,-4.7717,-4.7717,-4.7717,-4.7717,-4.7717,-4.7717,-4.7717,-4.7717,-4.7717,-4.7717,-4.7717,-4.7717,-4.7717,-4.7717,-4.7717,-4.7717,-4.7717,-4.7717,-4.7717,-4.7717,-4.7717,-4.7717,-4.7717,-4.7717,-4.7717,-4.7717,-4.7717,-4.7717,-4.7271,-4.6359,-4.6359,-4.6359,-4.6316,-4.602,-4.5347,0.0,0.0,0.0,0.0,0.0,0.0,-4.7116,0.0,-4.7334,0.0,0.0,0.0,0.0,0.0,0.0,0.0,0.0,0.0,0.0,0.0,0.0,0.0,0.0,0.0,0.0,0.0,0.0,0.0,0.0,-4.7717,-4.7717,-4.7717,-4.7717,-4.7717,-4.7717,-4.7717,-4.7717,-4.7717,-4.7717,-4.7717,-4.7717,-4.7717,-4.7717,-4.7717,-4.7717,-4.7717,-4.7717,-4.7717,-4.7717,-4.7717,-4.7717,-4.7717,-4.7717,-4.7717,-4.7717,-4.7717,-4.7717,-4.7717,-4.7717,-4.7717,-4.7717,-4.7717,-4.7717,-4.7717,-4.7717,-4.7717,-4.7717,-4.7717,-4.7717,-4.7717,-4.7717,-4.7717,-4.7717,-4.7717,-4.7717,-4.7717,-4.7717,-4.7717,-4.7717,-4.7717,-4.7717,-4.7717,-4.7717,-4.7717,-4.7717,-4.7717,-4.7717,-4.7717,-4.7717,-4.7717,-4.7717,-4.7717,-4.7717,-4.7717,-4.7717,-4.7717,-4.7717,-4.7717,-4.7717,-4.7717,-4.7717,-4.7717,-4.7717,-4.7717,-4.7246,-4.6744,-4.6212,-4.5726,-4.5132,-4.4428,-4.476,-4.4458,-4.6374,0.0,0.0,0.0,0.0,0.0,0.0,0.0,0.0,0.0,0.0,0.0,0.0,0.0,0.0,0.0,0.0,0.0,0.0,0.0,0.0,0.0,0.0,0.0,0.0,0.0,0.0,-4.7717,-4.7717,-4.7717,-4.7717,-4.7717,-4.7717,-4.7717,-4.7717,-4.7717,-4.7717,-4.7717,-4.7717,-4.7717,-4.7717,-4.7717,-4.7717,-4.7717,-4.7717,-4.7717,-4.7717,-4.7717,-4.7717,-4.7717,-4.7717,-4.7717,-4.7717,-4.7717,-4.7717,-4.7717,-4.7717,-4.7717,-4.7717,-4.7717,-4.7717,-4.7717,-4.7717,-4.7717,-4.7717,-4.7717,-4.7717,-4.7717,-4.7717,-4.7717,-4.7717,-4.7717,-4.7717,-4.7717,-4.7717,-4.7717,-4.7717,-4.7717,-4.7717,-4.7717,-4.7515,-4.7373,-4.7373,-4.7554,-4.7645,-4.7409,-4.7373,-4.7301,-4.7083,-4.7047,-4.7047,-4.7047,-4.7047,-4.7138,-4.7355,-4.7373,-4.7482,-4.7699,-4.7717,-4.7609,-4.7391,-4.7373,-4.7283,-4.7065,-4.6468,-4.5967,-4.5525,-4.4908,-4.396,-4.2788,-4.3603,-4.351,0.0,0.0,0.0,-4.6542,0.0,0.0,0.0,0.0,-4.7048,0.0,0.0,0.0,0.0,0.0,0.0,-4.7717,0.0,0.0,0.0,0.0,0.0,0.0,0.0,0.0,0.0,0.0,0.0,-4.7717,-4.7717,-4.7717,-4.7717,-4.7717,-4.7717,-4.7717,-4.7717,-4.7717,-4.7717,-4.7717,-4.7717,-4.7717,-4.7717,-4.7717,-4.7717,-4.7717,-4.7717,-4.7717,-4.7717,-4.7717,-4.7717,-4.7717,-4.7717,-4.7717,-4.7717,-4.7717,-4.7717,-4.7717,-4.7717,-4.7717,-4.7717,-4.7717,-4.7717,-4.7717,-4.7717,-4.7717,-4.7717,-4.7717,-4.7717,-4.7717,-4.7717,-4.7717,-4.7717,-4.7717,-4.7717,-4.7717,-4.7717,-4.7717,-4.7717,-4.7717,-4.7717,-4.7717,-4.7083,-4.654,-4.654,-4.7192,-4.7446,-4.6667,-4.654,-4.6269,-4.5472,-4.5381,-4.5381,-4.5381,-4.5381,-4.5689,-4.6468,-4.654,-4.6866,-4.7663,-4.7717,-4.7355,-4.6576,-4.654,-4.6178,-4.5399,-4.5345,-4.4865,-4.3886,-4.3644,-4.2985,-4.1966,-4.277,-4.2586,0.0,0.0,-4.6447,-4.6368,0.0,0.0,0.0,0.0,0.0,0.0,0.0,0.0,0.0,0.0,0.0,-4.7717,0.0,0.0,0.0,0.0,0.0,0.0,0.0,0.0,0.0,0.0,0.0,-4.7717,-4.7717,-4.7717,0.0,-4.7717,-4.7717,-4.7717,-4.7717,-4.7717,-4.7717,-4.7717,-4.7717,-4.7717,-4.7717,-4.7717,-4.7717,-4.7717,-4.7717,-4.7717,-4.7717,-4.7717,-4.7717,-4.7717,-4.7717,-4.7717,-4.7717,-4.7717,-4.7717,-4.7717,-4.7717,-4.7717,-4.7717,-4.7717,-4.7717,-4.7717,-4.7717,-4.7717,-4.7717,-4.7717,-4.7717,-4.7717,-4.7717,-4.7717,-4.7717,-4.7717,-4.7717,-4.7717,-4.7717,-4.7717,-4.7717,-4.7717,-4.7554,-4.7011,-4.6703,-4.6341,-4.5798,-4.5924,-4.6015,-4.5743,-4.5707,-4.5617,-4.5345,-4.5291,-4.5291,-4.5291,-4.5291,-4.5417,-4.5689,-4.5707,-4.5816,-4.6087,-4.6106,-4.5997,-4.5725,-4.5707,-4.558,-4.5309,-4.4784,-4.4269,-4.3796,-4.3071,-4.2433,-4.1913,-4.2048,-4.1939,-4.659,-4.6518,0.0,-4.6246,-4.6398,0.0,-4.659,0.0,0.0,0.0,0.0,0.0,0.0,0.0,0.0,-4.7717,-4.7717,0.0,0.0,-4.7717,0.0,0.0,0.0,0.0,0.0,0.0,-4.7717,-4.7717,-4.7717,-4.7717,0.0,0.0,-4.7717,-4.7717,-4.7717,-4.7717,-4.7717,-4.7717,-4.7717,-4.7717,-4.7717,-4.7717,-4.7717,-4.7717,-4.7717,-4.7717,-4.7717,-4.7717,-4.7717,-4.7717,-4.7717,-4.7717,-4.7717,-4.7536,-4.7319,-4.7588,-4.7717,-4.7717,-4.7717,-4.7717,-4.7717,-4.7717,-4.7717,-4.7717,-4.7717,-4.7717,-4.7717,-4.7717,-4.7717,-4.7717,-4.7717,-4.7717,-4.7717,-4.7717,-4.7717,-4.7606,-4.7355,-4.7283,-4.7047,-4.6232,-4.5852,-4.549,-4.4965,-4.4639,-4.453,-4.482,-4.4874,-4.4765,-4.4476,-4.444,-4.444,-4.444,-4.444,-4.4548,-4.4838,-4.5146,-4.5291,-4.5291,-4.5291,-4.5164,-4.4892,-4.4874,-4.4874,-4.4874,-4.4077,-4.3727,-4.3796,-4.2803,-4.2145,-4.1913,-4.1697,-4.1604]},{"header":{"parameterUnit":"m.s-1","parameterCategory":1,"la1":30.6,"la2":29.2853,"lo1":-89.7004,"lo2":-87.6739,"dy":0.0162,"dx":0.0183,"nx":112,"ny":82,"refTime":"2023-08-05T06:00:00:Z","depth":0,"parameterNumber":3,"parameterNumberName":"V-component_of_WINDS"},"data":[0.0,0.0,0.0,0.0,0.0,0.0,0.0,0.0,0.0,0.0,0.0,0.0,0.0,0.0,0.0,0.0,0.0,0.0,0.0,0.0,0.0,0.0,0.0,0.0,0.0,0.0,0.0,0.0,0.0,0.0,0.0,0.0,0.0,0.0,0.0,0.0,0.0,0.0,0.0,0.0,0.0,0.0,0.0,0.0,0.0,0.0,0.0,0.0,0.0,0.0,0.0,0.0,0.0,0.0,0.0,0.0,0.0,0.0,0.0,0.0,0.0,0.0,0.0,0.0,0.0,0.0,0.0,0.0,0.0,0.0,0.0,0.0,0.0,0.0,0.0,0.0,0.0,0.0,0.0,0.0,0.0,0.0,0.0,0.0,0.0,0.0,0.0,0.0,0.0,0.0,0.0,-1.255,-1.2604,-1.2876,-1.3428,-1.3428,-1.3645,-1.4196,0.0,0.0,0.0,0.0,0.0,0.0,0.0,0.0,0.0,0.0,0.0,0.0,0.0,0.0,0.0,0.0,0.0,0.0,0.0,0.0,0.0,0.0,0.0,0.0,0.0,0.0,0.0,0.0,0.0,0.0,0.0,0.0,0.0,0.0,0.0,0.0,0.0,0.0,0.0,0.0,0.0,0.0,0.0,0.0,0.0,0.0,0.0,0.0,0.0,0.0,0.0,0.0,0.0,0.0,0.0,0.0,0.0,0.0,0.0,0.0,0.0,0.0,0.0,0.0,0.0,0.0,0.0,0.0,0.0,0.0,0.0,0.0,0.0,0.0,0.0,0.0,0.0,0.0,0.0,0.0,0.0,0.0,0.0,0.0,0.0,0.0,0.0,0.0,0.0,0.0,0.0,0.0,0.0,0.0,0.0,0.0,0.0,0.0,0.0,0.0,0.0,0.0,0.0,0.0,-1.2604,-1.3098,-1.3645,-1.3975,-1.4083,-1.4083,-1.4083,-1.4191,0.0,0.0,0.0,0.0,0.0,0.0,0.0,0.0,0.0,0.0,0.0,0.0,0.0,0.0,0.0,0.0,0.0,0.0,0.0,0.0,0.0,0.0,0.0,0.0,0.0,0.0,0.0,0.0,0.0,0.0,0.0,0.0,0.0,0.0,0.0,0.0,0.0,0.0,0.0,0.0,0.0,0.0,0.0,0.0,0.0,0.0,0.0,0.0,0.0,0.0,0.0,0.0,0.0,0.0,0.0,0.0,0.0,0.0,0.0,0.0,0.0,0.0,0.0,0.0,0.0,0.0,0.0,0.0,0.0,0.0,0.0,0.0,0.0,0.0,0.0,0.0,0.0,0.0,0.0,0.0,0.0,0.0,0.0,0.0,0.0,0.0,0.0,0.0,0.0,0.0,0.0,0.0,0.0,0.0,0.0,0.0,0.0,0.0,0.0,0.0,0.0,0.0,0.0,-1.3369,-1.3483,-1.3753,-1.4029,-1.4407,-1.4874,-1.4874,-1.5089,-1.5517,-1.5143,0.0,0.0,0.0,0.0,0.0,0.0,0.0,0.0,0.0,0.0,0.0,0.0,0.0,0.0,0.0,0.0,0.0,0.0,0.0,0.0,0.0,0.0,0.0,0.0,0.0,0.0,0.0,0.0,0.0,0.0,0.0,0.0,0.0,0.0,0.0,0.0,0.0,0.0,0.0,0.0,0.0,0.0,0.0,0.0,0.0,0.0,0.0,0.0,0.0,0.0,0.0,0.0,0.0,0.0,0.0,0.0,0.0,0.0,0.0,0.0,0.0,0.0,0.0,0.0,0.0,0.0,0.0,0.0,0.0,0.0,0.0,0.0,0.0,0.0,0.0,0.0,0.0,0.0,0.0,0.0,0.0,0.0,0.0,0.0,0.0,0.0,0.0,0.0,0.0,0.0,0.0,0.0,0.0,0.0,0.0,0.0,0.0,0.0,0.0,0.0,0.0,0.0,-1.4671,-1.4778,-1.4778,-1.4778,-1.5035,-1.5719,-1.5773,-1.6039,-1.6677,-1.6146,0.0,0.0,0.0,0.0,0.0,0.0,0.0,0.0,0.0,0.0,0.0,0.0,0.0,0.0,0.0,0.0,0.0,0.0,0.0,0.0,0.0,0.0,0.0,0.0,0.0,0.0,0.0,0.0,0.0,0.0,0.0,0.0,0.0,0.0,0.0,0.0,0.0,0.0,0.0,0.0,0.0,0.0,0.0,0.0,0.0,0.0,0.0,0.0,0.0,0.0,0.0,0.0,0.0,0.0,0.0,0.0,0.0,0.0,0.0,0.0,0.0,0.0,0.0,0.0,0.0,0.0,0.0,0.0,0.0,0.0,0.0,0.0,0.0,0.0,0.0,0.0,0.0,0.0,0.0,0.0,0.0,0.0,0.0,0.0,0.0,0.0,0.0,0.0,0.0,0.0,0.0,0.0,0.0,0.0,0.0,0.0,0.0,0.0,0.0,0.0,0.0,0.0,-1.6039,-1.6518,-1.6518,-1.6518,-1.6571,-1.6624,-1.6624,-1.6624,-1.6677,-1.6624,0.0,0.0,0.0,0.0,0.0,0.0,0.0,0.0,0.0,0.0,0.0,0.0,0.0,0.0,0.0,0.0,0.0,0.0,0.0,0.0,0.0,0.0,0.0,0.0,0.0,0.0,0.0,0.0,0.0,0.0,0.0,0.0,0.0,0.0,0.0,0.0,0.0,0.0,0.0,0.0,0.0,0.0,0.0,0.0,0.0,0.0,0.0,0.0,0.0,0.0,0.0,0.0,0.0,0.0,0.0,0.0,0.0,0.0,0.0,0.0,0.0,0.0,0.0,0.0,0.0,0.0,0.0,0.0,0.0,0.0,0.0,0.0,0.0,0.0,0.0,0.0,0.0,0.0,0.0,0.0,0.0,0.0,0.0,0.0,0.0,0.0,0.0,0.0,0.0,0.0,0.0,0.0,0.0,0.0,0.0,0.0,0.0,0.0,0.0,0.0,0.0,0.0,-1.6518,-1.6677,0.0,-1.6677,-1.6942,-1.7463,-1.7516,-1.7733,-1.8265,0.0,0.0,0.0,0.0,0.0,0.0,0.0,0.0,0.0,0.0,0.0,0.0,0.0,0.0,0.0,0.0,0.0,0.0,0.0,0.0,0.0,0.0,0.0,0.0,0.0,0.0,0.0,0.0,0.0,0.0,0.0,0.0,0.0,0.0,0.0,0.0,0.0,0.0,0.0,0.0,0.0,0.0,0.0,0.0,0.0,0.0,0.0,0.0,0.0,0.0,0.0,0.0,0.0,0.0,0.0,0.0,0.0,0.0,0.0,0.0,0.0,0.0,0.0,0.0,0.0,0.0,0.0,0.0,0.0,0.0,0.0,0.0,0.0,0.0,0.0,0.0,0.0,0.0,0.0,0.0,0.0,0.0,0.0,0.0,0.0,0.0,0.0,0.0,0.0,0.0,0.0,0.0,0.0,0.0,0.0,0.0,0.0,0.0,0.0,0.0,0.0,0.0,-1.7094,-1.7364,-1.7523,0.0,-1.7523,-1.7786,-1.8363,-1.8415,-1.8684,-1.9272,0.0,0.0,0.0,0.0,0.0,0.0,0.0,0.0,0.0,0.0,0.0,0.0,0.0,0.0,0.0,0.0,0.0,0.0,0.0,0.0,0.0,0.0,0.0,0.0,0.0,0.0,0.0,0.0,0.0,0.0,0.0,0.0,0.0,0.0,0.0,0.0,0.0,0.0,0.0,0.0,0.0,0.0,0.0,0.0,0.0,0.0,0.0,0.0,0.0,0.0,0.0,0.0,0.0,0.0,0.0,0.0,0.0,0.0,0.0,0.0,0.0,0.0,0.0,0.0,0.0,0.0,0.0,0.0,0.0,0.0,0.0,0.0,0.0,0.0,0.0,0.0,0.0,0.0,0.0,0.0,0.0,0.0,0.0,0.0,0.0,0.0,0.0,0.0,0.0,0.0,0.0,0.0,0.0,0.0,0.0,0.0,0.0,0.0,0.0,0.0,0.0,0.0,-1.7989,-1.8788,-1.9279,-1.9279,-1.9279,-1.9279,-1.9279,-1.9279,-1.9279,0.0,0.0,0.0,0.0,0.0,0.0,0.0,0.0,0.0,0.0,0.0,0.0,0.0,0.0,0.0,0.0,0.0,0.0,0.0,0.0,0.0,0.0,0.0,0.0,0.0,0.0,0.0,0.0,0.0,0.0,0.0,0.0,0.0,0.0,0.0,0.0,0.0,0.0,0.0,0.0,0.0,0.0,0.0,0.0,0.0,0.0,0.0,0.0,0.0,0.0,0.0,0.0,0.0,0.0,0.0,0.0,0.0,0.0,0.0,0.0,0.0,0.0,0.0,0.0,0.0,0.0,0.0,0.0,0.0,0.0,0.0,0.0,0.0,0.0,0.0,0.0,0.0,0.0,0.0,0.0,0.0,0.0,0.0,0.0,0.0,0.0,0.0,0.0,0.0,0.0,0.0,0.0,0.0,0.0,0.0,0.0,0.0,0.0,0.0,0.0,0.0,0.0,0.0,-1.89,-1.9116,-1.9279,-1.9279,-1.9279,-1.9279,-1.9279,-1.9279,-1.9279,-1.9279,0.0,0.0,0.0,0.0,0.0,0.0,0.0,0.0,0.0,0.0,0.0,0.0,0.0,0.0,0.0,0.0,0.0,0.0,0.0,0.0,0.0,0.0,0.0,0.0,0.0,0.0,0.0,0.0,0.0,0.0,0.0,0.0,0.0,0.0,0.0,0.0,0.0,0.0,0.0,0.0,0.0,0.0,0.0,0.0,0.0,0.0,0.0,0.0,0.0,0.0,0.0,0.0,0.0,0.0,0.0,0.0,0.0,0.0,0.0,0.0,0.0,0.0,0.0,0.0,0.0,0.0,0.0,0.0,0.0,0.0,0.0,0.0,0.0,0.0,0.0,0.0,0.0,0.0,0.0,0.0,0.0,0.0,0.0,0.0,0.0,0.0,0.0,0.0,0.0,0.0,0.0,0.0,0.0,0.0,0.0,0.0,0.0,0.0,0.0,0.0,0.0,0.0,-1.9279,-1.9279,-1.9279,-1.9279,-1.9279,-1.9279,-1.9279,-1.9279,-1.9279,-1.9279,0.0,0.0,0.0,0.0,0.0,0.0,0.0,0.0,0.0,0.0,0.0,0.0,0.0,0.0,0.0,0.0,0.0,0.0,0.0,0.0,0.0,0.0,0.0,0.0,0.0,0.0,0.0,0.0,0.0,0.0,0.0,0.0,0.0,0.0,0.0,0.0,0.0,0.0,0.0,0.0,0.0,0.0,0.0,0.0,0.0,0.0,0.0,0.0,0.0,0.0,0.0,0.0,0.0,0.0,0.0,0.0,0.0,0.0,0.0,0.0,0.0,0.0,0.0,0.0,0.0,0.0,0.0,0.0,0.0,0.0,0.0,0.0,0.0,0.0,0.0,0.0,0.0,0.0,0.0,0.0,0.0,0.0,0.0,0.0,0.0,0.0,0.0,0.0,0.0,0.0,0.0,0.0,0.0,0.0,0.0,0.0,0.0,0.0,0.0,0.0,0.0,0.0,-1.9279,-1.9279,-1.9279,-1.9279,-1.9279,-1.9279,-1.9279,-1.9279,-1.9279,-1.9279,0.0,0.0,0.0,0.0,0.0,0.0,0.0,0.0,0.0,0.0,0.0,0.0,0.0,0.0,0.0,0.0,0.0,0.0,0.0,0.0,0.0,0.0,0.0,0.0,0.0,0.0,0.0,0.0,0.0,0.0,0.0,0.0,0.0,0.0,0.0,0.0,0.0,0.0,0.0,0.0,0.0,0.0,0.0,0.0,0.0,0.0,0.0,0.0,0.0,0.0,0.0,0.0,0.0,0.0,0.0,0.0,0.0,0.0,0.0,0.0,-2.3885,0.0,0.0,0.0,0.0,0.0,0.0,0.0,0.0,0.0,0.0,0.0,0.0,0.0,0.0,0.0,0.0,0.0,0.0,0.0,0.0,0.0,0.0,0.0,0.0,0.0,0.0,0.0,0.0,0.0,0.0,0.0,0.0,0.0,0.0,0.0,0.0,0.0,0.0,0.0,0.0,0.0,-1.9279,-1.9279,-1.9279,-1.9279,-1.9279,-1.9279,-1.9279,-1.9279,-1.9279,-1.9279,-1.9279,0.0,0.0,0.0,0.0,0.0,0.0,0.0,0.0,0.0,0.0,0.0,0.0,0.0,0.0,0.0,0.0,0.0,0.0,0.0,0.0,0.0,0.0,0.0,0.0,0.0,0.0,0.0,0.0,0.0,0.0,0.0,0.0,0.0,0.0,0.0,0.0,0.0,0.0,0.0,0.0,0.0,0.0,0.0,0.0,0.0,0.0,0.0,0.0,0.0,0.0,0.0,0.0,0.0,0.0,0.0,0.0,0.0,0.0,0.0,0.0,-2.5094,0.0,0.0,0.0,0.0,0.0,0.0,0.0,0.0,0.0,0.0,0.0,0.0,0.0,0.0,0.0,0.0,0.0,0.0,0.0,0.0,0.0,0.0,0.0,0.0,0.0,0.0,0.0,0.0,0.0,0.0,0.0,0.0,0.0,0.0,0.0,0.0,0.0,0.0,0.0,0.0,-1.958,-1.9566,-1.95,-1.9346,-1.9279,-1.9279,-1.9279,-1.9279,-1.9279,-1.9279,-1.9279,0.0,0.0,0.0,0.0,0.0,0.0,0.0,0.0,0.0,0.0,0.0,0.0,0.0,0.0,0.0,0.0,0.0,0.0,0.0,0.0,0.0,0.0,0.0,0.0,0.0,0.0,0.0,0.0,0.0,0.0,0.0,0.0,0.0,0.0,0.0,0.0,0.0,0.0,0.0,0.0,0.0,0.0,0.0,0.0,0.0,0.0,0.0,0.0,0.0,0.0,0.0,0.0,0.0,-2.398,-2.5444,-2.5846,-2.7138,-2.7885,-2.8043,-2.7727,-2.7338,-2.677,-2.5384,0.0,0.0,0.0,0.0,0.0,0.0,0.0,0.0,0.0,0.0,0.0,0.0,0.0,0.0,0.0,0.0,0.0,0.0,0.0,0.0,0.0,0.0,0.0,0.0,-1.9873,-1.9729,-1.9291,0.0,0.0,0.0,0.0,0.0,0.0,0.0,0.0,0.0,0.0,0.0,-1.9879,-1.9842,-1.974,-1.9469,-1.9448,-1.9412,-1.9412,-1.9308,-1.9279,-1.9279,-1.9279,-1.9279,0.0,0.0,0.0,0.0,0.0,0.0,0.0,0.0,0.0,0.0,0.0,0.0,0.0,0.0,0.0,0.0,0.0,0.0,0.0,0.0,0.0,0.0,0.0,0.0,0.0,0.0,0.0,0.0,0.0,0.0,0.0,0.0,-1.7521,-1.7485,0.0,0.0,0.0,0.0,0.0,0.0,0.0,0.0,0.0,0.0,0.0,0.0,0.0,-1.8239,-1.8239,-2.1268,-2.293,-2.3286,-2.6474,-2.8167,-2.8514,-2.8696,-2.8842,-2.8842,-2.8788,0.0,-2.8536,-2.7185,0.0,0.0,0.0,0.0,0.0,0.0,0.0,0.0,0.0,0.0,0.0,0.0,0.0,0.0,0.0,0.0,0.0,0.0,0.0,0.0,0.0,0.0,-2.022,-2.0213,-2.0213,-2.0307,0.0,-2.0047,-1.9724,-1.978,-1.9778,0.0,0.0,0.0,0.0,0.0,0.0,0.0,-2.0124,-2.0172,-2.0157,-2.0113,-1.9864,-1.9749,-1.9749,-1.9492,-1.9279,-1.9279,-1.9279,-1.9279,-1.9279,-1.9279,0.0,0.0,0.0,0.0,0.0,0.0,0.0,0.0,0.0,0.0,0.0,0.0,0.0,0.0,0.0,0.0,0.0,0.0,0.0,0.0,0.0,0.0,0.0,0.0,0.0,0.0,0.0,0.0,0.0,-1.7485,-1.7485,-1.7485,-1.7485,-1.7485,0.0,0.0,0.0,0.0,0.0,0.0,0.0,0.0,0.0,-1.8588,-1.8741,-1.9242,-2.0209,-2.2512,-2.42,-2.5234,-2.7443,-2.8696,-2.8984,-2.8984,-2.8984,-2.8984,-2.8984,-2.8984,-2.8925,-2.7564,-2.7444,-2.7942,0.0,0.0,0.0,0.0,-2.4186,-2.4062,-2.3325,-2.3076,-2.3014,-2.2396,0.0,0.0,0.0,0.0,0.0,0.0,0.0,0.0,0.0,0.0,-2.0328,-2.0493,-2.0493,-2.0608,-2.0902,-2.0744,-2.0607,0.0,-2.0603,-2.0603,-2.0723,0.0,0.0,0.0,0.0,-2.072,-2.053,-2.0453,-2.0387,-2.0205,-2.0106,-1.9952,-1.983,-1.9683,-1.9522,-1.9286,-1.9279,-1.9279,-1.9279,-1.9279,-1.9279,0.0,0.0,0.0,0.0,0.0,0.0,0.0,0.0,0.0,0.0,0.0,0.0,0.0,0.0,0.0,0.0,0.0,0.0,0.0,0.0,0.0,0.0,0.0,0.0,0.0,0.0,0.0,0.0,-1.7485,-1.7485,-1.7485,-1.7539,-1.7581,0.0,0.0,0.0,0.0,0.0,0.0,-1.8507,-1.8637,-1.8785,-1.8976,-1.9605,-2.0513,-2.1678,-2.3694,-2.5293,-2.652,-2.7951,-2.8746,-2.8984,-2.8984,-2.8984,-2.8984,-2.8984,-2.8984,-2.8916,-2.7933,-2.8122,-2.8856,-2.7504,-2.7013,-2.6892,-2.5851,-2.5485,-2.5301,-2.4,-2.3574,-2.3504,-2.2834,-2.1908,-2.1109,-2.1109,0.0,0.0,0.0,0.0,-2.0426,-2.0124,-2.0275,-2.0565,-2.0788,-2.0838,-2.0902,-2.1146,-2.1211,-2.1211,0.0,-2.1211,-2.1211,-2.1211,0.0,0.0,0.0,0.0,-2.1123,-2.0874,-2.0852,-2.0757,-2.0453,-2.0358,-2.023,-1.9916,-1.9867,-1.9676,-1.9294,-1.9279,-1.9279,-1.9279,-1.9279,-1.9279,-1.9279,0.0,0.0,0.0,0.0,0.0,0.0,0.0,0.0,0.0,0.0,0.0,0.0,0.0,0.0,0.0,0.0,0.0,0.0,0.0,0.0,0.0,0.0,0.0,0.0,0.0,0.0,0.0,0.0,0.0,-1.7485,-1.7702,0.0,0.0,0.0,0.0,-1.8269,-1.8588,-1.8883,-1.9144,-1.9462,-1.9581,-1.9591,-2.1112,-2.1867,-2.1616,-2.4778,-2.6399,-2.652,-2.8182,-2.8984,-2.8984,-2.8984,-2.8984,-2.8984,-2.8984,-2.8984,-2.8984,-2.8925,-2.8925,-2.8856,-2.7504,-2.7013,-2.7013,-2.6892,-2.6892,-2.671,-2.5362,-2.4871,-2.4502,-2.2034,-2.1172,-2.1109,-2.1109,-2.1096,0.0,0.0,-2.0923,-2.1096,-2.0722,-2.0901,-2.1153,-2.1153,-2.1153,-2.1211,-2.1211,-2.1211,-2.1211,0.0,-2.1211,-2.1211,-2.1211,0.0,-2.1211,-2.1211,-2.1211,-2.1203,-2.1189,-2.1181,-2.1181,-2.1159,-2.0881,-2.0567,-2.0183,-1.9938,-1.9676,-1.9294,-1.9279,-1.9279,-1.9279,-1.9279,-1.9279,-1.9279,-1.9279,0.0,0.0,0.0,0.0,0.0,0.0,0.0,0.0,0.0,0.0,0.0,0.0,0.0,0.0,0.0,0.0,0.0,0.0,0.0,0.0,0.0,0.0,0.0,0.0,0.0,0.0,0.0,0.0,-1.8004,-1.8088,0.0,-1.8143,-1.8569,-1.8908,-1.8908,-1.9325,-1.9663,-1.9758,-1.9884,-2.0422,-2.151,-2.2139,-2.3248,-2.504,-2.6208,-2.7263,-2.8122,-2.8737,-2.8984,-2.8984,-2.8984,-2.8984,-2.8984,-2.8984,-2.8984,-2.8984,-2.8984,-2.8984,-2.8925,-2.8489,-2.8301,-2.8182,-2.7323,-2.7013,-2.6831,-2.5485,-2.4994,-2.4687,-2.2959,-2.1783,-2.1172,-2.1362,-2.1418,-2.1427,-2.1376,-2.1572,-2.1665,-2.1147,-2.1241,-2.1467,-2.1262,-2.1211,-2.1211,-2.1211,-2.1211,-2.1211,-2.1211,-2.1211,-2.1211,-2.1211,-2.1211,-2.1211,-2.1211,-2.1211,-2.1211,-2.1211,-2.1211,-2.1211,-2.1211,-2.1101,-2.0903,-2.0574,-2.0252,-1.993,-1.9661,-1.9448,-1.9279,-1.9279,-1.9279,-1.9279,-1.9279,-1.9279,-1.9279,0.0,0.0,0.0,0.0,0.0,0.0,0.0,0.0,0.0,0.0,0.0,0.0,0.0,0.0,0.0,0.0,0.0,0.0,0.0,0.0,0.0,0.0,0.0,0.0,0.0,0.0,-1.8294,-1.8294,-1.8372,-1.8488,-1.8606,-1.9031,-1.9374,-1.9506,-1.9998,-2.0297,-2.0297,-2.0361,-2.1102,-2.2577,-2.3131,-2.4486,-2.6831,-2.7383,-2.8122,-2.8984,-2.9122,-2.9177,-2.9186,-2.9324,-2.9397,-2.9397,-2.9397,-2.9397,-2.9397,-2.9397,-2.9314,-2.9168,-2.9039,-2.8984,-2.8856,-2.8002,-2.7693,-2.7444,-2.5607,-2.444,-2.3574,-2.2709,-2.1846,-2.1172,-2.1355,-2.1425,-2.1447,-2.1493,-2.1733,-2.185,-2.1438,-2.1545,-2.1642,-2.1423,-2.1291,-2.1211,-2.1211,-2.1211,-2.1211,-2.1211,-2.1211,-2.1211,-2.1211,-2.1211,-2.1211,-2.1211,-2.1211,-2.1211,-2.1211,-2.1211,-2.1211,-2.1211,-2.1211,-2.1079,-2.075,-2.0523,-2.0259,-1.9945,-1.9616,-1.9492,-1.9492,-1.9382,-1.9279,-1.9279,-1.968,-1.9879,-1.9983,0.0,0.0,0.0,0.0,0.0,0.0,0.0,0.0,0.0,0.0,0.0,0.0,0.0,0.0,0.0,0.0,0.0,0.0,0.0,0.0,0.0,0.0,0.0,-1.8403,-1.8312,-1.8318,-1.8318,-1.8541,-1.8823,-1.9193,-1.9422,-1.9775,-2.0106,-2.0418,-2.0609,-2.0609,-2.0919,-2.1601,-2.2577,-2.4186,-2.5485,-2.652,-2.8191,-2.9003,-2.9003,-2.9397,-2.9589,-2.9599,-3.0011,-3.0204,-3.0204,-3.0204,-3.0204,-3.0204,-3.0204,-2.9956,-2.9553,-2.9159,-2.8993,-2.8984,-2.8984,-2.8984,-2.8558,-2.5973,-2.3395,-2.1235,-2.1235,-2.1172,-2.1172,-2.1109,-2.1109,-2.1109,-2.1172,-2.1395,-2.1656,-2.1649,-2.1697,-2.1723,-2.1715,-2.1459,-2.1225,-2.1225,-2.1218,-2.1211,-2.1211,-2.1211,-2.1211,-2.1211,-2.1211,-2.1211,-2.1211,-2.1211,0.0,-2.1211,-2.1211,-2.1211,-2.1211,-2.1211,-2.1079,-2.0764,-2.0728,-2.0589,-2.0205,-1.9938,-1.9815,-1.9801,-1.9492,-1.9279,-1.9279,-2.0328,-2.1038,-2.1336,0.0,0.0,0.0,0.0,0.0,0.0,0.0,0.0,0.0,0.0,0.0,0.0,0.0,0.0,0.0,0.0,0.0,0.0,0.0,0.0,0.0,0.0,-1.9,-1.8613,-1.8986,-1.9171,-1.8924,-1.8927,-1.9033,-1.9091,-1.961,-1.9979,-2.0106,-2.0609,-2.0982,-2.0982,-2.1046,-2.1664,-2.2952,-2.4317,-2.5607,-2.6831,-2.8579,-2.9415,-2.9415,-2.9828,-3.003,-3.003,-3.0149,-3.0204,-3.0204,-3.0204,-3.0204,-3.0204,-3.0204,-3.013,-2.9984,-2.9571,-2.9232,-2.8984,-2.8984,-2.837,-2.7444,-2.671,-2.5362,-2.3946,-2.3946,-2.3325,-2.2396,-2.1664,-2.1481,-2.1544,-2.2048,-2.2236,-2.2302,-2.232,-2.2316,-2.2315,-2.2103,-2.1803,-2.1562,-2.1562,-2.1379,-2.1211,-2.1211,-2.1211,-2.1211,-2.1211,-2.1211,-2.1211,-2.1211,-2.1211,0.0,-2.1211,-2.1211,-2.1211,-2.1211,-2.1211,-2.1174,-2.1086,-2.0859,-2.0589,-2.0205,-1.9938,-1.9713,-1.947,-1.9323,-1.9279,-1.9279,-2.0328,-2.1438,0.0,0.0,0.0,0.0,0.0,0.0,0.0,0.0,0.0,0.0,0.0,0.0,0.0,0.0,0.0,0.0,0.0,0.0,0.0,0.0,0.0,0.0,-1.9654,-1.9598,-1.9316,-1.9484,-1.9514,-1.9328,-1.9328,-1.9328,-1.9526,-1.9851,-2.0234,-2.0482,-2.0862,-2.1109,-2.1109,-2.1109,-2.1971,-2.3814,-2.482,-2.6204,-2.8051,-2.9252,-2.9837,-2.9837,-3.025,-3.0442,-3.0451,-3.0616,-3.069,-3.069,-3.069,-3.069,-3.069,-3.069,-3.0598,0.0,0.0,0.0,0.0,0.0,-2.8423,-2.7227,-2.7073,-2.6095,-2.4994,-2.4994,-2.4502,-2.3698,-2.2591,-2.2348,-2.2411,-2.223,-2.2362,-2.2625,-2.2631,-2.2602,-2.2579,-2.2403,-2.2125,-2.1898,-2.1898,-2.1642,-2.1415,-2.1415,-2.1306,0.0,-2.1211,-2.1211,-2.1211,-2.1211,-2.1211,-2.1211,-2.1211,-2.1211,-2.1211,-2.1211,-2.1211,-2.1211,-2.1211,-2.1035,0.0,0.0,0.0,-1.9755,-1.9294,-1.9279,0.0,0.0,0.0,-2.2232,-2.3583,0.0,0.0,0.0,-2.6747,-2.7164,0.0,0.0,0.0,0.0,0.0,0.0,0.0,0.0,0.0,0.0,0.0,0.0,0.0,0.0,0.0,0.0,-2.0361,-2.0418,-2.017,-1.9903,-1.9705,-1.9641,-1.9641,-1.9775,-2.0043,-2.0106,-2.0418,-2.0982,-2.1109,-2.1109,-2.1109,0.0,0.0,0.0,0.0,-2.6906,-2.9392,-2.9995,-3.0268,-3.0268,-3.0671,-3.0855,-3.0873,-3.1222,-3.1377,-3.1377,-3.1377,-3.1377,-3.1377,-3.1377,-3.1167,-3.0809,-3.0369,-3.0204,-3.0158,-2.9782,-2.8885,-2.7833,-2.7453,0.0,0.0,-2.5309,-2.524,-2.4994,-2.369,-2.3512,-2.3512,-2.2223,-2.2292,-2.2731,-2.2675,-2.2646,-2.2681,-2.2681,-2.2454,-2.2235,-2.2235,-2.1979,-2.1752,-2.1752,-2.1489,-2.1269,-2.1269,-2.1233,-2.1211,-2.1211,-2.1211,-2.1211,-2.1211,-2.1211,-2.1211,-2.1211,0.0,0.0,-2.1211,-2.1211,-2.1057,-2.0691,-2.0325,-1.9872,-1.9301,-1.9279,-1.9828,-2.0936,-2.1988,-2.3194,-2.4541,-2.5897,-2.6651,-2.69,-2.7167,-2.7309,0.0,0.0,0.0,0.0,0.0,0.0,0.0,0.0,0.0,0.0,0.0,0.0,0.0,0.0,0.0,-2.0106,-2.017,-2.0297,-2.0482,-2.0482,-2.0291,-2.0043,-1.9979,-2.0043,-2.0106,-2.0354,-2.0545,-2.0672,-2.0919,-2.1109,-2.1109,-2.1109,-2.1963,-2.3914,-2.5109,-2.6602,-2.8478,-2.9959,-3.0671,-3.0681,0.0,0.0,-3.1267,-3.1341,-3.1377,-3.1377,-3.1377,-3.1377,-3.1377,-3.1377,-3.1332,-3.1194,-3.0479,-3.0204,-3.0195,-3.0112,-2.9952,-2.9641,-2.9225,-2.8958,-2.8471,-2.7055,-2.6589,-2.6338,-2.5056,-2.4687,0.0,-2.3829,-2.3705,-2.3713,-2.3168,-2.2999,-2.3018,-2.3018,-2.2769,-2.2535,-2.2535,-2.2301,-2.2089,-2.2089,-2.1825,-2.1606,-2.1606,-2.1386,-2.1211,-2.1211,-2.1211,-2.1211,-2.1211,-2.1211,-2.1211,-2.1211,-2.1211,-2.1211,-2.1211,-2.1211,-2.0955,-2.0307,-1.9784,-1.9403,-1.9279,-1.9279,-1.9931,-2.1183,-2.2291,-2.3493,-2.4845,-2.6149,-2.6853,-2.69,-2.7167,-2.7309,0.0,0.0,0.0,0.0,0.0,0.0,0.0,0.0,0.0,0.0,0.0,-2.0609,0.0,0.0,-2.0609,-2.0609,-2.0609,-2.0672,-2.0862,-2.0856,-2.0736,-2.0418,-2.0361,-2.0361,-2.0361,-2.0482,-2.0672,-2.0856,-2.0982,-2.1109,-2.1109,-2.1249,-2.2405,-2.4636,-2.5659,-2.727,-2.9465,-3.0556,-3.1084,-3.1084,-3.1277,-3.1377,-3.1377,-3.1377,-3.1377,-3.1377,-3.1377,-3.1377,-3.1377,-3.1377,-3.1377,-3.1341,-3.0947,-3.0791,-3.0772,-3.0571,-3.0497,-3.0433,-3.003,-2.9745,-2.9474,-2.859,-2.8153,-2.7753,-2.6407,-2.6095,-2.6042,-2.5125,-2.4579,-2.4278,-2.3922,-2.3487,-2.3106,-2.3106,-2.2981,-2.2864,-2.2864,-2.2623,-2.2403,-2.2403,-2.2154,-2.1891,-2.1723,-2.1562,-2.1393,-2.1233,-2.1211,-2.1211,-2.1211,-2.1211,-2.1211,-2.1211,-2.1211,-2.1211,-2.1211,-2.0911,-2.0589,-2.0205,-1.963,-1.9279,-1.9279,-1.9828,-2.0688,-2.1887,-2.3094,-2.4285,-2.5489,-2.6448,-2.69,-2.69,-2.7167,-2.7309,0.0,0.0,0.0,0.0,0.0,0.0,0.0,0.0,-2.1109,-2.1109,-2.1109,-2.1109,-2.1109,-2.1109,-2.1109,-2.1109,-2.1109,-2.1109,-2.1109,-2.1109,-2.0982,-2.0736,-2.0672,-2.0672,-2.0672,-2.0672,-2.0799,-2.1109,-2.1109,-2.1136,-2.1189,-2.1423,-2.2929,-2.5778,-2.644,-2.8073,-3.0901,-3.1222,-3.1377,-3.1377,-3.1377,-3.1377,-3.1377,-3.146,-3.1497,-3.1497,-3.1497,-3.1451,-3.1377,-3.1377,-3.1377,-3.1377,-3.1377,-3.1377,-3.1341,-3.102,-3.0901,-3.0846,-3.0451,-3.0094,-2.9782,-2.9626,-2.936,-2.8897,-2.7711,-2.7573,-2.7581,-2.6363,-2.5692,-2.5149,-2.4787,-2.41,-2.3417,-2.3168,-2.3106,-2.3106,-2.3106,-2.2901,-2.2718,-2.2718,-2.2476,-2.2169,-2.1847,-2.1737,-2.1591,-2.1262,-2.1211,-2.1211,-2.1211,-2.1211,-2.1211,-2.1211,-2.1211,-2.1211,-2.1211,-2.0611,-2.0183,-2.0183,-1.963,-1.9279,-1.9279,-2.0328,-2.1438,-2.2534,-2.389,-2.5138,-2.6245,-2.6747,-2.6996,-2.6996,-2.7225,-2.7309,-1.3161,-1.4716,0.0,-1.846,-1.9814,-2.0849,0.0,0.0,-2.1109,-2.1109,-2.1109,-2.1109,-2.1109,-2.1109,-2.1109,-2.1109,-2.1109,-2.1109,-2.1109,-2.1109,-2.1109,-2.1046,-2.1046,-2.1046,-2.1046,-2.1046,-2.1046,-2.1109,-2.1109,-2.1223,-2.1554,-2.1601,-2.3128,-2.647,-2.6687,-2.819,-3.1304,-3.1359,-3.1377,-3.1377,-3.1377,-3.1377,-3.1387,-3.1763,-3.1937,-3.1937,-3.1937,-3.1726,-3.1377,-3.1377,-3.1377,-3.1377,-3.1377,-3.1377,-3.1368,-3.1332,-3.1313,-3.1258,-3.0855,-3.069,-3.0534,-2.981,-2.9604,-2.9443,-2.8906,-2.8797,-2.8677,-2.7924,-2.7675,-2.7194,-2.5501,-2.4949,-2.4587,-2.3355,-2.3106,-2.3106,-2.3106,-2.3084,-2.3054,-2.3054,-2.2791,-2.2476,-2.2176,-2.1891,-2.1591,-2.1262,-2.1211,-2.1211,-2.1211,-2.1211,-2.1211,-2.1211,-2.1211,-2.1211,-2.1211,-2.0611,-2.0183,-2.0183,-1.963,-1.9279,-1.9279,-2.0328,-2.154,-2.2844,-2.4187,-2.5489,-2.6794,-2.7129,-2.7262,-2.7262,-2.7309,-2.7309,-1.5168,0.0,0.0,0.0,-2.0652,-2.1109,-2.1109,-2.1109,-2.1109,-2.1109,-2.1109,-2.1109,-2.1109,-2.1109,-2.1109,0.0,-2.1109,-2.1109,-2.1109,-2.1109,-2.1109,-2.1109,-2.1109,-2.1109,-2.1109,-2.1109,-2.1109,-2.1109,-2.1109,-2.1236,-2.1601,-2.1775,-2.2962,-2.5426,-2.6409,-2.7966,-3.0195,-3.0982,-3.1377,-3.1377,-3.1377,-3.1377,-3.1387,-3.1561,-3.1643,-3.1643,-3.1643,-3.1543,-3.1377,-3.1377,-3.1377,-3.1377,-3.1377,-3.1377,-3.1377,-3.1377,-3.1377,-3.1359,-3.1194,-3.0983,-3.0726,-3.0396,-2.9956,-2.9604,-2.9369,-2.9338,-2.9213,-2.8957,-2.8591,-2.8104,-2.7263,-2.665,-2.5859,-2.4579,-2.4826,-2.4941,-2.3417,-2.372,-2.4031,-2.323,-2.3003,-2.2806,-2.2491,-2.2184,-2.1869,-2.154,-2.1328,-2.1211,-2.1211,-2.1211,-2.1211,-2.1211,-2.1211,-2.1211,-2.1211,-2.0611,-2.0183,-2.0183,-1.963,-1.9279,-1.9279,-2.0936,-2.2089,-2.2634,-2.459,-2.5945,-2.6651,-2.6938,-2.7177,-2.7309,-2.7309,-2.7309,-1.6592,0.0,0.0,-2.0526,-2.1109,-2.1109,-2.1109,-2.1109,-2.1109,-2.1109,-2.1109,-2.1109,-2.1109,-2.1109,0.0,-2.1109,-2.1109,-2.1109,-2.1109,-2.1109,-2.1136,-2.1223,-2.1229,-2.1263,-2.1343,-2.1203,-2.1109,-2.1109,-2.1189,-2.1363,-2.1722,-2.1944,-2.2896,-2.4657,-2.6264,-2.7784,-2.9273,-3.0723,-3.1377,-3.1377,-3.1377,-3.1377,-3.1377,-3.1497,-3.1552,-3.1552,-3.1552,-3.1488,-3.1377,-3.1377,-3.1377,-3.1377,-3.1377,-3.1377,-3.1377,-3.1377,-3.1377,-3.1377,-3.1377,-3.1194,-3.0937,-3.0827,-3.0314,-2.9718,-2.9608,-2.9527,-2.9499,-2.9568,-2.9322,-2.8957,-2.871,-2.8044,-2.7185,-2.592,-2.6346,-2.6468,-2.4571,-2.4641,-2.4826,-2.3845,-2.3658,-2.3553,-2.3224,-2.2902,-2.2587,-2.225,-2.1639,-2.1211,-2.1211,-2.1211,-2.1211,-2.1211,-2.1211,-2.1211,-2.1211,-2.0691,-2.0278,-2.0183,-1.9718,-1.9419,-1.9279,-2.1336,-2.2484,-2.2484,-2.4884,-2.6245,-2.6496,-2.6757,-2.7034,-2.7309,-2.7309,-2.7309,0.0,0.0,-1.9297,-2.0722,-2.1109,-2.1109,-2.1109,-2.1109,-2.1109,-2.1109,-2.1109,-2.1109,-2.1109,-2.1109,-2.1109,-2.1109,-2.1109,-2.1109,-2.1109,-2.1109,-2.1216,-2.1568,-2.1601,-2.1715,0.0,-2.1443,-2.1109,-2.1109,-2.1376,-2.1728,-2.1957,-2.2251,-2.3206,-2.4918,-2.6388,-2.7784,-2.9273,-3.0723,-3.1377,-3.1377,-3.1377,-3.1377,-3.1396,-3.1799,-3.1983,-3.1983,-3.1983,-3.1753,-3.1377,-3.1377,-3.1377,-3.1377,-3.1377,-3.1377,-3.1377,-3.1377,-3.1377,-3.1377,-3.1377,-3.1368,-3.1295,-3.091,-3.0516,-3.0103,-2.97,-2.9527,-2.9558,-2.9804,-3.0098,-3.0147,-2.9166,-2.8861,-2.8504,-2.7254,-2.6952,-2.6952,-2.6892,-2.592,-2.5071,-2.5071,-2.501,-2.496,-2.4603,-2.4245,-2.3954,-2.3596,-2.2192,-2.1211,-2.1211,-2.1211,-2.1211,-2.1211,-2.1211,-2.1211,-2.1211,-2.0903,-2.0574,-2.0205,-1.993,-1.9661,-1.9286,-2.1336,-2.2484,-2.2484,-2.4884,-2.6245,-2.6496,-2.6757,-2.7034,-2.7309,-2.7309,-2.7309,0.0,0.0,-1.9361,-2.0722,-2.1109,-2.1109,-2.1109,-2.1109,-2.1109,-2.1109,-2.1263,-2.1403,-2.1403,-2.1403,-2.147,-2.1663,-2.153,-2.147,-2.1663,-2.169,-2.173,-2.1824,-2.1844,0.0,0.0,0.0,0.0,-2.169,-2.1784,-2.1964,-2.2258,-2.2365,-2.2755,-2.359,-2.5853,-2.7312,-2.785,-3.0178,-3.1377,-3.1377,-3.1377,-3.1377,-3.1377,-3.1524,-3.1588,-3.1588,-3.1588,-3.1506,-3.1377,-3.1377,-3.1377,-3.1377,-3.1377,-3.1377,-3.1377,-3.1377,-3.1377,-3.1377,-3.1377,-3.1377,-3.1359,-3.1222,-3.0736,-3.0238,-3.0267,-3.005,-2.9804,-3.0157,-3.046,-3.0635,-3.0333,-3.0216,-2.9903,-2.8573,-2.8938,-2.9135,-2.7383,-2.7306,-2.7357,-2.6529,-2.6346,-2.6305,-2.6188,-2.506,-2.3649,-2.223,-2.1556,-2.1211,-2.1211,-2.1211,-2.1211,-2.1211,-2.1211,-2.1211,-2.1211,-2.0911,-2.0589,-2.0205,-2.0613,-2.0692,-2.0395,-2.2433,-2.3543,-2.3543,-2.506,-2.6062,-2.6496,-2.6592,-2.688,-2.7309,-2.7309,-2.7309,0.0,-1.9361,-1.9941,-2.0849,-2.1109,-2.1109,-2.1109,-2.1109,-2.1109,-2.1109,-2.1349,-2.1614,-2.1614,-2.1702,-2.177,-2.1957,-2.183,-2.177,-2.1964,-2.1984,-2.2024,-2.2124,-2.2138,0.0,0.0,0.0,0.0,-2.2004,-2.2084,-2.2218,-2.2405,-2.2519,-2.2665,-2.2921,-2.5651,-2.7113,-2.7113,-2.9974,-3.1377,-3.1377,-3.1377,-3.1377,-3.1377,-3.1377,-3.1377,-3.1377,-3.1377,-3.1377,-3.1377,-3.1377,-3.1377,-3.1377,-3.1377,-3.1377,-3.1377,-3.1377,-3.1377,-3.1377,-3.1377,-3.1377,-3.1359,-3.1212,-3.0726,-3.0229,-3.0257,-3.0111,-2.9922,-3.0157,-3.0518,-3.0889,-3.0889,-3.0889,-3.0704,-2.9844,-3.0274,-3.046,-2.8769,-2.8632,-2.8683,-2.7847,-2.7667,-2.7667,-2.7667,-2.643,-2.4754,-2.2746,-2.2474,-2.2142,-2.1318,-2.1211,-2.1211,-2.1211,-2.1211,-2.1211,-2.1211,-2.102,-2.0873,-2.0798,-2.1247,-2.1534,-2.1454,-2.3135,-2.4088,-2.4088,-2.5167,-2.5975,-2.6496,-2.6496,-2.6784,-2.7309,-2.7309,-2.7309,-1.91,-2.0075,-2.1109,-2.1109,-2.1109,-2.1109,-2.1109,-2.1109,-2.1109,-2.1129,-2.137,-2.1641,0.0,0.0,-2.2011,-2.2031,-2.2017,-2.2017,-2.2031,-2.2031,-2.2131,0.0,0.0,0.0,0.0,0.0,0.0,-2.2071,0.0,-2.2438,-2.2438,-2.2712,-2.2928,-2.2928,-2.5651,-2.7113,-2.7113,-2.9974,-3.1377,-3.1377,-3.1377,-3.1377,-3.1377,-3.1377,-3.1377,-3.1377,-3.1377,-3.1377,-3.1377,-3.1377,-3.1377,-3.1377,-3.1377,-3.1377,-3.1377,-3.1377,-3.1377,-3.1377,-3.1377,-3.1377,-3.1313,-3.0919,-3.0525,-3.0121,-2.976,-2.9776,-2.9931,-2.9922,-3.0411,-3.0889,-3.0889,-3.0889,-3.0889,-3.0889,-3.0889,-3.0889,-3.0889,-2.9903,-2.8979,-2.8979,-2.8961,-2.8943,-2.8865,-2.8272,-2.7078,-2.5005,-2.4727,-2.3847,-2.1596,-2.1261,-2.1261,-2.1261,-2.1268,-2.1211,-2.1268,-2.1268,-2.1369,-2.1758,-2.1872,-2.2083,-2.2568,-2.3592,-2.4196,-2.4187,-2.5167,-2.5975,-2.6496,-2.6496,-2.6784,-2.7309,-2.7309,-2.7309,-2.0265,-2.0849,-2.1109,-2.1109,-2.1109,-2.1109,-2.1109,-2.1109,-2.1169,-2.1396,-2.167,-2.1944,0.0,0.0,0.0,-2.2605,-2.2452,0.0,-2.2605,-2.2639,0.0,0.0,0.0,-2.2779,-2.2921,-2.2928,0.0,0.0,-2.2706,-2.2746,-2.2746,-2.2819,-2.2928,-2.2928,-2.5651,-2.7113,-2.7113,-2.9974,-3.1377,-3.1377,-3.1377,-3.1377,-3.1377,-3.1377,-3.1377,-3.1377,-3.1377,-3.1377,-3.1377,-3.1377,-3.1377,-3.1377,-3.1377,-3.1377,-3.1377,-3.1377,-3.1377,-3.1377,-3.1377,-3.1377,-3.1313,-3.0919,-3.0525,-3.0183,-3.0246,-3.0125,-2.999,-3.0528,-3.0772,-3.0889,-3.0889,-3.0889,-3.0889,-3.0889,-3.0889,-3.0889,-3.0889,-3.0645,-3.0401,-3.0401,-3.0122,-2.9489,-2.8307,-2.7675,-2.6761,-2.4962,-2.4727,-2.4172,-2.2757,-2.2539,-2.2539,-2.2539,-2.1767,-2.1539,-2.2482,-2.171,-2.1369,-2.1758,-2.2614,-2.3228,-2.3669,-2.4716,-2.5372,-2.5596,-2.5674,-2.6072,-2.6805,-2.6602,-2.6784,-2.7309,-2.7309,-2.7309,-2.0912,-2.1109,-2.1109,-2.1109,-2.1109,-2.1109,-2.1109,-2.1209,-2.1349,-2.1581,-2.1884,0.0,0.0,0.0,0.0,0.0,0.0,0.0,-2.2839,-2.2928,-2.2928,0.0,-2.2928,0.0,-2.2928,-2.2928,-2.2928,0.0,-2.2928,-2.2928,-2.2928,-2.2928,-2.2928,-2.2928,-2.5061,-2.6788,-2.8056,-3.0307,-3.1377,-3.1377,-3.1377,-3.1377,-3.1377,-3.1377,-3.1377,-3.1377,0.0,-3.1377,-3.1377,-3.1377,-3.1377,-3.1377,-3.1377,-3.1377,-3.1377,-3.1377,-3.1377,-3.1377,-3.1377,-3.1267,-3.1057,-3.0662,-3.0259,-2.9969,-3.0036,-2.9983,-2.9981,-3.0518,-3.0772,-3.0889,-3.0889,-3.0889,-3.0889,-3.0889,-3.0889,-3.0889,-3.0889,-3.0889,-3.0889,-3.0889,-3.0518,-2.9888,-2.8776,-2.8247,-2.7547,-2.6455,-2.6282,-2.568,-2.3966,-2.3743,-2.3743,-2.3743,-2.3135,-2.3023,-2.3687,-2.3135,-2.2886,-2.3286,-2.3877,-2.4418,-2.4794,-2.5382,-2.583,-2.6091,-2.5965,-2.6217,-2.69,-2.6757,-2.689,-2.7309,-2.7309,-2.7309,-2.1109,-2.1109,-2.1109,-2.1109,-2.1109,-2.1109,-2.1109,-2.1336,-2.1628,-2.1668,0.0,0.0,-2.2472,0.0,-2.2928,-2.2928,0.0,-2.2928,-2.2928,-2.2928,-2.2928,-2.2928,-2.2928,-2.2928,-2.2928,-2.2928,-2.2928,-2.2928,-2.2928,-2.2928,-2.2928,-2.2928,-2.2996,-2.3195,-2.4338,-2.6404,-2.9273,-3.052,-3.1249,-3.1377,-3.1377,-3.1377,-3.1377,-3.1377,-3.1377,-3.1377,-3.1377,0.0,-3.1377,-3.1377,-3.1377,-3.1377,-3.1377,-3.1377,-3.1377,-3.1377,-3.1377,-3.1368,-3.1322,-3.1038,-3.0653,-3.0314,-2.992,-2.9619,-2.9511,-2.9686,-2.9981,-3.0333,-3.0635,-3.0889,-3.0889,-3.0889,-3.0889,-3.0889,-3.0889,-3.0889,-3.0889,-3.0889,-3.0869,-3.081,-3.043,-2.998,-2.956,-2.9121,-2.8711,-2.835,-2.8184,-2.7349,-2.5452,-2.5058,-2.4893,-2.4718,-2.4727,-2.4774,-2.4948,-2.4782,-2.4837,-2.5179,-2.5185,-2.5358,-2.5674,-2.5693,-2.583,-2.6091,-2.61,-2.6352,-2.69,-2.69,-2.7034,-2.7309,-2.7309,-2.7309,-2.1109,-2.1109,-2.1109,-2.1109,-2.1109,-2.1109,-2.1109,-2.1336,0.0,0.0,0.0,-2.2492,-2.2739,-2.2826,0.0,-2.2928,0.0,0.0,0.0,0.0,-2.2928,0.0,0.0,0.0,0.0,0.0,0.0,0.0,0.0,-2.2928,-2.2928,-2.2928,-2.34,-2.4602,-2.4873,-2.6404,-2.9273,-2.9535,-3.026,-3.1377,-3.1377,-3.1377,-3.1377,-3.1377,-3.1377,-3.1377,-3.1377,0.0,-3.1377,-3.1377,-3.1377,-3.1377,-3.1377,-3.1377,-3.1377,-3.1377,-3.1377,-3.1332,-3.1002,-3.0635,-3.0296,-3.0222,-2.992,-2.9619,-2.9511,-2.9686,-2.9981,-3.0333,-3.0635,-3.0889,-3.0889,-3.0889,-3.0889,-3.0889,-3.0889,-3.0889,-3.0889,-3.0889,-3.0781,-3.0391,-2.9971,-2.9541,-2.9111,-2.8682,-2.8379,-2.8301,-2.7457,-2.7025,-2.7618,-2.6789,-2.5799,-2.4837,-2.4727,-2.5113,-2.6073,-2.5287,-2.4837,-2.5179,-2.5185,-2.5358,-2.5674,-2.5693,-2.583,-2.6091,-2.61,-2.6352,-2.69,-2.69,-2.7034,-2.7309,-2.7309,-2.7309,-2.1109,-2.1109,-2.1109,-2.1109,-2.1109,-2.1109,-2.1109,0.0,0.0,0.0,0.0,-2.2512,-2.2806,0.0,0.0,0.0,0.0,0.0,0.0,0.0,0.0,0.0,0.0,0.0,0.0,0.0,0.0,0.0,0.0,0.0,-2.2928,-2.2928,-2.3201,-2.387,-2.4602,-2.5674,-2.707,-2.8534,-2.9665,-3.0325,-3.1046,-3.1377,-3.1377,-3.1377,-3.1377,-3.1377,-3.1377,0.0,-3.1377,-3.1377,-3.1377,-3.1377,-3.1377,-3.1377,-3.1377,-3.1377,-3.1249,-3.1047,-3.0855,-3.0387,-2.9874,-2.9874,-2.9599,-2.9352,-2.9624,-2.9804,-2.9981,-3.0518,-3.0762,-3.0889,-3.0889,-3.0889,-3.0889,-3.0889,-3.0889,-3.0889,-3.0889,-3.0889,-3.0752,-3.0293,-2.9853,-2.9434,-2.8994,-2.8574,-2.8291,-2.8291,-2.7799,-2.7413,-2.7359,-2.7413,-2.7232,-2.6617,-2.6563,-2.6789,-2.7403,-2.6898,-2.6437,-2.6149,-2.6153,-2.5996,-2.5723,-2.5693,-2.583,-2.6091,-2.6245,-2.6496,-2.69,-2.7034,-2.7081,-2.7081,-2.7214,-2.7225,-2.1109,-2.1109,-2.1109,-2.1109,-2.1109,-2.1109,-2.1109,-2.1336,0.0,0.0,0.0,-2.2492,-2.2726,0.0,0.0,0.0,0.0,0.0,0.0,0.0,0.0,0.0,0.0,0.0,0.0,0.0,0.0,0.0,0.0,0.0,-2.2928,-2.2928,-2.2928,-2.2928,-2.4006,-2.467,-2.5008,-2.727,-2.8534,-2.8863,-3.0251,-3.0982,-3.0982,-3.1249,-3.1377,-3.1377,-3.1377,0.0,0.0,-3.1377,-3.1377,-3.1377,-3.1377,-3.1377,-3.1368,-3.1277,-3.1057,-3.0763,-3.0589,-3.0103,-2.9613,-2.947,-2.9292,-2.9222,-2.9686,-2.9922,-3.0098,-3.0645,-3.083,-3.0889,-3.0889,-3.0889,-3.0889,-3.0889,-3.0889,-3.0889,-3.0889,-3.081,-3.0605,-3.0156,-2.9726,-2.9297,-2.8857,-2.8506,-2.8291,-2.8291,-2.8067,-2.7682,-2.6961,-2.7466,-2.8014,-2.8291,-2.8291,-2.8291,-2.8291,-2.8291,-2.793,-2.707,-2.7012,-2.6631,-2.5723,-2.5693,-2.5781,-2.6004,-2.6352,-2.6602,-2.6747,-2.7081,-2.7081,-2.6805,-2.7081,-2.7081,-2.1109,-2.1109,-2.1109,-2.1109,-2.1109,-2.1109,-2.1109,0.0,0.0,0.0,-2.2031,-2.2425,-2.2452,-2.2679,0.0,0.0,0.0,0.0,0.0,0.0,0.0,0.0,0.0,0.0,0.0,0.0,0.0,0.0,0.0,0.0,-2.2928,-2.2928,-2.2928,-2.2928,-2.2996,-2.3734,-2.5008,-2.527,-2.6069,-2.7312,-2.8797,-2.9469,-2.9535,-3.0852,-3.1377,-3.1377,-3.1377,0.0,0.0,-3.1377,-3.1377,-3.1377,-3.1377,-3.1377,-3.1332,-3.0974,-3.0818,-3.0681,-2.9938,-2.9635,-2.9516,-2.9149,-2.924,-2.944,-2.9499,-2.9912,-3.0392,-3.045,-3.0694,-3.0889,-3.0889,-3.0889,-3.0889,-3.0889,-3.0889,-3.0889,-3.0889,-3.0566,-3.0137,-2.9707,-2.9277,-2.8848,-2.8428,-2.831,-2.8291,-2.8291,-2.7359,-2.7025,-2.8014,-2.7295,-2.7079,-2.8184,-2.8291,-2.8291,-2.8291,-2.8291,-2.793,-2.707,-2.7012,-2.6631,-2.5723,-2.5693,-2.5684,-2.5732,-2.6255,-2.64,-2.6197,-2.6699,-2.6794,-2.6544,-2.6794,-2.69,-2.1109,-2.1109,-2.1109,-2.1109,-2.1109,-2.1109,-2.1109,0.0,0.0,-2.1581,-2.1802,-2.2004,-2.2352,-2.2512,-2.2652,0.0,0.0,0.0,0.0,0.0,0.0,0.0,0.0,0.0,0.0,0.0,0.0,0.0,0.0,0.0,-2.2338,-2.2498,-2.2599,-2.2599,-2.2425,-2.2599,-2.3185,-2.4041,-2.4752,-2.5328,-2.6761,-2.748,-2.7544,-2.8852,-2.9621,-2.9906,-3.0692,0.0,0.0,-3.1377,-3.1377,-3.1359,-3.1112,-3.102,-3.0974,-3.058,-3.0277,-3.0011,-2.9681,-2.9415,-2.9195,-2.9039,-2.9213,-2.9499,-2.9686,-2.9922,-3.0157,-3.0587,-3.082,-3.0889,-3.0889,-3.0889,-3.0889,-3.0889,-3.0889,-3.0889,-3.0889,-3.0527,-3.0068,-2.9704,-2.9219,-2.8789,-2.8369,-2.8291,-2.8291,-2.8291,-2.7906,-2.7736,-2.8237,-2.7241,-2.6971,-2.8184,-2.8291,-2.8291,-2.8291,-2.8057,-2.7656,-2.7051,-2.6777,-2.6367,-2.5713,-2.5693,-2.5693,-2.5693,-2.6062,-2.6197,-2.61,-2.6496,-2.6496,-2.6245,-2.6544,-2.6651,-2.1109,-2.1109,-2.1109,-2.1109,-2.1109,-2.1109,0.0,0.0,0.0,-2.1504,-2.1619,-2.1742,-2.2217,-2.2298,-2.2358,0.0,0.0,0.0,0.0,0.0,0.0,0.0,0.0,0.0,0.0,0.0,0.0,0.0,0.0,0.0,0.0,-2.2098,-2.2205,-2.2291,-2.2091,-2.1984,-2.1984,-2.2955,-2.3471,-2.3471,-2.494,-2.5648,-2.5704,-2.706,-2.7773,-2.8145,-2.9445,0.0,0.0,-3.0893,-3.1029,-3.1002,-3.0726,-3.0616,-3.0561,-3.0158,-2.9828,-2.9553,-2.9434,-2.9214,-2.8984,-2.8984,-2.9153,-2.939,-2.9686,-2.9922,-3.0157,-3.0772,-3.0889,-3.0889,-3.0889,-3.0889,-3.0889,-3.0889,-3.0889,-3.085,-3.0713,-3.0332,-2.9893,-2.9463,-2.9033,-2.8643,-2.834,-2.8291,-2.8291,-2.8291,-2.8291,-2.8184,-2.7789,-2.7349,-2.7241,-2.7736,-2.7961,-2.8105,-2.8105,-2.7832,-2.7422,-2.6865,-2.6553,-2.6191,-2.5703,-2.5693,-2.5693,-2.5693,-2.5955,-2.6052,-2.5955,-2.6245,-2.6255,-2.6004,-2.6352,-2.6592,-2.1109,-2.1109,-2.1109,-2.1109,-2.1109,-2.1109,0.0,0.0,0.0,-2.1551,-2.1598,-2.1679,-2.2008,-2.2058,-2.1991,-2.1991,0.0,0.0,0.0,0.0,0.0,0.0,0.0,0.0,0.0,0.0,0.0,0.0,0.0,0.0,0.0,-2.1782,-2.1762,-2.1984,-2.1984,-2.1984,-2.1984,-2.1984,-2.205,-2.205,-2.3471,-2.4114,-2.4179,-2.5648,-2.6344,0.0,0.0,0.0,0.0,-2.9698,-3.0213,-3.0213,-3.0204,-3.0204,-3.0158,-2.9736,-2.9571,-2.9516,-2.9122,-2.8984,-2.8984,-2.8984,-2.8984,-2.9044,-2.939,-2.9912,-3.045,-3.082,-3.0889,-3.0889,-3.0889,-3.0889,-3.0889,-3.0889,-3.0889,-3.0762,-3.0303,-2.9873,-2.9443,-2.9014,-2.8584,-2.8301,-2.8291,-2.8291,-2.8291,-2.8291,-2.8291,-2.7853,-2.669,-2.7574,-2.7853,-2.6636,-2.7212,-2.7728,-2.7728,-2.7718,-2.7356,-2.6445,-2.6387,-2.6191,-2.5703,-2.5693,-2.5693,-2.5693,-2.5955,-2.5965,-2.5693,-2.5965,-2.5965,-2.5742,-2.6265,-2.6784,-1.9941,-2.0399,-2.1109,-2.1109,-2.1109,-2.1109,-2.1109,0.0,-2.1172,-2.1544,-2.1626,-2.1692,-2.2025,-2.2076,-2.2141,-2.2345,0.0,0.0,0.0,0.0,0.0,0.0,0.0,0.0,0.0,0.0,0.0,0.0,0.0,0.0,0.0,-2.199,-2.1895,-2.1748,-2.1496,-2.1383,-2.1383,-2.1383,-2.1383,-2.139,-2.1824,-2.2072,-2.2072,-2.351,0.0,0.0,0.0,0.0,0.0,-2.9627,-3.0204,-3.0176,-2.9883,-2.9773,-2.9718,-2.9324,-2.9168,-2.9149,-2.9021,-2.8984,-2.8984,-2.8984,-2.8984,-2.9035,-2.939,-2.9745,-3.0167,-3.0772,-3.0889,-3.0889,-3.0889,-3.0889,-3.0889,-3.0889,-3.0644,-3.0371,-3.0234,-2.9629,-2.9082,-2.8945,-2.8584,-2.8291,-2.8291,-2.8291,-2.8291,-2.8291,-2.7574,-2.7241,-2.7682,-2.6617,-2.6236,-2.7184,-2.682,-2.6797,-2.7614,-2.7129,-2.668,-2.6406,-2.6113,-2.583,-2.5693,-2.5693,-2.5693,-2.5693,-2.5781,-2.5781,-2.5693,-2.5781,-2.5868,-2.6014,-2.6506,-2.6842,0.0,-2.0462,-2.1109,-2.1109,-2.1109,0.0,0.0,0.0,-2.1418,-2.1859,-2.1859,-2.1915,-2.2236,-2.2214,-2.2141,0.0,0.0,0.0,0.0,0.0,0.0,0.0,0.0,0.0,0.0,0.0,0.0,0.0,0.0,0.0,0.0,-2.2111,-2.2013,-2.1824,-2.1457,-2.1235,-2.1109,-2.1109,-2.1109,-2.1109,-2.1109,-2.1109,-2.1109,-2.1971,0.0,0.0,0.0,0.0,0.0,-2.9177,-2.9745,-2.9718,-2.9452,-2.9342,-2.9324,-2.9076,-2.8984,-2.8984,-2.8984,-2.8984,-2.8984,-2.8984,-2.8984,-2.9103,-2.9509,-2.9863,-3.0216,-3.0772,-3.0889,-3.0889,-3.0889,-3.0889,-3.085,-3.0674,-3.04,-3.0107,-2.9785,-2.9297,-2.8877,-2.8711,-2.8467,-2.8291,-2.8291,-2.8291,-2.8291,-2.8291,-2.7682,-2.7295,-2.7574,-2.6542,-2.6134,-2.6931,-2.6461,-2.6385,-2.7126,-2.6699,-2.6318,-2.6152,-2.584,-2.5693,-2.5693,-2.5693,-2.5693,-2.5693,-2.5693,-2.5693,-2.5693,-2.5693,-2.583,-2.61,-2.6448,-2.6699,0.0,0.0,0.0,0.0,0.0,0.0,0.0,0.0,0.0,-2.248,-2.2362,-2.2237,-2.2543,-2.2362,0.0,0.0,0.0,0.0,0.0,0.0,0.0,0.0,0.0,0.0,0.0,0.0,0.0,0.0,0.0,0.0,0.0,-2.2174,-2.2174,-2.2111,-2.1859,-2.1488,-2.1172,-2.1172,-2.1109,-2.1109,-2.1109,-2.1109,-2.1109,-2.1109,0.0,0.0,0.0,0.0,0.0,-2.843,-2.8984,-2.8984,-2.8984,-2.8984,-2.8984,-2.8984,-2.8984,-2.8984,-2.8984,-2.8984,-2.8984,-2.8984,-2.9044,-2.9163,-2.9745,-3.0098,-3.045,-3.082,-3.0889,-3.0889,-3.085,-3.084,-3.0723,-3.0264,-3.0127,-2.9893,-2.9092,-2.8896,-2.876,-2.8369,-2.8291,-2.8291,-2.8291,-2.8291,-2.8291,-2.8291,-2.8237,-2.778,-2.6707,-2.714,-2.7156,-2.6079,-2.6235,-2.6377,-2.6348,-2.6338,-2.6172,-2.5713,-2.5693,-2.5693,-2.5693,-2.5693,-2.5693,-2.5693,-2.5693,-2.5693,-2.5693,-2.5742,-2.5868,-2.61,-2.6149,-2.64,-2.1859,0.0,-2.1859,0.0,0.0,0.0,0.0,0.0,0.0,0.0,0.0,0.0,0.0,0.0,0.0,0.0,0.0,0.0,0.0,0.0,0.0,0.0,0.0,0.0,0.0,0.0,0.0,0.0,0.0,0.0,0.0,-2.2856,-2.2731,-2.248,-2.2425,-2.2174,-2.1859,-2.1607,-2.1488,-2.1488,-2.1235,-2.1109,-2.1109,-2.1109,0.0,0.0,0.0,0.0,-2.5668,-2.8002,-2.8984,-2.8984,-2.8984,-2.8984,-2.8984,-2.8984,-2.8984,-2.8984,-2.8984,-2.8984,-2.8984,-2.8984,-2.9153,-2.945,-2.9804,-2.9981,-3.0157,-3.0704,-3.0889,-3.081,-3.0449,-3.0361,-3.0254,-2.9824,-2.9463,-2.916,-2.8955,-2.8672,-2.8408,-2.831,-2.8291,-2.8291,-2.8291,-2.8291,-2.8291,-2.8291,-2.752,-2.702,-2.7367,-2.6758,-2.6289,-2.6292,-2.6353,-2.625,-2.5918,-2.584,-2.5801,-2.5693,-2.5693,-2.5693,-2.5693,-2.5693,-2.5693,-2.5693,-2.5693,-2.5693,-2.5693,-2.5917,-2.6052,-2.61,-2.6496,-2.6805,-2.2362,-2.2237,-2.2111,-2.2111,-2.2111,-2.2174,0.0,0.0,0.0,0.0,0.0,0.0,0.0,0.0,0.0,0.0,0.0,0.0,0.0,0.0,0.0,0.0,0.0,0.0,0.0,0.0,0.0,0.0,0.0,0.0,0.0,-2.3106,-2.3043,-2.2863,-2.2863,-2.2606,-2.2111,-2.1922,-2.1734,-2.1607,-2.1418,-2.1235,-2.1109,-2.1109,-2.1727,0.0,0.0,0.0,-2.6952,-2.843,-2.8984,-2.8984,-2.8984,-2.8984,-2.8984,-2.8984,-2.8984,-2.8984,-2.8984,-2.8984,-2.9044,-2.9153,-2.9331,-2.9568,-2.9981,-3.0157,-3.0216,-3.0772,-3.0732,-3.0518,-3.0264,-3.0049,-2.9805,-2.9375,-2.9092,-2.8867,-2.8672,-2.8447,-2.8291,-2.8291,-2.8291,-2.8291,-2.8291,-2.8291,-2.8291,-2.8291,-2.7582,-2.7212,-2.7633,-2.6787,-2.6222,-2.6386,-2.6211,-2.5996,-2.5703,-2.5693,-2.5693,-2.5693,-2.5693,-2.5693,-2.5693,-2.5693,-2.5693,-2.5693,-2.5693,-2.5693,-2.5693,-2.5868,-2.5917,-2.5917,-2.6352,-2.6602,-2.2675,-2.248,-2.2237,-2.2237,-2.2237,-2.2362,0.0,0.0,0.0,0.0,0.0,0.0,0.0,0.0,0.0,0.0,0.0,0.0,0.0,0.0,0.0,0.0,0.0,0.0,0.0,0.0,0.0,0.0,0.0,0.0,0.0,-2.3106,-2.3106,-2.3106,-2.3106,-2.2863,-2.2237,-2.2174,-2.1985,-2.167,-2.1607,-2.1418,-2.1109,-2.1109,-2.2404,-2.4748,0.0,0.0,-2.8737,-2.8925,-2.8984,-2.8984,-2.8984,-2.8984,-2.8984,-2.8984,-2.8984,-2.8984,-2.8984,-2.8984,-2.9044,-2.939,-2.9509,-2.9686,-3.0216,-3.0402,-3.0412,-3.0723,-3.0508,-3.0166,-3.0039,-2.9736,-2.9365,-2.8926,-2.8818,-2.873,-2.8369,-2.8291,-2.8291,-2.8291,-2.8291,-2.8291,-2.8291,-2.8291,-2.8271,-2.8203,-2.7891,-2.7669,-2.7542,-2.6836,-2.6367,-2.6299,-2.5957,-2.5693,-2.5693,-2.5693,-2.5693,-2.5693,-2.5693,-2.5693,-2.5693,-2.5693,-2.5693,-2.5693,-2.5693,-2.5693,-2.5693,-2.5732,-2.5684,-2.5479,-2.5955,-2.6245,-2.3043,-2.2988,-2.2918,-2.2918,-2.2918,-2.2988,-2.2988,0.0,0.0,0.0,0.0,0.0,0.0,0.0,0.0,0.0,0.0,0.0,0.0,0.0,0.0,0.0,0.0,0.0,0.0,0.0,0.0,0.0,0.0,0.0,0.0,0.0,-2.3106,-2.3106,-2.3106,-2.3043,-2.2918,-2.2668,-2.2362,-2.2048,-2.1734,-2.1418,-2.1109,-2.1109,-2.1908,-2.3442,0.0,-2.5851,-2.7383,-2.8549,-2.8984,-2.8984,-2.8984,-2.8984,-2.8984,-2.8984,-2.8984,-2.8984,-2.8984,-2.8984,-2.9044,-2.939,-2.9627,-2.9922,-3.0274,-3.0306,-3.0236,-3.0303,-3.0254,-3.0029,-2.9307,-2.9062,-2.8906,-2.8486,-2.8389,-2.8369,-2.8301,-2.8291,-2.8291,-2.8291,-2.8291,-2.8291,-2.8291,-2.8291,-2.8174,-2.7812,-2.7757,-2.7454,-2.668,-2.6465,-2.625,-2.583,-2.5732,-2.5693,-2.5693,-2.5693,-2.5693,-2.5693,-2.5693,-2.5693,-2.5693,-2.5693,-2.5693,-2.5693,-2.5693,-2.5693,-2.5693,-2.5917,-2.545,-2.4393,-2.6004,-2.6197,-2.2842,-2.2974,-2.3106,-2.3106,-2.3106,-2.3106,-2.3106,0.0,0.0,0.0,0.0,0.0,0.0,0.0,0.0,0.0,0.0,0.0,0.0,0.0,0.0,0.0,0.0,0.0,0.0,0.0,0.0,0.0,0.0,0.0,0.0,0.0,-2.3106,-2.3106,-2.3106,-2.3106,-2.3106,-2.2918,-2.2668,-2.2355,-2.2048,-2.167,-2.1355,-2.1172,-2.1846,-2.3201,0.0,-2.5729,-2.7073,-2.843,-2.8984,-2.8984,-2.8984,-2.8984,-2.8984,-2.8984,-2.8984,-2.8984,-2.8984,-2.9103,-2.9331,-2.9627,-2.977,-2.9881,-3.0209,-3.0081,-2.9805,-2.957,-2.9502,-2.9414,-2.9023,-2.875,-2.8535,-2.834,-2.8291,-2.8291,-2.8291,-2.8291,-2.8291,-2.8291,-2.8291,-2.8291,-2.8291,-2.8105,-2.7891,-2.7748,-2.7327,-2.6836,-2.6435,-2.6182,-2.5967,-2.5713,-2.5693,-2.5693,-2.5693,-2.5693,-2.5693,-2.5693,-2.5693,-2.5693,-2.5693,-2.5693,-2.5693,-2.5693,-2.5693,-2.5421,-2.4864,-2.4952,-2.4393,-2.3285,-2.4845,-2.5343,-2.2601,-2.2806,-2.301,-2.3091,0.0,-2.3106,-2.3106,0.0,0.0,0.0,0.0,0.0,0.0,0.0,0.0,0.0,0.0,0.0,0.0,0.0,0.0,0.0,0.0,0.0,0.0,0.0,0.0,0.0,0.0,0.0,0.0,0.0,-2.3106,-2.3106,-2.3106,-2.3106,-2.3106,-2.3106,-2.2926,-2.2606,-2.2355,-2.1985,-2.1607,-2.1362,-2.2097,-2.3566,-2.4564,-2.5912,-2.7564,-2.8549,-2.8984,-2.8984,-2.8984,-2.8984,-2.8984,-2.8984,-2.8984,-2.8984,-2.8984,-2.9153,-2.9431,-2.97,-2.9746,-2.9747,-2.9974,-2.9756,-2.9346,-2.9014,-2.8848,-2.8769,-2.8769,-2.8535,-2.8291,-2.8291,-2.8291,-2.8237,-2.796,-2.8121,-2.8237,-2.7906,-2.813,-2.8262,-2.8164,-2.7881,-2.765,-2.7454,-2.6807,-2.6357,-2.625,-2.5947,-2.5693,-2.5693,-2.5693,-2.5693,-2.5693,-2.5693,-2.5693,-2.5693,-2.5693,-2.5693,-2.5693,-2.5693,-2.5693,-2.5693,-2.543,-2.4913,-2.4088,-2.4137,-2.3583,-2.2534,-2.4236,-2.4992,-2.255,-2.2637,-2.2732,-2.3032,-2.3106,0.0,-2.3106,-2.3106,0.0,0.0,0.0,0.0,0.0,0.0,0.0,0.0,0.0,0.0,0.0,0.0,0.0,0.0,0.0,0.0,0.0,0.0,0.0,0.0,0.0,0.0,0.0,0.0,0.0,-2.3106,-2.3106,-2.3106,-2.3106,-2.3106,-2.2926,-2.2606,-2.2613,-2.2237,-2.1607,-2.1607,-2.2779,-2.4871,-2.4933,-2.6468,-2.8856,-2.8984,-2.8984,-2.8984,-2.8984,-2.8984,-2.8984,-2.8984,-2.8984,-2.8984,-2.8984,-2.9044,-2.9098,-2.9254,-2.9344,-2.9355,-2.9568,-2.9307,-2.8955,-2.8926,-2.8643,-2.834,-2.834,-2.831,-2.8291,-2.8291,-2.8291,-2.8014,-2.6853,-2.752,-2.796,-2.6862,-2.752,-2.8164,-2.7836,-2.7738,-2.7454,-2.6602,-2.6426,-2.624,-2.5791,-2.5703,-2.5693,-2.5693,-2.5693,-2.5693,-2.5693,-2.5693,-2.5693,-2.5693,-2.5693,-2.5693,-2.5693,-2.5693,-2.5693,-2.5693,-2.4707,-2.4196,-2.4088,-2.4344,-2.3791,-2.2593,-2.5392,-2.6091,-2.2015,-2.2191,-2.2381,-2.2498,0.0,0.0,0.0,0.0,0.0,0.0,0.0,0.0,0.0,0.0,0.0,0.0,0.0,0.0,0.0,0.0,0.0,0.0,0.0,0.0,0.0,0.0,0.0,0.0,0.0,0.0,0.0,0.0,0.0,-2.3106,-2.3106,-2.3106,-2.3106,-2.3106,-2.305,-2.2926,-2.2668,-2.2362,-2.1922,-2.2529,-2.3208,-2.3876,-2.5546,-2.6831,-2.7813,-2.8677,-2.8984,-2.8984,-2.8984,-2.8984,-2.8984,-2.8984,-2.8984,-2.8948,-2.87,-2.8726,-2.8827,-2.865,-2.8691,-2.8847,-2.8896,-2.8713,-2.8535,-2.8535,-2.8418,-2.8291,-2.8291,-2.8291,-2.8291,-2.8291,-2.8291,-2.8184,-2.7736,-2.796,-2.8106,-2.74,-2.7627,-2.7764,-2.7334,-2.7051,-2.6758,-2.6435,-2.6162,-2.5879,-2.5713,-2.5693,-2.5693,-2.5693,-2.5693,-2.5693,-2.5693,-2.5693,-2.5693,-2.5693,-2.5693,-2.5693,-2.5693,-2.5069,-2.4707,-2.4707,-2.3642,-2.3094,-2.3094,-2.3194,-2.3085,-2.2785,-2.459,-2.5333,-2.1672,-2.1862,-2.2052,0.0,0.0,0.0,0.0,0.0,0.0,0.0,0.0,0.0,0.0,0.0,0.0,0.0,0.0,0.0,0.0,0.0,0.0,0.0,0.0,0.0,0.0,0.0,0.0,0.0,0.0,0.0,0.0,0.0,0.0,0.0,-2.2813,-2.2813,-2.2813,-2.2813,-2.2813,-2.2813,-2.2921,-2.2777,-2.2299,-2.2841,-2.3395,-2.4008,-2.5668,-2.6831,-2.7693,-2.8609,-2.8984,-2.8984,-2.8984,-2.8984,-2.8984,-2.8984,-2.8902,-2.8755,-2.8489,-2.8413,-2.8449,-2.8107,-2.8182,-2.8368,-2.8343,-2.8309,-2.8291,-2.8291,-2.8291,-2.8291,-2.8291,-2.8291,-2.8291,-2.8291,-2.8291,-2.8184,-2.7789,-2.7917,-2.7902,-2.7233,-2.734,-2.7324,-2.6894,-2.6572,-2.6338,-2.6201,-2.5928,-2.5693,-2.5693,-2.5693,-2.5693,-2.5693,-2.5693,-2.5693,-2.5693,-2.5382,-2.5167,-2.5167,-2.4873,-2.4824,-2.5177,-2.4146,-2.3741,-2.4088,-2.3044,-2.2693,-2.2985,-2.2693,-2.2584,-2.2785,-2.4038,-2.4679,-2.1606,-2.1693,0.0,0.0,0.0,0.0,0.0,0.0,0.0,0.0,0.0,0.0,0.0,0.0,0.0,0.0,0.0,0.0,0.0,0.0,0.0,0.0,0.0,0.0,0.0,0.0,0.0,0.0,0.0,0.0,0.0,0.0,0.0,0.0,-2.2184,-2.2184,-2.2184,-2.2184,-2.2184,-2.2184,-2.3389,-2.3429,-2.2598,-2.2285,-2.3395,-2.557,-2.5178,-2.652,-2.8984,-2.8984,-2.8984,-2.8984,-2.8975,-2.8975,-2.8975,-2.8975,-2.8728,-2.8388,-2.8388,-2.8113,-2.7757,-2.7642,-2.7771,-2.7952,-2.7924,-2.8077,-2.8291,-2.8291,-2.8291,-2.8291,-2.8291,-2.8291,-2.8291,-2.8291,-2.8291,-2.795,-2.6799,-2.7144,-2.7332,-2.6143,-2.6508,-2.6875,-2.6455,-2.6387,-2.624,-2.5752,-2.5693,-2.5693,-2.5693,-2.5693,-2.5693,-2.5693,-2.5684,-2.5684,-2.5684,-2.4707,-2.4088,-2.4088,-2.3085,-2.2985,-2.4038,-2.3094,-2.2985,-2.4088,-2.3035,-2.2985,-2.4088,-2.2994,-2.2484,-2.2534,-2.4137,-2.4442,-2.1328,-2.1357,0.0,0.0,0.0,0.0,0.0,0.0,0.0,0.0,0.0,0.0,0.0,0.0,0.0,0.0,0.0,0.0,0.0,0.0,0.0,0.0,0.0,0.0,0.0,0.0,0.0,0.0,0.0,0.0,0.0,0.0,0.0,0.0,-2.2184,-2.2184,-2.2184,-2.2184,-2.2184,-2.2184,-2.3389,-2.3652,-2.3195,-2.4674,-2.5763,-2.6483,-2.7112,-2.7991,-2.8984,-2.8984,-2.8984,-2.8957,-2.8682,-2.8572,-2.8535,-2.8232,-2.8107,-2.7911,-2.7636,-2.7462,-2.7335,-2.7206,-2.7339,-2.7637,-2.7837,-2.8077,-2.8291,-2.8291,-2.8291,-2.8291,-2.8291,-2.8291,-2.8291,-2.8291,-2.7452,-2.6799,-2.7252,-2.6707,-2.6121,-2.6248,-2.6458,-2.6435,-2.6006,-2.5937,-2.584,-2.5703,-2.5693,-2.5693,-2.5693,-2.5693,-2.5693,-2.5693,-2.502,-2.455,-2.455,-2.3592,-2.3285,-2.4038,-2.3085,-2.2985,-2.4038,-2.3094,-2.2985,-2.4088,-2.2291,-2.1887,-2.2985,-2.1887,-2.1836,-2.2785,-2.3285,-2.389,-2.1211,0.0,0.0,0.0,0.0,0.0,0.0,0.0,0.0,0.0,0.0,0.0,0.0,0.0,0.0,0.0,0.0,0.0,0.0,0.0,0.0,0.0,0.0,0.0,0.0,0.0,0.0,0.0,0.0,0.0,0.0,0.0,0.0,0.0,-2.2251,-2.2536,-2.2536,-2.2987,-2.3212,-2.3212,-2.4409,-2.485,-2.4687,-2.5515,-2.6244,-2.6801,-2.7776,-2.8278,-2.8498,-2.8498,-2.8498,-2.8471,-2.8242,-2.8141,-2.8113,-2.7914,-2.7721,-2.7555,-2.726,-2.7179,-2.7105,-2.7019,-2.726,-2.7638,-2.7853,-2.8077,-2.8291,-2.8291,-2.8291,-2.8252,-2.8086,-2.8047,-2.7931,-2.7487,-2.6692,-2.6035,-2.6107,-2.5641,-2.5289,-2.5664,-2.5942,-2.6045,-2.5732,-2.5693,-2.5693,-2.5693,-2.5693,-2.5538,-2.5118,-2.5069,-2.4913,-2.4461,-2.385,-2.3434,-2.3434,-2.2484,-2.2341,-2.3384,-2.2433,-2.2341,-2.3434,-2.2835,-2.2785,-2.3434,-2.2181,-2.1836,-2.2484,-2.1438,-2.1532,-2.2735,-2.2835,-2.3393,0.0,0.0,0.0,0.0,0.0,0.0,0.0,0.0,0.0,0.0,0.0,0.0,0.0,0.0,0.0,0.0,0.0,0.0,0.0,0.0,0.0,0.0,0.0,0.0,0.0,0.0,0.0,0.0,0.0,0.0,0.0,0.0,0.0,-2.1211,-2.2263,-2.2869,-2.2974,-2.4014,-2.4616,-2.4718,-2.5908,-2.6527,-2.6445,-2.552,-2.569,-2.6827,-2.7509,-2.7822,-2.7822,-2.7822,-2.7822,-2.7822,-2.7785,-2.7767,-2.7767,-2.7721,-2.7435,-2.7123,-2.7179,-2.7086,-2.6989,-2.7043,-2.7476,-2.7906,-2.7906,-2.813,-2.8291,-2.8291,-2.8262,-2.8144,-2.7816,-2.7584,-2.7213,-2.6147,-2.5918,-2.5552,-2.4298,-2.4394,-2.4785,-2.4836,-2.5296,-2.5693,-2.5693,-2.5693,-2.5684,-2.5586,-2.5528,-2.5177,-2.4088,-2.3939,-2.3592,-2.2584,-2.2383,-2.2333,-2.2333,-2.1387,-2.1234,-2.2291,-2.1438,-2.1387,-2.2433,-2.2484,-2.2484,-2.2484,-2.2391,-2.2391,-2.2484,-2.1438,-2.143,-2.2492,-2.2735,-2.3053,0.0,0.0,0.0,0.0,0.0,0.0,0.0,0.0,0.0,0.0,0.0,0.0,0.0,0.0,0.0,0.0,0.0,0.0,0.0,0.0,0.0,0.0,0.0,0.0,0.0,0.0,0.0,0.0,0.0,0.0,0.0,0.0,0.0,-2.1211,-2.1432,-2.2036,-2.2974,-2.3247,-2.3799,0.0,-2.5908,-2.6527,-2.6536,-2.7039,-2.7308,-2.7427,-2.7684,-2.7822,-2.7822,-2.7822,-2.7822,-2.7794,-2.7426,-2.7306,-2.727,-2.6958,-2.6784,-2.6765,-2.6965,-2.7009,-2.7098,-2.753,-2.7799,-2.796,-2.8121,-2.8237,-2.8291,-2.8291,-2.8057,-2.7836,-2.7738,-2.6821,-2.5754,-2.5172,-2.5047,-2.5182,-2.5718,-2.4989,-2.4492,-2.532,-2.5605,-2.5693,-2.5693,-2.5693,-2.543,-2.455,-2.4452,-2.4048,-2.2985,-2.2835,-2.2735,-2.2534,-2.1735,-2.1234,-2.1234,-2.0285,-2.0078,-2.1183,-2.1038,-2.1387,-2.2433,-2.2484,-2.2484,-2.2484,-2.1684,-2.1633,-2.2484,-2.1438,-2.143,-2.2484,-2.2534,-2.3194,0.0,0.0,0.0,0.0,0.0,0.0,0.0,0.0,0.0,0.0,0.0,0.0,0.0,0.0,0.0,0.0,0.0,0.0,0.0,0.0,0.0,0.0,0.0,0.0,0.0,0.0,0.0,0.0,0.0,0.0,0.0,-2.1211,-2.1211,-2.1211,-2.2312,-2.3191,-2.3799,-2.4965,-2.5854,-2.6445,-2.707,-2.7295,-2.7187,-2.752,-2.7446,-2.7133,-2.7225,-2.7205,-2.7205,-2.7205,-2.7205,-2.7178,-2.6976,-2.6894,-2.6921,-2.681,-2.6791,-2.6845,-2.7107,-2.7314,-2.7476,-2.7799,-2.796,-2.813,-2.8237,-2.8154,-2.7988,-2.7988,-2.7309,-2.656,-2.6361,-2.5301,-2.4195,-2.3803,-2.3856,-2.4098,-2.4473,-2.3895,-2.3493,-2.4057,-2.4165,-2.4165,-2.4165,-2.4165,-2.4156,-2.4088,-2.3642,-2.2944,-2.1887,-2.1735,-2.1735,-2.1735,-2.1234,-2.1089,-2.1633,-2.0688,-2.0534,-2.1582,-2.1183,-2.1132,-2.1735,-2.224,-2.224,-2.1735,-2.1183,-2.0936,-2.0987,-2.0439,-2.0688,-2.1735,-2.1988,-2.2985,0.0,0.0,0.0,0.0,0.0,0.0,0.0,0.0,0.0,0.0,0.0,0.0,0.0,0.0,0.0,0.0,0.0,0.0,0.0,0.0,0.0,0.0,0.0,0.0,0.0,0.0,0.0,0.0,0.0,0.0,-2.1211,-2.1211,-2.1211,-2.1211,-2.3303,-2.4505,-2.4727,-2.6898,-2.8067,-2.8291,-2.8291,-2.813,-2.7799,-2.753,-2.7107,-2.6691,-2.6636,-2.6591,-2.6591,-2.6591,-2.6591,-2.6591,-2.6591,-2.6646,-2.6691,-2.6944,-2.7043,-2.7098,-2.7377,-2.7691,-2.7906,-2.796,-2.796,-2.8004,-2.7927,-2.755,-2.7103,-2.7036,-2.6068,-2.4936,-2.4608,-2.363,-2.2664,-2.2561,-2.2622,-2.2656,-2.2552,-2.2484,-2.2484,-2.2484,-2.2484,-2.2484,-2.2484,-2.2484,-2.2735,-2.3434,-2.2785,-2.1887,-2.103,-2.0731,-2.068,-2.0885,-2.0731,-2.0987,-2.1887,-2.1132,-2.0987,-2.1887,-2.1132,-2.0688,-2.0885,-2.1582,-2.1633,-2.0936,-2.0885,-2.0483,-1.9576,-1.9576,-2.013,-2.1183,-2.1633,-2.2735,0.0,0.0,0.0,0.0,0.0,0.0,0.0,0.0,0.0,0.0,0.0,0.0,0.0,0.0,0.0,0.0,0.0,0.0,0.0,0.0,0.0,0.0,0.0,0.0,0.0,0.0,0.0,0.0,0.0,0.0,-2.1211,-2.1211,-2.1211,-2.1211,-2.2539,-2.3687,-2.4671,-2.6073,-2.7241,-2.8291,-2.8291,-2.8023,-2.7485,-2.7431,-2.7215,-2.6935,-2.6691,-2.6591,-2.6591,-2.6591,-2.6591,-2.6591,-2.6591,-2.6736,-2.6935,-2.6989,-2.7152,-2.7377,-2.7691,-2.7853,-2.796,-2.8184,-2.7574,-2.668,-2.6382,-2.5576,-2.4702,-2.4386,-2.3896,-2.341,-2.3366,-2.2246,-2.1393,-2.2299,-2.1818,-2.1444,-2.2299,-2.2484,-2.2484,-2.2484,-2.2484,-2.2484,-2.2484,-2.2484,-2.2232,-2.1438,-2.1183,-2.1038,-2.0936,-2.0086,-1.9879,-2.0783,-2.0086,-1.9576,-1.9732,-1.9576,-1.9576,-1.9732,-1.9576,-1.9931,-2.0885,-2.013,-2.0078,-2.0885,-2.0885,-2.0834,-2.0688,-2.0688,-2.1234,-2.2291,-2.2341,-2.2885,0.0,0.0,0.0,0.0,0.0,0.0,0.0,0.0,0.0,0.0,0.0,0.0,0.0,0.0,0.0,0.0,0.0,0.0,0.0,0.0,0.0,0.0,0.0,0.0,0.0,0.0,0.0,0.0,0.0,-2.1211,-2.1211,-2.1211,-2.1489,-2.2207,-2.3359,-2.4514,-2.568,-2.6907,-2.7789,-2.8291,-2.8291,-2.8077,-2.7691,-2.7691,-2.7377,-2.6791,-2.6636,-2.6591,-2.6591,-2.6591,-2.6591,-2.6591,-2.6591,-2.6691,-2.6791,-2.7107,-2.7323,-2.7368,-2.7187,-2.7133,-2.6987,-2.6306,-2.5685,-2.5173,-2.4845,-2.4246,-2.3608,-2.3453,-2.2662,-2.1872,-2.1872,-2.0945,-2.013,-2.0585,-2.0336,-2.013,-2.0585,-2.1183,-2.1438,-2.0834,-2.0688,-2.0885,-2.1489,-2.1582,-2.1641,-2.1785,-2.1785,-2.1582,-2.0987,-2.0483,-2.038,-2.0834,-2.0483,-2.0431,-2.1038,-2.0534,-2.0181,-2.0181,-1.9628,-1.9524,-1.9983,-2.013,-2.013,-2.0034,-1.9983,-1.9983,-1.9983,-1.9983,-2.0233,-2.0731,-2.1038,-2.1988,0.0,0.0,0.0,0.0,0.0,0.0,0.0,0.0,0.0,0.0,0.0,0.0,0.0,0.0,0.0,0.0,0.0,0.0,0.0,0.0,0.0,0.0,0.0,0.0,0.0,0.0,0.0,0.0,0.0,-2.1086,-2.1086,-2.1006,-2.1549,-2.2839,-2.3983,-2.5191,-2.6472,-2.7682,-2.8291,-2.8291,-2.8291,-2.813,-2.7745,-2.7745,-2.7323,-2.6591,-2.6691,-2.6636,-2.6591,-2.6591,-2.6591,-2.6591,-2.6591,-2.6636,-2.6682,-2.6826,-2.6862,-2.6853,-2.6073,-2.5811,-2.5639,-2.4539,-2.398,-2.3643,-2.3341,-2.2766,-2.2256,-2.2157,-2.1333,-2.0483,-2.0483,-1.9879,-1.9279,-1.9279,-1.9279,-1.9279,-1.9279,-1.9931,-2.0285,-1.948,-1.9279,-1.9524,-2.038,-2.0483,-2.0783,-2.1591,-2.1692,-2.1489,-2.0987,-2.0688,-2.0585,-2.0885,-2.0688,-2.0834,-2.1633,-2.0936,-2.0483,-2.0483,-1.9732,-1.9428,-1.968,-2.0233,-2.0233,-1.9732,-1.9428,-1.9279,-1.9279,-1.9279,-1.9428,-1.9732,-2.0181,-2.1489,0.0,0.0,0.0,0.0,0.0,0.0,0.0,0.0,0.0,0.0,0.0,0.0,0.0,0.0,0.0,0.0,0.0,0.0,0.0,0.0,0.0,0.0,0.0,0.0,0.0,0.0,0.0,0.0,0.0,-2.075,-2.075,-2.0402,-2.0963,-2.2466,-2.3662,-2.5037,-2.6472,-2.7682,-2.8291,-2.8291,-2.8291,-2.797,-2.7431,-2.7431,-2.7107,-2.6591,-2.689,-2.6836,-2.6591,-2.6591,-2.6591,-2.6591,-2.6591,-2.6736,-2.6826,-2.5744,-2.5461,-2.5518,-2.437,-2.3917,-2.3911,-2.3838,-2.3073,-2.2047,-2.1739,-2.0854,-1.9901,-1.9591,-1.9442,-1.9376,-1.9376,-1.9324,-1.9279,-1.9279,-1.9279,-1.9279,-1.9279,-1.9324,-1.9383,-1.9324,-1.9279,-1.9324,-1.9376,-1.9376,-1.9376,-1.948,-1.948,-1.9828,-2.0783,-2.0027,-1.9776,-2.0783,-1.9983,-1.9428,-1.948,-1.9428,-1.9376,-1.9376,-1.9324,-1.9783,-2.0783,-1.9879,-1.9828,-2.0783,-1.9828,-1.9279,-1.9279,-1.9279,-1.9828,-2.0834,-2.1089,-2.2089,0.0,0.0,0.0,0.0,0.0,0.0,0.0,0.0,0.0,0.0,0.0,0.0,0.0,0.0,0.0,0.0,0.0,0.0,0.0,0.0,0.0,0.0,0.0,0.0,0.0,0.0,0.0,0.0,0.0,0.0,-2.0358,-2.0249,-2.082,-2.2162,-2.3277,-2.4792,-2.6774,-2.7263,-2.7471,-2.7471,-2.7471,-2.7263,-2.6888,-2.6888,-2.6584,-2.6076,-2.6172,-2.6363,-2.6591,-2.6591,-2.6591,-2.6564,-2.6342,-2.6286,-2.6303,-2.5964,-2.5483,-2.4819,-2.396,-2.3215,-2.2476,-2.1559,-2.0925,-2.0544,-2.0211,-1.9807,-1.9425,-1.9308,-1.9279,-1.9279,-1.9279,-1.9279,-1.9279,-1.9279,-1.9279,-1.9279,-1.9279,-1.9279,-1.9279,-1.9279,-1.9279,-1.9279,-1.9279,-1.9879,-2.0336,-2.0336,-2.0936,-2.1234,-2.0936,-2.0585,-2.0233,-1.9931,-1.9532,-1.9279,-1.9279,-1.9279,-1.9279,-1.9279,-1.9279,-1.948,-1.9879,-1.948,-1.948,-1.9879,-1.948,-1.9279,-1.9279,-1.9279,-1.968,-2.0388,-2.0483,-2.1497,0.0,0.0,0.0,0.0,0.0,0.0,0.0,0.0,0.0,0.0,0.0,0.0,0.0,0.0,0.0,0.0,0.0,0.0,0.0,0.0,0.0,0.0,0.0,0.0,0.0,0.0,0.0,0.0,0.0,0.0,-2.0077,-1.9974,-2.0482,-2.1796,-2.3387,-2.4943,-2.6439,-2.6807,-2.7012,-2.7012,-2.691,-2.6756,-2.6439,-2.6397,-2.6088,-2.5693,-2.5693,-2.5894,-2.6178,-2.6178,-2.6178,-2.6151,-2.592,-2.5819,-2.572,-2.5113,-2.4429,-2.3667,-2.2527,-2.1698,-2.0903,-1.9962,-1.9654,-1.961,-1.9397,-1.9279,-1.9279,-1.9279,-1.9279,-1.9279,-1.9279,-1.9279,-1.9279,-1.9279,-1.9279,-1.9279,-1.9279,-1.9279,-1.9279,-1.9279,-1.9279,-1.9279,-1.9279,-1.9879,-2.038,-2.038,-2.0987,-2.1191,-2.0431,-2.038,-2.0086,-1.9376,-1.9279,-1.9279,-1.9279,-1.9279,-1.9279,-1.9279,-1.9279,-1.9279,-1.9279,-1.9279,-1.9279,-1.9279,-1.9279,-1.9279,-1.9279,-1.948,-1.9931,-2.0637,-2.0893,-2.1954,0.0,0.0,0.0,0.0,0.0,0.0,0.0,0.0,0.0,0.0,0.0,0.0,0.0,0.0,0.0,0.0,0.0,0.0,0.0,0.0,0.0,0.0,0.0,0.0,0.0,0.0,0.0,0.0,0.0,-1.9801,-1.9801,-1.95,-1.9971,-2.1422,-2.3974,-2.5341,-2.5341,-2.6401,-2.6922,-2.6922,-2.6605,-2.6349,-2.6083,-2.5792,-2.5543,-2.5335,-2.5335,-2.5387,-2.5387,-2.5414,-2.5372,-2.5372,-2.5353,-2.5301,-2.5032,-2.3031,-2.2277,-2.1961,-2.0003,-1.932,-1.9323,-1.9277,-1.9279,-1.9279,-1.9279,-1.9279,-1.9279,-1.9279,-1.9279,-1.9279,-1.9279,-1.9279,-1.9279,-1.9279,-1.9279,-1.9279,-1.9279,-1.9279,-1.9279,-1.9279,-1.9279,-1.9279,-1.9279,-1.9279,-1.9279,-1.9279,-1.9279,-1.9279,-1.9279,-1.9279,-1.9279,-1.9279,-1.9279,-1.9279,-1.9279,-1.9279,-1.9279,-1.9279,-1.9279,-1.9279,-1.9279,-1.9279,-1.9279,-1.9279,-1.9279,-1.9279,-1.9279,-1.9828,-2.0637,-2.1692,-2.2509,-2.3569,-2.0501,0.0,0.0,0.0,0.0,0.0,0.0,0.0,0.0,0.0,0.0,0.0,0.0,0.0,0.0,0.0,0.0,0.0,0.0,0.0,0.0,0.0,0.0,0.0,0.0,0.0,0.0,0.0,-1.9462,-1.9463,-1.9463,-1.9323,-1.9821,-2.102,-2.2494,-2.3672,-2.4436,-2.4737,-2.4886,-2.4886,-2.3824,-2.3207,-2.2962,-2.3479,-2.3538,-2.3353,-2.418,-2.4542,-2.4587,-2.5176,-2.4927,-2.414,-2.4077,-2.3548,-2.2795,-2.2346,-2.1688,-2.0963,-2.0602,-1.9963,-1.9291,-1.9301,-1.9279,-1.9279,-1.9279,-1.9279,-1.9279,-1.9279,-1.9279,-1.9279,-1.9279,-1.9279,-1.9279,-1.9279,-1.9279,-1.9279,-1.9279,-1.9279,-1.9279,-1.9279,-1.9279,-1.9279,-1.9279,-1.9279,-1.9279,-1.9279,-1.9279,-1.9279,-1.9279,-1.9279,-1.9279,-1.9279,-1.9279,-1.9279,-1.9279,-1.9279,-1.9279,-1.9279,-1.9279,-1.9279,-1.9279,-1.9279,-1.9279,-1.9279,-1.9279,-1.9279,-1.9279,-1.9828,-2.0439,-2.1165,-2.2182,-2.2887,0.0,0.0,0.0,0.0,0.0,0.0,0.0,-2.0448,0.0,0.0,0.0,0.0,0.0,0.0,0.0,0.0,0.0,0.0,0.0,0.0,0.0,0.0,0.0,0.0,0.0,0.0,0.0,-1.9294,-1.9279,-1.9279,-1.9279,-1.9279,-1.9583,-2.0233,-2.1692,-2.2593,-2.2735,-2.3633,-2.389,-2.3434,-2.2542,-2.2038,-2.1887,-2.2249,-2.2316,-2.2173,-2.2887,-2.3138,-2.3173,-2.3681,-2.3651,-2.335,-2.2929,-2.2391,-2.18,-2.152,-2.1038,-2.0483,-2.0277,-1.9828,-1.9279,-1.9279,-1.9279,-1.9279,-1.9279,-1.9279,-1.9279,-1.9279,-1.9279,-1.9279,-1.9279,-1.9279,-1.9279,-1.9279,-1.9279,-1.9279,-1.9279,-1.9279,-1.9279,-1.9279,-1.9279,-1.9279,-1.9279,-1.9279,-1.9279,-1.9279,-1.9279,-1.9279,-1.9279,-1.9279,-1.9279,-1.9279,-1.9279,-1.9279,-1.9279,-1.9279,-1.9279,-1.9279,-1.9279,-1.9279,-1.9279,-1.9279,-1.9279,-1.9279,-1.9279,-1.9428,-1.9628,-1.9931,-2.0498,-2.1275,-2.219,-2.2594,0.0,0.0,0.0,0.0,0.0,0.0,-2.0182,-2.0182,-2.0182,0.0,0.0,0.0,0.0,0.0,0.0,0.0,0.0,0.0,0.0,0.0,0.0,0.0,0.0,0.0,0.0,-1.9279,-1.9279,-1.9279,-1.9279,-1.9279,-1.9279,-1.9279,-1.9279,-1.9279,-2.1285,-2.1836,-2.0885,-2.2785,-2.3294,-2.2341,-2.1937,-2.1735,-2.1735,-2.1607,-2.1522,-2.1522,-2.1674,-2.1725,-2.1674,-2.1623,-2.1971,-2.2526,-2.1818,-2.1471,-2.1318,-2.0644,-2.0388,-2.0285,-1.9532,-1.9279,-1.9279,-1.9279,-1.9279,-1.9279,-1.9279,-1.9279,-1.9279,-1.9279,-1.9279,-1.9279,-1.9279,-1.9279,-1.9279,-1.9279,-1.9279,-1.9279,-1.9279,-1.9279,-1.9279,-1.9279,-1.9279,-1.9279,-1.9279,-1.9279,-1.9279,-1.9279,-1.9279,-1.9279,-1.9279,-1.9279,-1.9279,-1.9279,-1.9279,-1.9279,-1.9279,-1.9279,-1.9279,-1.9279,-1.9279,-1.9279,-1.9279,-1.9279,-1.9279,-1.9279,-1.9279,-1.9524,-2.0027,-2.0078,-2.0644,-2.1623,-2.2241,-2.2493,0.0,0.0,0.0,0.0,0.0,0.0,-2.0128,-2.0128,-2.0023,0.0,0.0,0.0,0.0,0.0,0.0,0.0,0.0,0.0,0.0,0.0,0.0,0.0,0.0,0.0,0.0,-1.9279,-1.9279,-1.9279,-1.9279,-1.9279,-1.9279,-1.9279,-1.9279,-1.9279,-2.0534,-2.1132,-2.0885,-2.1336,-2.1438,-2.1183,-2.0086,-1.9532,-1.9532,-2.0138,-2.0388,-2.0439,-2.131,-2.1725,-2.1674,-2.1003,-2.0688,-2.0637,-2.0688,-2.0189,-1.9435,-1.9532,-1.9524,-1.9524,-1.9324,-1.9279,-1.9279,-1.9279,-1.9279,-1.9279,-1.9279,-1.9279,-1.9279,-1.9279,-1.9279,-1.9279,-1.9279,-1.9279,-1.9279,-1.9279,-1.9279,-1.9279,-1.9279,-1.9279,-1.9279,-1.9279,-1.9279,-1.9279,-1.9279,-1.9279,-1.9279,-1.9279,-1.9279,-1.9279,-1.9279,-1.9279,-1.9279,-1.9279,-1.9279,-1.9279,-1.9279,-1.9279,-1.9279,-1.9279,-1.9279,-1.9279,-1.9279,-1.9279,-1.9279,-1.9279,-1.9279,-1.9324,-1.948,-1.9879,-2.0447,-2.107,-2.1632,-2.1878,0.0,0.0,0.0,-2.055,0.0,0.0,0.0,-1.968,0.0,0.0,0.0,0.0,0.0,0.0,0.0,0.0,0.0,0.0,0.0,0.0,0.0,0.0,0.0,0.0,0.0,-1.9279,-1.9279,-1.9279,-1.9279,-1.9279,-1.9279,-1.9279,-1.9279,-1.9279,-2.0336,-2.0637,-2.0138,-2.0629,-2.0629,-2.0078,-1.9428,-1.9078,-1.9123,-1.9532,-1.968,-1.9732,-2.0292,-2.0498,-2.0447,-2.0086,-1.9828,-1.9732,-1.9835,-1.9576,-1.9123,-1.9279,-1.9279,-1.9279,-1.9279,-1.9279,-1.9279,-1.9279,-1.9279,-1.9279,-1.9279,-1.9279,-1.9279,-1.9279,-1.9279,-1.9279,-1.9279,-1.9279,-1.9279,-1.9279,-1.9279,-1.9279,-1.9279,-1.9279,-1.9279,-1.9279,-1.9279,-1.9279,-1.9279,-1.9279,-1.9279,-1.9279,-1.9279,-1.9279,-1.9279,-1.9279,-1.9279,-1.9279,-1.9279,-1.9279,-1.9279,-1.9279,-1.9279,-1.9279,-1.9279,-1.9279,-1.9279,-1.9279,-1.9279,-1.9279,-1.9279,-1.9279,-1.9279,-1.9583,-1.999,-2.0498,-2.1318,-2.1626,0.0,0.0,0.0,0.0,0.0,-2.0086,0.0,0.0,0.0,0.0,0.0,0.0,0.0,0.0,0.0,0.0,0.0,0.0,0.0,0.0,0.0,0.0,0.0,0.0,0.0,-1.9279,-1.9279,-1.9279,-1.9279,-1.9279,-1.9279,-1.9279,-1.9279,-1.9279,-2.013,-2.0181,-1.9331,-2.0181,-2.0181,-1.9279,-1.9279,-1.9279,-1.9279,-1.9279,-1.9279,-1.9279,-1.9279,-1.9279,-1.9279,-1.9279,-1.9279,-1.9279,-1.9279,-1.9279,-1.9279,-1.9279,-1.9279,-1.9279,-1.9279,-1.9279,-1.9279,-1.9279,-1.9279,-1.9279,-1.9279,-1.9279,-1.9279,-1.9279,-1.9279,-1.9279,-1.9279,-1.9279,-1.9279,-1.9279,-1.9279,-1.9279,-1.9279,-1.9279,-1.9279,-1.9279,-1.9279,-1.9279,-1.9279,-1.9279,-1.9279,-1.9279,-1.9279,-1.9279,-1.9279,-1.9279,-1.9279,-1.9279,-1.9279,-1.9279,-1.9279,-1.9279,-1.9279,-1.9279,-1.9279,-1.9279,-1.9279,-1.9279,-1.9279,-1.9279,-1.9279,-1.9294,-1.9339,-1.9339,-1.9538,-1.9987,-2.0958,-2.1319,0.0,0.0,0.0,0.0,-2.1165,0.0,0.0,0.0,0.0,0.0,0.0,0.0,0.0,0.0,0.0,0.0,0.0,0.0,0.0,0.0,0.0,0.0,0.0,0.0,0.0,0.0,-1.9279,-1.9279,-1.9279,-1.9279,-1.9279,-1.9279,-1.9279,-1.9279,-1.9428,-1.9428,-1.9279,-1.9428,-1.9428,-1.9279,-1.9279,-1.9279,-1.9279,-1.9279,-1.9279,-1.9279,-1.9279,-1.9279,-1.9279,-1.9279,-1.9279,-1.9279,-1.9279,-1.9279,-1.9279,-1.9279,-1.9279,-1.9279,-1.9279,-1.9279,-1.9279,-1.9279,-1.9279,-1.9279,-1.9279,-1.9279,-1.9279,-1.9279,-1.9279,-1.9279,-1.9279,-1.9279,-1.9279,-1.9279,-1.9279,-1.9279,-1.9279,-1.9279,-1.9279,-1.9279,-1.9279,-1.9279,-1.9279,-1.9279,-1.9279,-1.9279,-1.9279,-1.9279,-1.9279,-1.9279,-1.9279,-1.9279,-1.9279,-1.9279,-1.9279,-1.9279,-1.9279,-1.9279,-1.9279,-1.9279,-1.9279,-1.9279,-1.9279,-1.9279,-1.9279,-1.9339,-1.9499,-1.9499,-1.9499,-1.96,-2.0189,-2.0547,0.0,0.0,0.0,0.0,0.0,0.0,-2.0609,0.0,-2.0153,0.0,0.0,0.0,0.0,0.0,0.0,0.0,0.0,0.0,0.0,0.0,0.0,0.0,0.0,0.0,0.0,0.0,0.0,0.0,0.0,-1.9279,-1.9279,-1.9279,-1.9279,-1.9279,-1.9279,-1.9279,-1.9279,-1.9279,-1.9279,-1.9279,-1.9279,-1.9279,-1.9279,-1.9279,-1.9279,-1.9279,-1.9279,-1.9279,-1.9279,-1.9279,-1.9279,-1.9279,-1.9279,-1.9279,-1.9279,-1.9279,-1.9279,-1.9279,-1.9279,-1.9279,-1.9279,-1.9279,-1.9279,-1.9279,-1.9279,-1.9279,-1.9279,-1.9279,-1.9279,-1.9279,-1.9279,-1.9279,-1.9279,-1.9279,-1.9279,-1.9279,-1.9279,-1.9279,-1.9279,-1.9279,-1.9279,-1.9279,-1.9279,-1.9279,-1.9279,-1.9279,-1.9279,-1.9279,-1.9279,-1.9279,-1.9279,-1.9279,-1.9279,-1.9279,-1.9279,-1.9279,-1.9279,-1.9279,-1.9279,-1.9279,-1.9279,-1.9279,-1.9279,-1.9279,-1.9089,-1.9183,-1.9497,-1.9292,-1.939,-1.9781,-2.0281,-2.0378,-2.2182,0.0,0.0,0.0,0.0,0.0,0.0,0.0,0.0,0.0,0.0,0.0,0.0,0.0,0.0,0.0,0.0,0.0,0.0,0.0,0.0,0.0,0.0,0.0,0.0,0.0,0.0,-1.9279,-1.9279,-1.9279,-1.9279,-1.9279,-1.9279,-1.9279,-1.9279,-1.9279,-1.9279,-1.9279,-1.9279,-1.9279,-1.9279,-1.9279,-1.9279,-1.9279,-1.9279,-1.9279,-1.9279,-1.9279,-1.9279,-1.9279,-1.9279,-1.9279,-1.9279,-1.9279,-1.9279,-1.9279,-1.9279,-1.9279,-1.9279,-1.9279,-1.9279,-1.9279,-1.9279,-1.9279,-1.9279,-1.9279,-1.9279,-1.9279,-1.9279,-1.9279,-1.9279,-1.9279,-1.9279,-1.9279,-1.9279,-1.9279,-1.9279,-1.9279,-1.9279,-1.9279,-1.9258,-1.914,-1.914,-1.9213,-1.925,-1.9155,-1.914,-1.9111,-1.9023,-1.9008,-1.9008,-1.9008,-1.9008,-1.9045,-1.9133,-1.914,-1.9184,-1.9272,-1.9279,-1.9235,-1.9147,-1.914,-1.9103,-1.9016,-1.8774,-1.8864,-1.9266,-1.912,-1.9343,-1.9896,-2.0274,-2.0289,0.0,0.0,0.0,-2.1827,0.0,0.0,0.0,0.0,-2.0763,0.0,0.0,0.0,0.0,0.0,0.0,-1.9279,0.0,0.0,0.0,0.0,0.0,0.0,0.0,0.0,0.0,0.0,0.0,-1.9279,-1.9279,-1.9279,-1.9279,-1.9279,-1.9279,-1.9279,-1.9279,-1.9279,-1.9279,-1.9279,-1.9279,-1.9279,-1.9279,-1.9279,-1.9279,-1.9279,-1.9279,-1.9279,-1.9279,-1.9279,-1.9279,-1.9279,-1.9279,-1.9279,-1.9279,-1.9279,-1.9279,-1.9279,-1.9279,-1.9279,-1.9279,-1.9279,-1.9279,-1.9279,-1.9279,-1.9279,-1.9279,-1.9279,-1.9279,-1.9279,-1.9279,-1.9279,-1.9279,-1.9279,-1.9279,-1.9279,-1.9279,-1.9279,-1.9279,-1.9279,-1.9279,-1.9279,-1.9023,-1.8803,-1.8803,-1.9067,-1.9169,-1.8855,-1.8803,-1.8694,-1.8372,-1.8335,-1.8335,-1.8335,-1.8335,-1.846,-1.8774,-1.8803,-1.8935,-1.9257,-1.9279,-1.9133,-1.8818,-1.8803,-1.8657,-1.8343,-1.8321,-1.8412,-1.8628,-1.909,-1.942,-1.9625,-1.9887,-2.0142,0.0,0.0,-2.203,-2.2241,0.0,0.0,0.0,0.0,0.0,0.0,0.0,0.0,0.0,0.0,0.0,-1.9279,0.0,0.0,0.0,0.0,0.0,0.0,0.0,0.0,0.0,0.0,0.0,-1.9279,-1.9279,-1.9279,0.0,-1.9279,-1.9279,-1.9279,-1.9279,-1.9279,-1.9279,-1.9279,-1.9279,-1.9279,-1.9279,-1.9279,-1.9279,-1.9279,-1.9279,-1.9279,-1.9279,-1.9279,-1.9279,-1.9279,-1.9279,-1.9279,-1.9279,-1.9279,-1.9279,-1.9279,-1.9279,-1.9279,-1.9279,-1.9279,-1.9279,-1.9279,-1.9279,-1.9279,-1.9279,-1.9279,-1.9279,-1.9279,-1.9279,-1.9279,-1.9279,-1.9279,-1.9279,-1.9279,-1.9279,-1.9279,-1.9279,-1.9279,-1.9213,-1.8994,-1.8869,-1.8723,-1.8503,-1.8555,-1.8591,-1.8482,-1.8467,-1.843,-1.8321,-1.8299,-1.8299,-1.8299,-1.8299,-1.835,-1.846,-1.8467,-1.8511,-1.8621,-1.8628,-1.8584,-1.8474,-1.8467,-1.8416,-1.8306,-1.8094,-1.8167,-1.859,-1.884,-1.917,-1.96,-2.0,-2.0229,-2.1725,-2.1878,0.0,-2.2493,-2.2131,0.0,-2.1725,0.0,0.0,0.0,0.0,0.0,0.0,0.0,0.0,-1.9279,-1.9279,0.0,0.0,-1.9279,0.0,0.0,0.0,0.0,0.0,0.0,-1.9279,-1.9279,-1.9279,-1.9279,0.0,0.0,-1.9279,-1.9279,-1.9279,-1.9279,-1.9279,-1.9279,-1.9279,-1.9279,-1.9279,-1.9279,-1.9279,-1.9279,-1.9279,-1.9279,-1.9279,-1.9279,-1.9279,-1.9279,-1.9279,-1.9279,-1.9279,-1.9206,-1.9118,-1.9287,-1.9279,-1.9279,-1.9279,-1.9279,-1.9279,-1.9279,-1.9279,-1.9279,-1.9279,-1.9279,-1.9279,-1.9279,-1.9279,-1.9279,-1.9279,-1.9279,-1.9279,-1.9279,-1.9279,-1.9294,-1.9133,-1.9103,-1.9008,-1.8679,-1.8525,-1.8379,-1.8167,-1.8035,-1.7991,-1.8108,-1.813,-1.8086,-1.7969,-1.7955,-1.7955,-1.7955,-1.7955,-1.7999,-1.8116,-1.824,-1.8299,-1.8299,-1.8299,-1.8247,-1.8138,-1.813,-1.813,-1.813,-1.7808,-1.7945,-1.859,-1.8722,-1.9096,-1.96,-2.0056,-2.0292]}]]